Wetterdaten: Mittwoch, 19.07.2017
Datum Zeit Temp. A. Pool Temp. Feuchte A. Luftdruck Regen Wind Richtung Richtung Sonnenschein ET UV Solar Taupunkt Windchill Windben Empfang
19.07.2017 00:00 22,1 C 25,0 C 68 % 1013,3 hPa 0,0 l/m 2,2 km/h (1 Bft) SW 219 0 min 0,000 mm 0,0 UV-I 0 W/m 15,9 C 22,1 C 3,2 km/h (1 Bft) 98,00 %
19.07.2017 00:02 21,9 C 25,0 C 68 % 1013,3 hPa 0,0 l/m 1,3 km/h (1 Bft) SW 219 0 min 0,000 mm 0,0 UV-I 0 W/m 15,7 C 21,9 C 3,2 km/h (1 Bft) 93,02 %
19.07.2017 00:04 21,9 C 25,0 C 69 % 1013,4 hPa 0,0 l/m 1,2 km/h (1 Bft) SW 219 0 min 0,000 mm 0,0 UV-I 0 W/m 15,9 C 21,9 C 3,2 km/h (1 Bft) 96,00 %
19.07.2017 00:06 21,8 C 25,0 C 70 % 1013,4 hPa 0,0 l/m 2,0 km/h (1 Bft) SW 219 0 min 0,000 mm 0,0 UV-I 0 W/m 16,1 C 21,8 C 3,2 km/h (1 Bft) 97,44 %
19.07.2017 00:08 21,7 C 25,0 C 71 % 1013,4 hPa 0,0 l/m 1,2 km/h (1 Bft) SW 219 0 min 0,000 mm 0,0 UV-I 0 W/m 16,2 C 21,7 C 3,2 km/h (1 Bft) 97,87 %
19.07.2017 00:10 21,6 C 24,4 C 70 % 1013,4 hPa 0,0 l/m 1,2 km/h (1 Bft) SW 219 0 min 0,000 mm 0,0 UV-I 0 W/m 15,9 C 21,6 C 3,2 km/h (1 Bft) 98,00 %
19.07.2017 00:12 21,5 C 25,0 C 70 % 1013,4 hPa 0,0 l/m 0,4 km/h (0 Bft) SW 219 0 min 0,000 mm 0,0 UV-I 0 W/m 15,8 C 21,5 C 1,6 km/h (1 Bft) 100,00 %
19.07.2017 00:14 21,4 C 25,0 C 70 % 1013,4 hPa 0,0 l/m 0,4 km/h (0 Bft) SW 219 0 min 0,000 mm 0,0 UV-I 0 W/m 15,7 C 21,4 C 1,6 km/h (1 Bft) 97,87 %
19.07.2017 00:16 21,4 C 25,0 C 70 % 1013,4 hPa 0,0 l/m 1,3 km/h (1 Bft) SW 219 0 min 0,000 mm 0,0 UV-I 0 W/m 15,7 C 21,4 C 3,2 km/h (1 Bft) 96,00 %
19.07.2017 00:18 21,4 C 25,0 C 69 % 1013,4 hPa 0,0 l/m 2,8 km/h (1 Bft) SW 219 0 min 0,000 mm 0,0 UV-I 0 W/m 15,5 C 21,4 C 4,8 km/h (1 Bft) 95,74 %
19.07.2017 00:20 21,5 C 24,4 C 69 % 1013,4 hPa 0,0 l/m 2,9 km/h (1 Bft) SW 219 0 min 0,000 mm 0,0 UV-I 0 W/m 15,6 C 21,5 C 4,8 km/h (1 Bft) 95,74 %
19.07.2017 00:22 21,6 C 25,0 C 68 % 1013,4 hPa 0,0 l/m 1,6 km/h (1 Bft) SW 219 0 min 0,000 mm 0,0 UV-I 0 W/m 15,4 C 21,6 C 3,2 km/h (1 Bft) 97,87 %
19.07.2017 00:24 21,7 C 25,0 C 68 % 1013,4 hPa 0,0 l/m 0,3 km/h (0 Bft) SW 219 0 min 0,000 mm 0,0 UV-I 0 W/m 15,5 C 21,7 C 1,6 km/h (1 Bft) 97,87 %
19.07.2017 00:26 21,7 C 25,0 C 68 % 1013,4 hPa 0,0 l/m 0,0 km/h (0 Bft) SW 219 0 min 0,000 mm 0,0 UV-I 0 W/m 15,5 C 21,7 C 0,0 km/h (0 Bft) 95,74 %
19.07.2017 00:28 21,7 C 25,0 C 68 % 1013,4 hPa 0,0 l/m 0,0 km/h (0 Bft) SW 219 0 min 0,000 mm 0,0 UV-I 0 W/m 15,5 C 21,7 C 0,0 km/h (0 Bft) 95,74 %
19.07.2017 00:30 21,7 C 25,0 C 67 % 1013,4 hPa 0,0 l/m 0,1 km/h (0 Bft) SW 219 0 min 0,000 mm 0,0 UV-I 0 W/m 15,3 C 21,7 C 1,6 km/h (1 Bft) 93,62 %
19.07.2017 00:32 21,7 C 25,0 C 67 % 1013,4 hPa 0,0 l/m 2,2 km/h (1 Bft) SW 219 0 min 0,000 mm 0,0 UV-I 0 W/m 15,3 C 21,7 C 3,2 km/h (1 Bft) 100,00 %
19.07.2017 00:34 21,6 C 25,0 C 68 % 1013,4 hPa 0,0 l/m 0,7 km/h (0 Bft) SW 219 0 min 0,000 mm 0,0 UV-I 0 W/m 15,4 C 21,6 C 3,2 km/h (1 Bft) 97,87 %
19.07.2017 00:36 21,5 C 25,0 C 68 % 1013,4 hPa 0,0 l/m 0,2 km/h (0 Bft) SW 219 0 min 0,000 mm 0,0 UV-I 0 W/m 15,3 C 21,5 C 1,6 km/h (1 Bft) 97,87 %
19.07.2017 00:38 21,4 C 24,4 C 68 % 1013,5 hPa 0,0 l/m 0,7 km/h (0 Bft) SW 219 0 min 0,000 mm 0,0 UV-I 0 W/m 15,2 C 21,4 C 3,2 km/h (1 Bft) 97,14 %
19.07.2017 00:40 21,3 C 24,4 C 68 % 1013,5 hPa 0,0 l/m 0,3 km/h (0 Bft) SW 219 0 min 0,000 mm 0,0 UV-I 0 W/m 15,1 C 21,3 C 1,6 km/h (1 Bft) 97,87 %
19.07.2017 00:42 21,3 C 24,4 C 68 % 1013,5 hPa 0,0 l/m 0,0 km/h (0 Bft) SW 219 0 min 0,000 mm 0,0 UV-I 0 W/m 15,1 C 21,3 C 0,0 km/h (0 Bft) 97,92 %
19.07.2017 00:44 21,3 C 24,4 C 68 % 1013,5 hPa 0,0 l/m 0,0 km/h (0 Bft) SW 219 0 min 0,000 mm 0,0 UV-I 0 W/m 15,1 C 21,3 C 0,0 km/h (0 Bft) 95,74 %
19.07.2017 00:46 21,3 C 24,4 C 67 % 1013,5 hPa 0,0 l/m 0,0 km/h (0 Bft) SW 219 0 min 0,000 mm 0,0 UV-I 0 W/m 14,9 C 21,3 C 1,6 km/h (1 Bft) 95,74 %
19.07.2017 00:48 21,4 C 24,4 C 67 % 1013,5 hPa 0,0 l/m 0,0 km/h (0 Bft) SW 219 0 min 0,000 mm 0,0 UV-I 0 W/m 15,0 C 21,4 C 0,0 km/h (0 Bft) 97,87 %
19.07.2017 00:50 21,5 C 24,4 C 66 % 1013,5 hPa 0,0 l/m 0,3 km/h (0 Bft) SW 219 0 min 0,000 mm 0,0 UV-I 0 W/m 14,9 C 21,5 C 1,6 km/h (1 Bft) 96,00 %
19.07.2017 00:52 21,4 C 24,4 C 66 % 1013,5 hPa 0,0 l/m 0,1 km/h (0 Bft) SW 219 0 min 0,000 mm 0,0 UV-I 0 W/m 14,8 C 21,4 C 1,6 km/h (1 Bft) 100,00 %
19.07.2017 00:54 21,4 C 24,4 C 67 % 1013,5 hPa 0,0 l/m 0,0 km/h (0 Bft) SW 219 0 min 0,000 mm 0,0 UV-I 0 W/m 15,0 C 21,4 C 0,0 km/h (0 Bft) 95,74 %
19.07.2017 00:56 21,4 C 24,4 C 67 % 1013,6 hPa 0,0 l/m 0,0 km/h (0 Bft) SW 219 0 min 0,000 mm 0,0 UV-I 0 W/m 15,0 C 21,4 C 1,6 km/h (1 Bft) 96,00 %
19.07.2017 00:58 21,3 C 24,4 C 68 % 1013,6 hPa 0,0 l/m 0,1 km/h (0 Bft) SW 219 0 min 0,000 mm 0,0 UV-I 0 W/m 15,1 C 21,3 C 1,6 km/h (1 Bft) 100,00 %
19.07.2017 01:00 21,1 C 24,4 C 68 % 1013,6 hPa 0,0 l/m 0,3 km/h (0 Bft) SW 219 0 min 0,025 mm 0,0 UV-I 0 W/m 15,0 C 21,1 C 1,6 km/h (1 Bft) 97,87 %
19.07.2017 01:02 21,0 C 24,4 C 69 % 1013,6 hPa 0,0 l/m 1,3 km/h (1 Bft) SW 219 0 min 0,000 mm 0,0 UV-I 0 W/m 15,1 C 21,0 C 3,2 km/h (1 Bft) 93,62 %
19.07.2017 01:04 20,9 C 24,4 C 69 % 1013,6 hPa 0,0 l/m 1,3 km/h (1 Bft) SW 219 0 min 0,000 mm 0,0 UV-I 0 W/m 15,0 C 20,9 C 3,2 km/h (1 Bft) 100,00 %
19.07.2017 01:06 20,8 C 24,4 C 69 % 1013,6 hPa 0,0 l/m 1,6 km/h (1 Bft) SW 219 0 min 0,000 mm 0,0 UV-I 0 W/m 14,9 C 20,8 C 3,2 km/h (1 Bft) 95,74 %
19.07.2017 01:08 20,7 C 24,4 C 71 % 1013,6 hPa 0,0 l/m 1,2 km/h (1 Bft) SW 219 0 min 0,000 mm 0,0 UV-I 0 W/m 15,2 C 20,7 C 3,2 km/h (1 Bft) 95,74 %
19.07.2017 01:10 20,6 C 24,4 C 71 % 1013,6 hPa 0,0 l/m 1,7 km/h (1 Bft) SW 219 0 min 0,000 mm 0,0 UV-I 0 W/m 15,2 C 20,6 C 3,2 km/h (1 Bft) 100,00 %
19.07.2017 01:12 20,5 C 24,4 C 71 % 1013,6 hPa 0,0 l/m 1,3 km/h (1 Bft) SW 219 0 min 0,000 mm 0,0 UV-I 0 W/m 15,1 C 20,5 C 3,2 km/h (1 Bft) 97,87 %
19.07.2017 01:14 20,4 C 24,4 C 72 % 1013,6 hPa 0,0 l/m 1,4 km/h (1 Bft) SW 219 0 min 0,000 mm 0,0 UV-I 0 W/m 15,2 C 20,4 C 3,2 km/h (1 Bft) 100,00 %
19.07.2017 01:16 20,3 C 24,4 C 72 % 1013,6 hPa 0,0 l/m 1,6 km/h (1 Bft) SW 219 0 min 0,000 mm 0,0 UV-I 0 W/m 15,1 C 20,3 C 3,2 km/h (1 Bft) 97,87 %
19.07.2017 01:18 20,3 C 24,4 C 72 % 1013,6 hPa 0,0 l/m 1,8 km/h (1 Bft) SW 219 0 min 0,000 mm 0,0 UV-I 0 W/m 15,1 C 20,3 C 3,2 km/h (1 Bft) 94,44 %
19.07.2017 01:20 20,3 C 24,4 C 72 % 1013,5 hPa 0,0 l/m 2,0 km/h (1 Bft) SW 219 0 min 0,000 mm 0,0 UV-I 0 W/m 15,1 C 20,3 C 3,2 km/h (1 Bft) 95,92 %
19.07.2017 01:22 20,3 C 24,4 C 72 % 1013,5 hPa 0,0 l/m 3,6 km/h (1 Bft) S-SW 204 0 min 0,000 mm 0,0 UV-I 0 W/m 15,1 C 20,3 C 4,8 km/h (1 Bft) 95,83 %
19.07.2017 01:24 20,3 C 24,4 C 72 % 1013,5 hPa 0,0 l/m 3,5 km/h (1 Bft) S-SW 196 0 min 0,000 mm 0,0 UV-I 0 W/m 15,1 C 20,3 C 6,4 km/h (2 Bft) 93,75 %
19.07.2017 01:26 20,3 C 24,4 C 71 % 1013,6 hPa 0,0 l/m 0,7 km/h (0 Bft) S-SW 196 0 min 0,000 mm 0,0 UV-I 0 W/m 14,9 C 20,3 C 1,6 km/h (1 Bft) 97,87 %
19.07.2017 01:28 20,4 C 24,4 C 71 % 1013,5 hPa 0,0 l/m 0,9 km/h (0 Bft) S-SW 196 0 min 0,000 mm 0,0 UV-I 0 W/m 15,0 C 20,4 C 3,2 km/h (1 Bft) 96,00 %
19.07.2017 01:30 20,4 C 24,4 C 71 % 1013,5 hPa 0,0 l/m 0,1 km/h (0 Bft) S-SW 196 0 min 0,000 mm 0,0 UV-I 0 W/m 15,0 C 20,4 C 1,6 km/h (1 Bft) 98,00 %
19.07.2017 01:32 20,4 C 24,4 C 71 % 1013,6 hPa 0,0 l/m 0,1 km/h (0 Bft) S-SW 196 0 min 0,000 mm 0,0 UV-I 0 W/m 15,0 C 20,4 C 1,6 km/h (1 Bft) 95,74 %
19.07.2017 01:34 20,4 C 24,4 C 71 % 1013,6 hPa 0,0 l/m 0,0 km/h (0 Bft) S-SW 196 0 min 0,000 mm 0,0 UV-I 0 W/m 15,0 C 20,4 C 0,0 km/h (0 Bft) 95,74 %
19.07.2017 01:36 20,4 C 24,4 C 71 % 1013,6 hPa 0,0 l/m 0,8 km/h (0 Bft) S-SW 196 0 min 0,000 mm 0,0 UV-I 0 W/m 15,0 C 20,4 C 1,6 km/h (1 Bft) 93,62 %
19.07.2017 01:38 20,4 C 24,4 C 72 % 1013,6 hPa 0,0 l/m 1,3 km/h (1 Bft) S-SW 196 0 min 0,000 mm 0,0 UV-I 0 W/m 15,2 C 20,4 C 1,6 km/h (1 Bft) 97,14 %
19.07.2017 01:40 20,3 C 24,4 C 72 % 1013,7 hPa 0,0 l/m 1,2 km/h (1 Bft) S-SW 196 0 min 0,000 mm 0,0 UV-I 0 W/m 15,1 C 20,3 C 1,6 km/h (1 Bft) 90,57 %
19.07.2017 01:42 20,3 C 24,4 C 72 % 1013,7 hPa 0,0 l/m 0,1 km/h (0 Bft) S-SW 196 0 min 0,000 mm 0,0 UV-I 0 W/m 15,1 C 20,3 C 1,6 km/h (1 Bft) 95,74 %
19.07.2017 01:44 20,3 C 24,4 C 72 % 1013,7 hPa 0,0 l/m 1,0 km/h (0 Bft) S-SW 196 0 min 0,000 mm 0,0 UV-I 0 W/m 15,1 C 20,3 C 3,2 km/h (1 Bft) 93,62 %
19.07.2017 01:46 20,3 C 24,4 C 72 % 1013,7 hPa 0,0 l/m 1,4 km/h (1 Bft) S-SW 196 0 min 0,000 mm 0,0 UV-I 0 W/m 15,1 C 20,3 C 3,2 km/h (1 Bft) 94,00 %
19.07.2017 01:48 20,4 C 24,4 C 72 % 1013,7 hPa 0,0 l/m 2,0 km/h (1 Bft) S-SW 196 0 min 0,000 mm 0,0 UV-I 0 W/m 15,2 C 20,4 C 3,2 km/h (1 Bft) 95,74 %
19.07.2017 01:50 20,3 C 24,4 C 72 % 1013,6 hPa 0,0 l/m 3,2 km/h (1 Bft) S-SW 196 0 min 0,000 mm 0,0 UV-I 0 W/m 15,1 C 20,3 C 4,8 km/h (1 Bft) 93,62 %
19.07.2017 01:52 20,2 C 24,4 C 73 % 1013,7 hPa 0,0 l/m 1,8 km/h (1 Bft) S-SW 196 0 min 0,000 mm 0,0 UV-I 0 W/m 15,2 C 20,2 C 3,2 km/h (1 Bft) 100,00 %
19.07.2017 01:54 20,1 C 24,4 C 73 % 1013,6 hPa 0,0 l/m 2,7 km/h (1 Bft) S-SW 196 0 min 0,000 mm 0,0 UV-I 0 W/m 15,1 C 20,1 C 4,8 km/h (1 Bft) 97,87 %
19.07.2017 01:56 20,1 C 24,4 C 74 % 1013,6 hPa 0,0 l/m 2,3 km/h (1 Bft) S-SW 196 0 min 0,000 mm 0,0 UV-I 0 W/m 15,3 C 20,1 C 3,2 km/h (1 Bft) 95,74 %
19.07.2017 01:58 19,9 C 24,4 C 74 % 1013,5 hPa 0,0 l/m 2,1 km/h (1 Bft) S-SW 196 0 min 0,000 mm 0,0 UV-I 0 W/m 15,1 C 19,9 C 3,2 km/h (1 Bft) 95,74 %
19.07.2017 02:00 19,9 C 24,4 C 74 % 1013,5 hPa 0,0 l/m 2,4 km/h (1 Bft) S-SW 196 0 min 0,000 mm 0,0 UV-I 0 W/m 15,1 C 19,9 C 4,8 km/h (1 Bft) 100,00 %
19.07.2017 02:02 19,8 C 24,4 C 74 % 1013,5 hPa 0,0 l/m 3,1 km/h (1 Bft) S-SW 196 0 min 0,026 mm 0,0 UV-I 0 W/m 15,0 C 19,8 C 4,8 km/h (1 Bft) 96,00 %
19.07.2017 02:04 19,9 C 24,4 C 73 % 1013,5 hPa 0,0 l/m 4,1 km/h (1 Bft) S-SW 196 0 min 0,000 mm 0,0 UV-I 0 W/m 14,9 C 19,9 C 6,4 km/h (2 Bft) 100,00 %
19.07.2017 02:06 20,1 C 24,4 C 73 % 1013,5 hPa 0,0 l/m 3,1 km/h (1 Bft) S-SW 196 0 min 0,000 mm 0,0 UV-I 0 W/m 15,1 C 20,1 C 4,8 km/h (1 Bft) 93,62 %
19.07.2017 02:08 20,2 C 24,4 C 72 % 1013,5 hPa 0,0 l/m 4,2 km/h (1 Bft) S-SW 204 0 min 0,000 mm 0,0 UV-I 0 W/m 15,0 C 20,2 C 6,4 km/h (2 Bft) 95,74 %
19.07.2017 02:10 20,3 C 24,4 C 72 % 1013,4 hPa 0,0 l/m 4,9 km/h (1 Bft) SW 220 0 min 0,000 mm 0,0 UV-I 0 W/m 15,1 C 20,3 C 8,0 km/h (2 Bft) 96,00 %
19.07.2017 02:12 20,3 C 24,4 C 72 % 1013,4 hPa 0,0 l/m 5,0 km/h (1 Bft) SW 220 0 min 0,000 mm 0,0 UV-I 0 W/m 15,1 C 20,3 C 8,0 km/h (2 Bft) 95,74 %
19.07.2017 02:14 20,3 C 24,4 C 72 % 1013,4 hPa 0,0 l/m 4,3 km/h (1 Bft) SW 220 0 min 0,000 mm 0,0 UV-I 0 W/m 15,1 C 20,3 C 4,8 km/h (1 Bft) 95,74 %
19.07.2017 02:16 20,3 C 24,4 C 72 % 1013,4 hPa 0,0 l/m 3,5 km/h (1 Bft) SW 220 0 min 0,000 mm 0,0 UV-I 0 W/m 15,1 C 20,3 C 4,8 km/h (1 Bft) 96,23 %
19.07.2017 02:18 20,2 C 24,4 C 72 % 1013,4 hPa 0,0 l/m 1,8 km/h (1 Bft) SW 220 0 min 0,000 mm 0,0 UV-I 0 W/m 15,0 C 20,2 C 4,8 km/h (1 Bft) 91,43 %
19.07.2017 02:20 20,1 C 24,4 C 73 % 1013,4 hPa 0,0 l/m 1,0 km/h (0 Bft) SW 220 0 min 0,000 mm 0,0 UV-I 0 W/m 15,1 C 20,1 C 3,2 km/h (1 Bft) 95,74 %
19.07.2017 02:22 19,9 C 24,4 C 72 % 1013,3 hPa 0,0 l/m 0,4 km/h (0 Bft) SW 220 0 min 0,000 mm 0,0 UV-I 0 W/m 14,7 C 19,9 C 1,6 km/h (1 Bft) 97,87 %
19.07.2017 02:24 19,9 C 24,4 C 72 % 1013,3 hPa 0,0 l/m 0,4 km/h (0 Bft) SW 220 0 min 0,000 mm 0,0 UV-I 0 W/m 14,7 C 19,9 C 1,6 km/h (1 Bft) 93,62 %
19.07.2017 02:26 19,9 C 24,4 C 71 % 1013,3 hPa 0,0 l/m 0,1 km/h (0 Bft) SW 220 0 min 0,000 mm 0,0 UV-I 0 W/m 14,5 C 19,9 C 1,6 km/h (1 Bft) 95,74 %
19.07.2017 02:28 20,0 C 24,4 C 70 % 1013,3 hPa 0,0 l/m 1,0 km/h (0 Bft) SW 220 0 min 0,000 mm 0,0 UV-I 0 W/m 14,4 C 20,0 C 4,8 km/h (1 Bft) 94,00 %
19.07.2017 02:30 20,1 C 24,4 C 70 % 1013,3 hPa 0,0 l/m 2,1 km/h (1 Bft) SW 220 0 min 0,000 mm 0,0 UV-I 0 W/m 14,5 C 20,1 C 3,2 km/h (1 Bft) 93,62 %
19.07.2017 02:32 20,1 C 24,4 C 70 % 1013,3 hPa 0,0 l/m 3,7 km/h (1 Bft) SW 220 0 min 0,000 mm 0,0 UV-I 0 W/m 14,5 C 20,1 C 6,4 km/h (2 Bft) 95,74 %
19.07.2017 02:34 20,1 C 24,4 C 70 % 1013,2 hPa 0,0 l/m 3,1 km/h (1 Bft) SW 220 0 min 0,000 mm 0,0 UV-I 0 W/m 14,5 C 20,1 C 4,8 km/h (1 Bft) 95,74 %
19.07.2017 02:36 20,1 C 24,4 C 69 % 1013,2 hPa 0,0 l/m 2,4 km/h (1 Bft) SW 220 0 min 0,000 mm 0,0 UV-I 0 W/m 14,2 C 20,1 C 4,8 km/h (1 Bft) 94,00 %
19.07.2017 02:38 20,2 C 24,4 C 69 % 1013,2 hPa 0,0 l/m 0,5 km/h (0 Bft) SW 220 0 min 0,000 mm 0,0 UV-I 0 W/m 14,3 C 20,2 C 1,6 km/h (1 Bft) 93,62 %
19.07.2017 02:40 20,2 C 24,4 C 68 % 1013,2 hPa 0,0 l/m 0,0 km/h (0 Bft) SW 220 0 min 0,000 mm 0,0 UV-I 0 W/m 14,1 C 20,2 C 0,0 km/h (0 Bft) 95,74 %
19.07.2017 02:42 20,2 C 24,4 C 68 % 1013,2 hPa 0,0 l/m 0,0 km/h (0 Bft) SW 220 0 min 0,000 mm 0,0 UV-I 0 W/m 14,1 C 20,2 C 0,0 km/h (0 Bft) 97,87 %
19.07.2017 02:44 20,2 C 24,4 C 68 % 1013,1 hPa 0,0 l/m 1,0 km/h (0 Bft) SW 220 0 min 0,000 mm 0,0 UV-I 0 W/m 14,1 C 20,2 C 3,2 km/h (1 Bft) 93,62 %
19.07.2017 02:46 20,2 C 24,4 C 68 % 1013,1 hPa 0,0 l/m 1,8 km/h (1 Bft) SW 220 0 min 0,000 mm 0,0 UV-I 0 W/m 14,1 C 20,2 C 3,2 km/h (1 Bft) 97,44 %
19.07.2017 02:48 20,2 C 24,4 C 68 % 1013,2 hPa 0,0 l/m 3,0 km/h (1 Bft) SW 220 0 min 0,000 mm 0,0 UV-I 0 W/m 14,1 C 20,2 C 4,8 km/h (1 Bft) 93,62 %
19.07.2017 02:50 20,2 C 24,4 C 68 % 1013,1 hPa 0,0 l/m 2,1 km/h (1 Bft) SW 220 0 min 0,000 mm 0,0 UV-I 0 W/m 14,1 C 20,2 C 3,2 km/h (1 Bft) 95,74 %
19.07.2017 02:52 20,2 C 24,4 C 67 % 1013,1 hPa 0,0 l/m 0,8 km/h (0 Bft) SW 220 0 min 0,000 mm 0,0 UV-I 0 W/m 13,9 C 20,2 C 1,6 km/h (1 Bft) 90,00 %
19.07.2017 02:54 20,2 C 24,4 C 68 % 1013,0 hPa 0,0 l/m 1,7 km/h (1 Bft) SW 220 0 min 0,000 mm 0,0 UV-I 0 W/m 14,1 C 20,2 C 3,2 km/h (1 Bft) 93,62 %
19.07.2017 02:56 20,1 C 24,4 C 68 % 1013,0 hPa 0,0 l/m 1,6 km/h (1 Bft) SW 220 0 min 0,000 mm 0,0 UV-I 0 W/m 14,0 C 20,1 C 3,2 km/h (1 Bft) 95,74 %
19.07.2017 02:58 20,1 C 24,4 C 68 % 1013,0 hPa 0,0 l/m 1,3 km/h (1 Bft) SW 219 0 min 0,000 mm 0,0 UV-I 0 W/m 14,0 C 20,1 C 3,2 km/h (1 Bft) 93,62 %
19.07.2017 03:00 20,0 C 24,4 C 68 % 1013,0 hPa 0,0 l/m 1,0 km/h (0 Bft) SW 219 0 min 0,025 mm 0,0 UV-I 0 W/m 13,9 C 20,0 C 1,6 km/h (1 Bft) 94,34 %
19.07.2017 03:02 19,8 C 24,4 C 69 % 1013,0 hPa 0,0 l/m 1,3 km/h (1 Bft) SW 219 0 min 0,000 mm 0,0 UV-I 0 W/m 13,9 C 19,8 C 3,2 km/h (1 Bft) 95,74 %
19.07.2017 03:04 19,7 C 24,4 C 69 % 1013,0 hPa 0,0 l/m 0,2 km/h (0 Bft) SW 219 0 min 0,000 mm 0,0 UV-I 0 W/m 13,8 C 19,7 C 1,6 km/h (1 Bft) 95,74 %
19.07.2017 03:06 19,7 C 24,4 C 69 % 1012,9 hPa 0,0 l/m 1,0 km/h (0 Bft) SW 219 0 min 0,000 mm 0,0 UV-I 0 W/m 13,8 C 19,7 C 3,2 km/h (1 Bft) 93,62 %
19.07.2017 03:08 19,6 C 24,4 C 69 % 1012,9 hPa 0,0 l/m 1,5 km/h (1 Bft) SW 219 0 min 0,000 mm 0,0 UV-I 0 W/m 13,8 C 19,6 C 3,2 km/h (1 Bft) 95,74 %
19.07.2017 03:10 19,6 C 24,4 C 69 % 1012,9 hPa 0,0 l/m 1,5 km/h (1 Bft) SW 219 0 min 0,000 mm 0,0 UV-I 0 W/m 13,8 C 19,6 C 3,2 km/h (1 Bft) 91,43 %
19.07.2017 03:12 19,6 C 24,4 C 70 % 1012,9 hPa 0,0 l/m 0,9 km/h (0 Bft) SW 219 0 min 0,000 mm 0,0 UV-I 0 W/m 14,0 C 19,6 C 3,2 km/h (1 Bft) 95,74 %
19.07.2017 03:14 19,6 C 24,4 C 69 % 1012,9 hPa 0,0 l/m 0,0 km/h (0 Bft) SW 219 0 min 0,000 mm 0,0 UV-I 0 W/m 13,8 C 19,6 C 1,6 km/h (1 Bft) 97,87 %
19.07.2017 03:16 19,7 C 24,4 C 70 % 1012,9 hPa 0,0 l/m 0,7 km/h (0 Bft) SW 219 0 min 0,000 mm 0,0 UV-I 0 W/m 14,1 C 19,7 C 3,2 km/h (1 Bft) 100,00 %
19.07.2017 03:18 19,6 C 24,4 C 71 % 1012,9 hPa 0,0 l/m 0,5 km/h (0 Bft) SW 219 0 min 0,000 mm 0,0 UV-I 0 W/m 14,2 C 19,6 C 1,6 km/h (1 Bft) 95,83 %
19.07.2017 03:20 19,5 C 24,4 C 72 % 1012,8 hPa 0,0 l/m 2,2 km/h (1 Bft) SW 219 0 min 0,000 mm 0,0 UV-I 0 W/m 14,3 C 19,5 C 3,2 km/h (1 Bft) 96,15 %
19.07.2017 03:22 19,3 C 24,4 C 73 % 1012,8 hPa 0,0 l/m 3,0 km/h (1 Bft) SW 219 0 min 0,000 mm 0,0 UV-I 0 W/m 14,3 C 19,3 C 4,8 km/h (1 Bft) 95,65 %
19.07.2017 03:24 19,1 C 24,4 C 74 % 1012,8 hPa 0,0 l/m 3,2 km/h (1 Bft) SW 219 0 min 0,000 mm 0,0 UV-I 0 W/m 14,4 C 19,1 C 4,8 km/h (1 Bft) 95,83 %
19.07.2017 03:26 18,9 C 24,4 C 76 % 1012,7 hPa 0,0 l/m 3,4 km/h (1 Bft) SW 219 0 min 0,000 mm 0,0 UV-I 0 W/m 14,6 C 18,9 C 4,8 km/h (1 Bft) 98,00 %
19.07.2017 03:28 18,7 C 24,4 C 76 % 1012,7 hPa 0,0 l/m 2,2 km/h (1 Bft) SW 219 0 min 0,000 mm 0,0 UV-I 0 W/m 14,4 C 18,7 C 3,2 km/h (1 Bft) 95,74 %
19.07.2017 03:30 18,7 C 24,4 C 76 % 1012,7 hPa 0,0 l/m 2,7 km/h (1 Bft) SW 219 0 min 0,000 mm 0,0 UV-I 0 W/m 14,4 C 18,7 C 3,2 km/h (1 Bft) 93,62 %
19.07.2017 03:32 18,6 C 24,4 C 77 % 1012,8 hPa 0,0 l/m 3,7 km/h (1 Bft) SW 219 0 min 0,000 mm 0,0 UV-I 0 W/m 14,5 C 18,6 C 4,8 km/h (1 Bft) 94,74 %
19.07.2017 03:34 18,5 C 24,4 C 77 % 1012,8 hPa 0,0 l/m 4,3 km/h (1 Bft) SW 219 0 min 0,000 mm 0,0 UV-I 0 W/m 14,4 C 18,5 C 4,8 km/h (1 Bft) 93,62 %
19.07.2017 03:36 18,4 C 24,4 C 78 % 1012,8 hPa 0,0 l/m 3,4 km/h (1 Bft) S 172 0 min 0,000 mm 0,0 UV-I 0 W/m 14,5 C 18,4 C 4,8 km/h (1 Bft) 93,62 %
19.07.2017 03:38 18,3 C 24,4 C 77 % 1012,8 hPa 0,0 l/m 3,5 km/h (1 Bft) S-SO 166 0 min 0,000 mm 0,0 UV-I 0 W/m 14,2 C 18,3 C 8,0 km/h (2 Bft) 97,87 %
19.07.2017 03:40 18,3 C 24,4 C 76 % 1012,8 hPa 0,0 l/m 5,0 km/h (1 Bft) S-SO 167 0 min 0,000 mm 0,0 UV-I 0 W/m 14,0 C 18,3 C 8,0 km/h (2 Bft) 92,00 %
19.07.2017 03:42 18,5 C 24,4 C 76 % 1012,8 hPa 0,0 l/m 4,2 km/h (1 Bft) S-SO 168 0 min 0,000 mm 0,0 UV-I 0 W/m 14,2 C 18,5 C 8,0 km/h (2 Bft) 95,74 %
19.07.2017 03:44 18,7 C 24,4 C 75 % 1012,8 hPa 0,0 l/m 4,3 km/h (1 Bft) S 172 0 min 0,000 mm 0,0 UV-I 0 W/m 14,2 C 18,7 C 8,0 km/h (2 Bft) 95,74 %
19.07.2017 03:46 18,9 C 24,4 C 74 % 1012,8 hPa 0,0 l/m 3,9 km/h (1 Bft) S 189 0 min 0,000 mm 0,0 UV-I 0 W/m 14,2 C 18,9 C 6,4 km/h (2 Bft) 93,62 %
19.07.2017 03:48 19,0 C 24,4 C 74 % 1012,7 hPa 0,0 l/m 2,4 km/h (1 Bft) S 189 0 min 0,000 mm 0,0 UV-I 0 W/m 14,3 C 19,0 C 4,8 km/h (1 Bft) 93,62 %
19.07.2017 03:50 19,1 C 24,4 C 74 % 1012,7 hPa 0,0 l/m 3,6 km/h (1 Bft) S 189 0 min 0,000 mm 0,0 UV-I 0 W/m 14,4 C 19,1 C 4,8 km/h (1 Bft) 95,74 %
19.07.2017 03:52 18,9 C 24,4 C 74 % 1012,7 hPa 0,0 l/m 3,3 km/h (1 Bft) S 189 0 min 0,000 mm 0,0 UV-I 0 W/m 14,2 C 18,9 C 4,8 km/h (1 Bft) 95,74 %
19.07.2017 03:54 18,8 C 24,4 C 75 % 1012,8 hPa 0,0 l/m 3,6 km/h (1 Bft) S-SW 194 0 min 0,000 mm 0,0 UV-I 0 W/m 14,3 C 18,8 C 4,8 km/h (1 Bft) 100,00 %
19.07.2017 03:56 18,7 C 24,4 C 77 % 1012,8 hPa 0,0 l/m 3,9 km/h (1 Bft) S-SW 194 0 min 0,000 mm 0,0 UV-I 0 W/m 14,6 C 18,7 C 6,4 km/h (2 Bft) 98,00 %
19.07.2017 03:58 18,5 C 24,4 C 77 % 1012,8 hPa 0,0 l/m 4,3 km/h (1 Bft) S-SW 194 0 min 0,000 mm 0,0 UV-I 0 W/m 14,4 C 18,5 C 6,4 km/h (2 Bft) 100,00 %
19.07.2017 04:00 18,3 C 24,4 C 78 % 1012,8 hPa 0,0 l/m 3,8 km/h (1 Bft) S-SW 194 0 min 0,026 mm 0,0 UV-I 0 W/m 14,4 C 18,3 C 6,4 km/h (2 Bft) 97,87 %
19.07.2017 04:02 18,2 C 24,4 C 78 % 1012,8 hPa 0,0 l/m 3,1 km/h (1 Bft) S-SW 194 0 min 0,000 mm 0,0 UV-I 0 W/m 14,3 C 18,2 C 4,8 km/h (1 Bft) 100,00 %
19.07.2017 04:04 18,1 C 24,4 C 79 % 1012,8 hPa 0,0 l/m 2,9 km/h (1 Bft) S-SW 194 0 min 0,000 mm 0,0 UV-I 0 W/m 14,4 C 18,1 C 4,8 km/h (1 Bft) 97,87 %
19.07.2017 04:06 18,1 C 24,4 C 79 % 1012,7 hPa 0,0 l/m 3,0 km/h (1 Bft) S-SW 194 0 min 0,000 mm 0,0 UV-I 0 W/m 14,4 C 18,1 C 4,8 km/h (1 Bft) 97,87 %
19.07.2017 04:08 18,2 C 24,4 C 78 % 1012,7 hPa 0,0 l/m 2,6 km/h (1 Bft) S-SW 194 0 min 0,000 mm 0,0 UV-I 0 W/m 14,3 C 18,2 C 4,8 km/h (1 Bft) 97,87 %
19.07.2017 04:10 18,2 C 24,4 C 78 % 1012,8 hPa 0,0 l/m 2,3 km/h (1 Bft) S-SW 194 0 min 0,000 mm 0,0 UV-I 0 W/m 14,3 C 18,2 C 4,8 km/h (1 Bft) 96,00 %
19.07.2017 04:12 18,3 C 24,4 C 77 % 1012,8 hPa 0,0 l/m 2,2 km/h (1 Bft) S-SW 194 0 min 0,000 mm 0,0 UV-I 0 W/m 14,2 C 18,3 C 6,4 km/h (2 Bft) 93,62 %
19.07.2017 04:14 18,3 C 24,4 C 77 % 1012,8 hPa 0,0 l/m 2,8 km/h (1 Bft) S-SW 194 0 min 0,000 mm 0,0 UV-I 0 W/m 14,2 C 18,3 C 4,8 km/h (1 Bft) 100,00 %
19.07.2017 04:16 18,3 C 24,4 C 77 % 1012,8 hPa 0,0 l/m 3,4 km/h (1 Bft) S-SW 194 0 min 0,000 mm 0,0 UV-I 0 W/m 14,2 C 18,3 C 4,8 km/h (1 Bft) 95,74 %
19.07.2017 04:18 18,4 C 24,4 C 77 % 1012,8 hPa 0,0 l/m 2,3 km/h (1 Bft) S-SW 194 0 min 0,000 mm 0,0 UV-I 0 W/m 14,3 C 18,4 C 4,8 km/h (1 Bft) 95,74 %
19.07.2017 04:20 18,4 C 24,4 C 77 % 1012,8 hPa 0,0 l/m 2,7 km/h (1 Bft) S-SW 194 0 min 0,000 mm 0,0 UV-I 0 W/m 14,3 C 18,4 C 4,8 km/h (1 Bft) 97,87 %
19.07.2017 04:22 18,3 C 24,4 C 77 % 1012,8 hPa 0,0 l/m 4,0 km/h (1 Bft) S-SW 194 0 min 0,000 mm 0,0 UV-I 0 W/m 14,2 C 18,3 C 4,8 km/h (1 Bft) 97,87 %
19.07.2017 04:24 18,3 C 24,4 C 77 % 1012,8 hPa 0,0 l/m 2,2 km/h (1 Bft) S-SW 194 0 min 0,000 mm 0,0 UV-I 0 W/m 14,2 C 18,3 C 4,8 km/h (1 Bft) 98,00 %
19.07.2017 04:26 18,2 C 24,4 C 78 % 1012,8 hPa 0,0 l/m 2,0 km/h (1 Bft) S-SW 194 0 min 0,000 mm 0,0 UV-I 0 W/m 14,3 C 18,2 C 4,8 km/h (1 Bft) 97,87 %
19.07.2017 04:28 18,2 C 24,4 C 78 % 1012,8 hPa 0,0 l/m 0,7 km/h (0 Bft) S-SW 194 0 min 0,000 mm 0,0 UV-I 0 W/m 14,3 C 18,2 C 1,6 km/h (1 Bft) 97,37 %
19.07.2017 04:30 18,1 C 24,4 C 78 % 1012,8 hPa 0,0 l/m 1,7 km/h (1 Bft) S-SW 194 0 min 0,000 mm 0,0 UV-I 0 W/m 14,2 C 18,1 C 3,2 km/h (1 Bft) 97,87 %
19.07.2017 04:32 18,0 C 24,4 C 78 % 1012,8 hPa 0,0 l/m 0,9 km/h (0 Bft) S-SW 194 0 min 0,000 mm 0,0 UV-I 0 W/m 14,1 C 18,0 C 1,6 km/h (1 Bft) 100,00 %
19.07.2017 04:34 17,9 C 24,4 C 77 % 1012,9 hPa 0,0 l/m 1,3 km/h (1 Bft) S-SW 194 0 min 0,000 mm 0,0 UV-I 0 W/m 13,8 C 17,9 C 3,2 km/h (1 Bft) 95,74 %
19.07.2017 04:36 18,1 C 24,4 C 77 % 1012,9 hPa 0,0 l/m 4,3 km/h (1 Bft) S-SO 159 0 min 0,000 mm 0,0 UV-I 0 W/m 14,0 C 18,1 C 8,0 km/h (2 Bft) 100,00 %
19.07.2017 04:38 17,9 C 24,4 C 77 % 1012,9 hPa 0,0 l/m 5,1 km/h (1 Bft) O-NO 60 0 min 0,000 mm 0,0 UV-I 0 W/m 13,8 C 17,9 C 6,4 km/h (2 Bft) 96,00 %
19.07.2017 04:40 17,9 C 24,4 C 77 % 1013,0 hPa 0,0 l/m 4,9 km/h (1 Bft) O-NO 60 0 min 0,000 mm 0,0 UV-I 0 W/m 13,8 C 17,9 C 6,4 km/h (2 Bft) 97,62 %
19.07.2017 04:42 17,9 C 24,4 C 78 % 1013,0 hPa 0,0 l/m 3,1 km/h (1 Bft) O-NO 60 0 min 0,000 mm 0,0 UV-I 0 W/m 14,0 C 17,9 C 4,8 km/h (1 Bft) 100,00 %
19.07.2017 04:44 17,9 C 24,4 C 78 % 1013,0 hPa 0,0 l/m 3,7 km/h (1 Bft) O-NO 60 0 min 0,000 mm 0,0 UV-I 0 W/m 14,0 C 17,9 C 4,8 km/h (1 Bft) 97,87 %
19.07.2017 04:46 17,9 C 24,4 C 78 % 1012,9 hPa 0,0 l/m 0,8 km/h (0 Bft) O-NO 60 0 min 0,000 mm 0,0 UV-I 0 W/m 14,0 C 17,9 C 1,6 km/h (1 Bft) 93,62 %
19.07.2017 04:48 17,9 C 24,4 C 78 % 1012,9 hPa 0,0 l/m 0,9 km/h (0 Bft) O-NO 60 0 min 0,000 mm 0,0 UV-I 0 W/m 14,0 C 17,9 C 3,2 km/h (1 Bft) 97,87 %
19.07.2017 04:50 17,9 C 24,4 C 78 % 1012,9 hPa 0,0 l/m 2,2 km/h (1 Bft) O-NO 60 0 min 0,000 mm 0,0 UV-I 0 W/m 14,0 C 17,9 C 4,8 km/h (1 Bft) 97,87 %
19.07.2017 04:52 17,9 C 23,9 C 78 % 1012,9 hPa 0,0 l/m 0,1 km/h (0 Bft) O-NO 60 0 min 0,000 mm 0,0 UV-I 0 W/m 14,0 C 17,9 C 1,6 km/h (1 Bft) 97,87 %
19.07.2017 04:54 17,9 C 23,9 C 78 % 1012,9 hPa 0,0 l/m 1,4 km/h (1 Bft) O-NO 60 0 min 0,000 mm 0,0 UV-I 0 W/m 14,0 C 17,9 C 3,2 km/h (1 Bft) 100,00 %
19.07.2017 04:56 17,8 C 23,9 C 78 % 1012,9 hPa 0,0 l/m 1,8 km/h (1 Bft) O-NO 60 0 min 0,000 mm 0,0 UV-I 0 W/m 13,9 C 17,8 C 3,2 km/h (1 Bft) 94,74 %
19.07.2017 04:58 17,8 C 24,4 C 78 % 1012,9 hPa 0,0 l/m 0,6 km/h (0 Bft) O-NO 60 0 min 0,000 mm 0,0 UV-I 0 W/m 13,9 C 17,8 C 1,6 km/h (1 Bft) 97,92 %
19.07.2017 05:00 17,7 C 24,4 C 78 % 1012,9 hPa 0,0 l/m 0,0 km/h (0 Bft) O-NO 60 0 min 0,025 mm 0,0 UV-I 0 W/m 13,8 C 17,7 C 0,0 km/h (0 Bft) 100,00 %
19.07.2017 05:02 17,7 C 23,9 C 79 % 1013,0 hPa 0,0 l/m 0,0 km/h (0 Bft) O-NO 60 0 min 0,000 mm 0,0 UV-I 0 W/m 14,0 C 17,7 C 0,0 km/h (0 Bft) 95,74 %
19.07.2017 05:04 17,7 C 23,9 C 79 % 1013,0 hPa 0,0 l/m 0,0 km/h (0 Bft) O-NO 60 0 min 0,000 mm 0,0 UV-I 0 W/m 14,0 C 17,7 C 0,0 km/h (0 Bft) 98,00 %
19.07.2017 05:06 17,6 C 23,9 C 79 % 1013,0 hPa 0,0 l/m 0,0 km/h (0 Bft) O-NO 60 0 min 0,000 mm 0,0 UV-I 0 W/m 13,9 C 17,6 C 1,6 km/h (1 Bft) 97,87 %
19.07.2017 05:08 17,5 C 23,9 C 79 % 1013,0 hPa 0,0 l/m 0,2 km/h (0 Bft) O-NO 60 0 min 0,000 mm 0,0 UV-I 0 W/m 13,8 C 17,5 C 1,6 km/h (1 Bft) 97,92 %
19.07.2017 05:10 17,4 C 23,9 C 79 % 1013,0 hPa 0,0 l/m 0,1 km/h (0 Bft) O-NO 60 0 min 0,000 mm 0,0 UV-I 3 W/m 13,7 C 17,4 C 1,6 km/h (1 Bft) 98,00 %
19.07.2017 05:12 17,3 C 23,9 C 80 % 1013,0 hPa 0,0 l/m 1,9 km/h (1 Bft) O-NO 60 0 min 0,000 mm 0,0 UV-I 5 W/m 13,8 C 17,3 C 3,2 km/h (1 Bft) 95,74 %
19.07.2017 05:14 17,2 C 23,9 C 80 % 1013,0 hPa 0,0 l/m 0,0 km/h (0 Bft) O-NO 60 0 min 0,000 mm 0,0 UV-I 5 W/m 13,7 C 17,2 C 0,0 km/h (0 Bft) 100,00 %
19.07.2017 05:16 17,2 C 23,9 C 80 % 1013,0 hPa 0,0 l/m 0,0 km/h (0 Bft) O-NO 60 0 min 0,000 mm 0,0 UV-I 5 W/m 13,7 C 17,2 C 0,0 km/h (0 Bft) 100,00 %
19.07.2017 05:18 17,2 C 23,9 C 80 % 1013,0 hPa 0,0 l/m 1,3 km/h (1 Bft) O-NO 60 0 min 0,000 mm 0,0 UV-I 5 W/m 13,7 C 17,2 C 3,2 km/h (1 Bft) 96,00 %
19.07.2017 05:20 17,1 C 23,9 C 80 % 1013,0 hPa 0,0 l/m 2,3 km/h (1 Bft) O-NO 60 0 min 0,000 mm 0,0 UV-I 7 W/m 13,6 C 17,1 C 3,2 km/h (1 Bft) 97,92 %
19.07.2017 05:22 17,1 C 23,9 C 80 % 1013,0 hPa 0,0 l/m 1,8 km/h (1 Bft) O-NO 60 0 min 0,000 mm 0,0 UV-I 7 W/m 13,6 C 17,1 C 3,2 km/h (1 Bft) 92,00 %
19.07.2017 05:24 17,1 C 23,9 C 81 % 1013,0 hPa 0,0 l/m 1,5 km/h (1 Bft) O-NO 60 0 min 0,000 mm 0,0 UV-I 7 W/m 13,8 C 17,1 C 3,2 km/h (1 Bft) 95,74 %
19.07.2017 05:26 17,1 C 23,9 C 81 % 1013,0 hPa 0,0 l/m 1,5 km/h (1 Bft) O-NO 60 0 min 0,000 mm 0,0 UV-I 9 W/m 13,8 C 17,1 C 1,6 km/h (1 Bft) 95,74 %
19.07.2017 05:28 17,1 C 23,9 C 80 % 1013,0 hPa 0,0 l/m 0,5 km/h (0 Bft) O-NO 60 0 min 0,000 mm 0,0 UV-I 9 W/m 13,6 C 17,1 C 1,6 km/h (1 Bft) 93,62 %
19.07.2017 05:30 17,2 C 23,9 C 81 % 1013,1 hPa 0,0 l/m 0,0 km/h (0 Bft) O-NO 60 0 min 0,000 mm 0,0 UV-I 10 W/m 13,9 C 17,2 C 0,0 km/h (0 Bft) 97,87 %
19.07.2017 05:32 17,2 C 23,9 C 81 % 1013,1 hPa 0,0 l/m 0,2 km/h (0 Bft) O-NO 60 0 min 0,000 mm 0,0 UV-I 11 W/m 13,9 C 17,2 C 1,6 km/h (1 Bft) 95,74 %
19.07.2017 05:34 17,1 C 23,9 C 81 % 1013,1 hPa 0,0 l/m 0,6 km/h (0 Bft) O-NO 60 0 min 0,000 mm 0,0 UV-I 12 W/m 13,8 C 17,1 C 3,2 km/h (1 Bft) 95,74 %
19.07.2017 05:36 17,1 C 23,9 C 82 % 1013,1 hPa 0,0 l/m 0,5 km/h (0 Bft) O-NO 60 2 min 0,000 mm 0,0 UV-I 12 W/m 14,0 C 17,1 C 1,6 km/h (1 Bft) 93,62 %
19.07.2017 05:38 17,1 C 23,9 C 82 % 1013,2 hPa 0,0 l/m 0,8 km/h (0 Bft) O-NO 60 2 min 0,000 mm 0,0 UV-I 12 W/m 14,0 C 17,1 C 1,6 km/h (1 Bft) 95,74 %
19.07.2017 05:40 17,0 C 23,9 C 82 % 1013,2 hPa 0,0 l/m 0,9 km/h (0 Bft) O-NO 60 2 min 0,000 mm 0,0 UV-I 15 W/m 13,9 C 17,0 C 3,2 km/h (1 Bft) 95,74 %
19.07.2017 05:42 16,9 C 23,9 C 82 % 1013,2 hPa 0,0 l/m 2,5 km/h (1 Bft) O-NO 60 2 min 0,000 mm 0,0 UV-I 18 W/m 13,8 C 16,9 C 3,2 km/h (1 Bft) 91,49 %
19.07.2017 05:44 16,8 C 23,9 C 82 % 1013,2 hPa 0,0 l/m 1,4 km/h (1 Bft) O-NO 60 2 min 0,000 mm 0,0 UV-I 20 W/m 13,7 C 16,8 C 3,2 km/h (1 Bft) 97,37 %
19.07.2017 05:46 16,8 C 23,9 C 82 % 1013,2 hPa 0,0 l/m 1,4 km/h (1 Bft) O-NO 61 2 min 0,000 mm 0,0 UV-I 25 W/m 13,7 C 16,8 C 3,2 km/h (1 Bft) 98,00 %
19.07.2017 05:48 16,8 C 23,9 C 83 % 1013,2 hPa 0,0 l/m 1,3 km/h (1 Bft) O-NO 69 2 min 0,000 mm 0,0 UV-I 28 W/m 13,9 C 16,8 C 3,2 km/h (1 Bft) 97,87 %
19.07.2017 05:50 16,8 C 23,9 C 82 % 1013,2 hPa 0,0 l/m 0,5 km/h (0 Bft) O-NO 69 2 min 0,000 mm 0,0 UV-I 29 W/m 13,7 C 16,8 C 1,6 km/h (1 Bft) 95,74 %
19.07.2017 05:52 16,9 C 23,9 C 82 % 1013,2 hPa 0,0 l/m 1,5 km/h (1 Bft) O-NO 69 2 min 0,000 mm 0,0 UV-I 34 W/m 13,8 C 16,9 C 3,2 km/h (1 Bft) 96,00 %
19.07.2017 05:54 17,0 C 23,9 C 82 % 1013,2 hPa 0,0 l/m 1,5 km/h (1 Bft) O-NO 69 2 min 0,000 mm 0,0 UV-I 39 W/m 13,9 C 17,0 C 3,2 km/h (1 Bft) 95,74 %
19.07.2017 05:56 17,1 C 23,9 C 81 % 1013,2 hPa 0,0 l/m 1,6 km/h (1 Bft) O-NO 69 2 min 0,000 mm 0,0 UV-I 37 W/m 13,8 C 17,1 C 3,2 km/h (1 Bft) 91,49 %
19.07.2017 05:58 17,1 C 23,9 C 81 % 1013,2 hPa 0,0 l/m 1,1 km/h (1 Bft) O-NO 70 2 min 0,000 mm 0,0 UV-I 48 W/m 13,8 C 17,1 C 3,2 km/h (1 Bft) 95,74 %
19.07.2017 06:00 17,2 C 23,9 C 81 % 1013,2 hPa 0,0 l/m 1,5 km/h (1 Bft) SO 136 2 min 0,025 mm 0,0 UV-I 54 W/m 13,9 C 17,2 C 4,8 km/h (1 Bft) 93,75 %
19.07.2017 06:02 17,2 C 23,9 C 81 % 1013,2 hPa 0,0 l/m 1,1 km/h (1 Bft) SO 136 2 min 0,000 mm 0,0 UV-I 55 W/m 13,9 C 17,2 C 3,2 km/h (1 Bft) 97,87 %
19.07.2017 06:04 17,3 C 23,9 C 80 % 1013,1 hPa 0,0 l/m 1,4 km/h (1 Bft) SO 136 0 min 0,000 mm 0,0 UV-I 47 W/m 13,8 C 17,3 C 3,2 km/h (1 Bft) 97,37 %
19.07.2017 06:06 17,3 C 23,9 C 81 % 1013,1 hPa 0,0 l/m 1,1 km/h (1 Bft) SO 136 2 min 0,000 mm 0,0 UV-I 57 W/m 14,0 C 17,3 C 3,2 km/h (1 Bft) 95,74 %
19.07.2017 06:08 17,4 C 23,9 C 80 % 1013,1 hPa 0,0 l/m 1,0 km/h (0 Bft) SO 136 2 min 0,000 mm 0,0 UV-I 79 W/m 13,9 C 17,4 C 3,2 km/h (1 Bft) 97,87 %
19.07.2017 06:10 17,5 C 23,9 C 79 % 1013,1 hPa 0,0 l/m 0,2 km/h (0 Bft) SO 136 2 min 0,000 mm 0,0 UV-I 98 W/m 13,8 C 17,5 C 1,6 km/h (1 Bft) 97,87 %
19.07.2017 06:12 17,7 C 23,9 C 78 % 1013,1 hPa 0,0 l/m 0,1 km/h (0 Bft) SO 136 2 min 0,000 mm 0,0 UV-I 116 W/m 13,8 C 17,7 C 1,6 km/h (1 Bft) 96,00 %
19.07.2017 06:14 17,9 C 23,9 C 78 % 1013,1 hPa 0,0 l/m 0,4 km/h (0 Bft) SO 136 2 min 0,000 mm 0,0 UV-I 119 W/m 14,0 C 17,9 C 1,6 km/h (1 Bft) 93,62 %
19.07.2017 06:16 18,2 C 23,9 C 77 % 1013,1 hPa 0,0 l/m 0,0 km/h (0 Bft) SO 136 2 min 0,000 mm 0,0 UV-I 97 W/m 14,1 C 18,2 C 1,6 km/h (1 Bft) 93,62 %
19.07.2017 06:18 18,3 C 23,9 C 77 % 1013,2 hPa 0,0 l/m 0,5 km/h (0 Bft) SO 136 2 min 0,000 mm 0,0 UV-I 83 W/m 14,2 C 18,3 C 3,2 km/h (1 Bft) 90,00 %
19.07.2017 06:20 18,4 C 23,9 C 76 % 1013,1 hPa 0,0 l/m 1,5 km/h (1 Bft) SO 136 2 min 0,000 mm 0,0 UV-I 85 W/m 14,1 C 18,4 C 3,2 km/h (1 Bft) 95,74 %
19.07.2017 06:22 18,6 C 23,9 C 75 % 1013,2 hPa 0,0 l/m 2,8 km/h (1 Bft) SO 143 2 min 0,000 mm 0,0 UV-I 88 W/m 14,1 C 18,6 C 4,8 km/h (1 Bft) 95,74 %
19.07.2017 06:24 18,7 C 23,9 C 76 % 1013,2 hPa 0,0 l/m 2,1 km/h (1 Bft) SO 143 2 min 0,000 mm 0,0 UV-I 86 W/m 14,4 C 18,7 C 3,2 km/h (1 Bft) 100,00 %
19.07.2017 06:26 18,7 C 23,9 C 75 % 1013,2 hPa 0,0 l/m 1,7 km/h (1 Bft) SO 143 2 min 0,000 mm 0,0 UV-I 88 W/m 14,2 C 18,7 C 4,8 km/h (1 Bft) 95,74 %
19.07.2017 06:28 18,7 C 23,9 C 77 % 1013,2 hPa 0,0 l/m 1,5 km/h (1 Bft) SO 143 2 min 0,000 mm 0,0 UV-I 90 W/m 14,6 C 18,7 C 3,2 km/h (1 Bft) 95,74 %
19.07.2017 06:30 18,6 C 23,9 C 77 % 1013,2 hPa 0,0 l/m 2,2 km/h (1 Bft) SO 143 2 min 0,000 mm 0,0 UV-I 120 W/m 14,5 C 18,6 C 4,8 km/h (1 Bft) 97,87 %
19.07.2017 06:32 18,6 C 23,9 C 76 % 1013,2 hPa 0,0 l/m 3,2 km/h (1 Bft) S 186 2 min 0,000 mm 0,0 UV-I 140 W/m 14,3 C 18,6 C 8,0 km/h (2 Bft) 95,74 %
19.07.2017 06:34 18,6 C 23,9 C 76 % 1013,2 hPa 0,0 l/m 3,4 km/h (1 Bft) S 188 2 min 0,000 mm 0,0 UV-I 96 W/m 14,3 C 18,6 C 4,8 km/h (1 Bft) 97,92 %
19.07.2017 06:36 18,6 C 23,9 C 76 % 1013,2 hPa 0,0 l/m 4,0 km/h (1 Bft) S-SW 193 0 min 0,000 mm 0,0 UV-I 89 W/m 14,3 C 18,6 C 6,4 km/h (2 Bft) 95,74 %
19.07.2017 06:38 18,6 C 23,9 C 76 % 1013,2 hPa 0,0 l/m 3,4 km/h (1 Bft) S 191 0 min 0,000 mm 0,0 UV-I 90 W/m 14,3 C 18,6 C 4,8 km/h (1 Bft) 96,00 %
19.07.2017 06:40 18,7 C 23,9 C 76 % 1013,1 hPa 0,0 l/m 3,0 km/h (1 Bft) S 191 0 min 0,000 mm 0,0 UV-I 90 W/m 14,4 C 18,7 C 4,8 km/h (1 Bft) 91,49 %
19.07.2017 06:42 18,7 C 23,9 C 76 % 1013,2 hPa 0,0 l/m 1,7 km/h (1 Bft) S 191 0 min 0,000 mm 0,0 UV-I 91 W/m 14,4 C 18,7 C 3,2 km/h (1 Bft) 97,87 %
19.07.2017 06:44 18,8 C 23,9 C 76 % 1013,2 hPa 0,0 l/m 1,9 km/h (1 Bft) S 191 0 min 0,000 mm 0,0 UV-I 91 W/m 14,5 C 18,8 C 4,8 km/h (1 Bft) 93,62 %
19.07.2017 06:46 18,9 C 23,9 C 74 % 1013,2 hPa 0,0 l/m 4,1 km/h (1 Bft) S-SW 192 0 min 0,000 mm 0,0 UV-I 93 W/m 14,2 C 18,9 C 4,8 km/h (1 Bft) 86,00 %
19.07.2017 06:48 19,0 C 23,9 C 75 % 1013,2 hPa 0,0 l/m 3,4 km/h (1 Bft) S-SW 192 2 min 0,000 mm 0,0 UV-I 130 W/m 14,5 C 19,0 C 6,4 km/h (2 Bft) 91,49 %
19.07.2017 06:50 19,1 C 23,9 C 74 % 1013,2 hPa 0,0 l/m 4,1 km/h (1 Bft) S-SW 192 2 min 0,000 mm 0,0 UV-I 146 W/m 14,4 C 19,1 C 6,4 km/h (2 Bft) 94,74 %
19.07.2017 06:52 19,2 C 23,9 C 75 % 1013,3 hPa 0,0 l/m 3,7 km/h (1 Bft) S-SW 192 2 min 0,000 mm 0,0 UV-I 196 W/m 14,7 C 19,2 C 6,4 km/h (2 Bft) 94,00 %
19.07.2017 06:54 19,3 C 23,9 C 73 % 1013,3 hPa 0,0 l/m 4,5 km/h (1 Bft) S-SW 192 2 min 0,000 mm 0,0 UV-I 133 W/m 14,3 C 19,3 C 6,4 km/h (2 Bft) 95,74 %
19.07.2017 06:56 19,3 C 23,9 C 73 % 1013,3 hPa 0,0 l/m 4,5 km/h (1 Bft) S-SW 192 0 min 0,000 mm 0,0 UV-I 122 W/m 14,3 C 19,3 C 6,4 km/h (2 Bft) 98,00 %
19.07.2017 06:58 19,4 C 23,9 C 74 % 1013,3 hPa 0,0 l/m 5,4 km/h (1 Bft) S-SW 198 0 min 0,000 mm 0,0 UV-I 88 W/m 14,6 C 19,4 C 8,0 km/h (2 Bft) 93,62 %
19.07.2017 07:00 19,4 C 23,9 C 74 % 1013,3 hPa 0,0 l/m 3,5 km/h (1 Bft) S-SW 198 0 min 0,077 mm 0,0 UV-I 77 W/m 14,6 C 19,4 C 6,4 km/h (2 Bft) 100,00 %
19.07.2017 07:02 19,5 C 23,9 C 74 % 1013,2 hPa 0,0 l/m 4,9 km/h (1 Bft) S-SW 199 0 min 0,000 mm 0,0 UV-I 77 W/m 14,7 C 19,5 C 6,4 km/h (2 Bft) 100,00 %
19.07.2017 07:04 19,5 C 23,9 C 74 % 1013,3 hPa 0,0 l/m 3,4 km/h (1 Bft) S-SW 199 0 min 0,000 mm 0,0 UV-I 78 W/m 14,7 C 19,5 C 4,8 km/h (1 Bft) 98,00 %
19.07.2017 07:06 19,6 C 23,9 C 74 % 1013,3 hPa 0,0 l/m 2,3 km/h (1 Bft) S-SW 199 0 min 0,000 mm 0,0 UV-I 82 W/m 14,8 C 19,6 C 4,8 km/h (1 Bft) 100,00 %
19.07.2017 07:08 19,6 C 23,9 C 74 % 1013,3 hPa 0,0 l/m 3,2 km/h (1 Bft) S-SW 199 0 min 0,000 mm 0,0 UV-I 87 W/m 14,8 C 19,6 C 4,8 km/h (1 Bft) 97,37 %
19.07.2017 07:10 19,6 C 23,9 C 74 % 1013,3 hPa 0,0 l/m 4,4 km/h (1 Bft) S-SW 205 0 min 0,000 mm 0,0 UV-I 92 W/m 14,8 C 19,6 C 6,4 km/h (2 Bft) 100,00 %
19.07.2017 07:12 19,5 C 23,9 C 74 % 1013,3 hPa 0,0 l/m 4,3 km/h (1 Bft) SW 236 0 min 0,000 mm 0,0 UV-I 98 W/m 14,7 C 19,5 C 6,4 km/h (2 Bft) 97,87 %
19.07.2017 07:14 19,5 C 23,9 C 75 % 1013,3 hPa 0,0 l/m 4,2 km/h (1 Bft) SW 236 0 min 0,000 mm 0,0 UV-I 104 W/m 14,9 C 19,5 C 4,8 km/h (1 Bft) 97,92 %
19.07.2017 07:16 19,5 C 23,9 C 75 % 1013,3 hPa 0,0 l/m 4,1 km/h (1 Bft) SW 236 0 min 0,000 mm 0,0 UV-I 108 W/m 14,9 C 19,5 C 4,8 km/h (1 Bft) 100,00 %
19.07.2017 07:18 19,5 C 23,9 C 75 % 1013,3 hPa 0,0 l/m 3,5 km/h (1 Bft) SW 236 0 min 0,000 mm 0,0 UV-I 109 W/m 14,9 C 19,5 C 4,8 km/h (1 Bft) 93,62 %
19.07.2017 07:20 19,5 C 23,9 C 75 % 1013,3 hPa 0,0 l/m 4,6 km/h (1 Bft) SW 236 0 min 0,000 mm 0,0 UV-I 108 W/m 14,9 C 19,5 C 6,4 km/h (2 Bft) 95,74 %
19.07.2017 07:22 19,5 C 23,9 C 75 % 1013,3 hPa 0,0 l/m 4,0 km/h (1 Bft) SW 236 0 min 0,000 mm 0,0 UV-I 106 W/m 14,9 C 19,5 C 6,4 km/h (2 Bft) 91,49 %
19.07.2017 07:24 19,4 C 23,9 C 74 % 1013,3 hPa 0,0 l/m 4,8 km/h (1 Bft) SW 227 0 min 0,000 mm 0,0 UV-I 105 W/m 14,6 C 19,4 C 6,4 km/h (2 Bft) 93,62 %
19.07.2017 07:26 19,4 C 23,9 C 74 % 1013,3 hPa 0,0 l/m 5,7 km/h (1 Bft) SW 231 0 min 0,000 mm 0,0 UV-I 120 W/m 14,6 C 19,4 C 8,0 km/h (2 Bft) 91,49 %
19.07.2017 07:28 19,5 C 23,9 C 74 % 1013,2 hPa 0,0 l/m 4,3 km/h (1 Bft) W-SW 238 0 min 0,000 mm 0,0 UV-I 144 W/m 14,7 C 19,5 C 6,4 km/h (2 Bft) 92,00 %
19.07.2017 07:30 19,6 C 23,9 C 74 % 1013,2 hPa 0,0 l/m 0,8 km/h (0 Bft) W-SW 238 0 min 0,000 mm 0,0 UV-I 135 W/m 14,8 C 19,6 C 3,2 km/h (1 Bft) 97,37 %
19.07.2017 07:32 19,6 C 23,9 C 74 % 1013,2 hPa 0,0 l/m 2,0 km/h (1 Bft) W-SW 238 0 min 0,000 mm 0,0 UV-I 103 W/m 14,8 C 19,6 C 3,2 km/h (1 Bft) 98,04 %
19.07.2017 07:34 19,6 C 23,9 C 74 % 1013,2 hPa 0,0 l/m 3,3 km/h (1 Bft) W-SW 239 0 min 0,000 mm 0,0 UV-I 98 W/m 14,8 C 19,6 C 4,8 km/h (1 Bft) 98,00 %
19.07.2017 07:36 19,6 C 23,9 C 74 % 1013,2 hPa 0,0 l/m 5,0 km/h (1 Bft) W-SW 239 0 min 0,000 mm 0,0 UV-I 97 W/m 14,8 C 19,6 C 6,4 km/h (2 Bft) 95,74 %
19.07.2017 07:38 19,5 C 23,9 C 74 % 1013,2 hPa 0,0 l/m 2,8 km/h (1 Bft) W-SW 239 0 min 0,000 mm 0,0 UV-I 96 W/m 14,7 C 19,5 C 4,8 km/h (1 Bft) 95,74 %
19.07.2017 07:40 19,5 C 23,9 C 74 % 1013,1 hPa 0,0 l/m 2,7 km/h (1 Bft) W-SW 238 0 min 0,000 mm 0,0 UV-I 93 W/m 14,7 C 19,5 C 4,8 km/h (1 Bft) 97,87 %
19.07.2017 07:42 19,5 C 23,9 C 74 % 1013,1 hPa 0,0 l/m 0,6 km/h (0 Bft) W-SW 238 0 min 0,000 mm 0,0 UV-I 91 W/m 14,7 C 19,5 C 3,2 km/h (1 Bft) 90,00 %
19.07.2017 07:44 19,5 C 23,9 C 73 % 1013,2 hPa 0,0 l/m 0,0 km/h (0 Bft) W-SW 238 0 min 0,000 mm 0,0 UV-I 90 W/m 14,5 C 19,5 C 0,0 km/h (0 Bft) 100,00 %
19.07.2017 07:46 19,5 C 23,9 C 74 % 1013,2 hPa 0,0 l/m 0,1 km/h (0 Bft) W-SW 238 0 min 0,000 mm 0,0 UV-I 89 W/m 14,7 C 19,5 C 1,6 km/h (1 Bft) 91,49 %
19.07.2017 07:48 19,5 C 23,9 C 74 % 1013,2 hPa 0,0 l/m 0,1 km/h (0 Bft) W-SW 238 0 min 0,000 mm 0,0 UV-I 88 W/m 14,7 C 19,5 C 1,6 km/h (1 Bft) 93,62 %
19.07.2017 07:50 19,6 C 23,9 C 74 % 1013,3 hPa 0,0 l/m 1,7 km/h (1 Bft) W-SW 238 0 min 0,000 mm 0,0 UV-I 86 W/m 14,8 C 19,6 C 3,2 km/h (1 Bft) 97,37 %
19.07.2017 07:52 19,6 C 23,9 C 73 % 1013,3 hPa 0,0 l/m 1,1 km/h (1 Bft) W-SW 238 0 min 0,000 mm 0,0 UV-I 85 W/m 14,6 C 19,6 C 3,2 km/h (1 Bft) 95,83 %
19.07.2017 07:54 19,6 C 23,9 C 74 % 1013,3 hPa 0,0 l/m 0,3 km/h (0 Bft) W-SW 238 0 min 0,000 mm 0,0 UV-I 84 W/m 14,8 C 19,6 C 1,6 km/h (1 Bft) 100,00 %
19.07.2017 07:56 19,7 C 23,9 C 73 % 1013,3 hPa 0,0 l/m 0,0 km/h (0 Bft) W-SW 238 0 min 0,000 mm 0,0 UV-I 82 W/m 14,7 C 19,7 C 0,0 km/h (0 Bft) 96,00 %
19.07.2017 07:58 19,7 C 23,9 C 73 % 1013,4 hPa 0,0 l/m 0,5 km/h (0 Bft) W-SW 238 0 min 0,000 mm 0,0 UV-I 81 W/m 14,7 C 19,7 C 3,2 km/h (1 Bft) 93,62 %
19.07.2017 08:00 19,7 C 23,9 C 73 % 1013,4 hPa 0,0 l/m 0,4 km/h (0 Bft) W-SW 238 0 min 0,076 mm 0,0 UV-I 81 W/m 14,7 C 19,7 C 1,6 km/h (1 Bft) 95,74 %
19.07.2017 08:02 19,7 C 23,9 C 73 % 1013,5 hPa 0,0 l/m 0,5 km/h (0 Bft) W-SW 238 0 min 0,000 mm 0,0 UV-I 81 W/m 14,7 C 19,7 C 3,2 km/h (1 Bft) 94,29 %
19.07.2017 08:04 19,8 C 23,9 C 74 % 1013,5 hPa 0,0 l/m 1,6 km/h (1 Bft) W-SW 239 0 min 0,000 mm 0,0 UV-I 82 W/m 15,0 C 19,8 C 3,2 km/h (1 Bft) 98,39 %
19.07.2017 08:06 19,8 C 23,9 C 73 % 1013,5 hPa 0,0 l/m 1,1 km/h (1 Bft) W-SW 239 0 min 0,000 mm 0,0 UV-I 84 W/m 14,8 C 19,8 C 3,2 km/h (1 Bft) 97,87 %
19.07.2017 08:08 19,7 C 23,9 C 76 % 1013,6 hPa 0,0 l/m 2,7 km/h (1 Bft) W-SW 239 0 min 0,000 mm 0,0 UV-I 86 W/m 15,3 C 19,7 C 4,8 km/h (1 Bft) 95,74 %
19.07.2017 08:10 19,6 C 23,9 C 75 % 1013,6 hPa 0,0 l/m 2,5 km/h (1 Bft) W-SW 239 0 min 0,000 mm 0,0 UV-I 88 W/m 15,0 C 19,6 C 4,8 km/h (1 Bft) 100,00 %
19.07.2017 08:12 19,6 C 23,9 C 77 % 1013,6 hPa 0,0 l/m 0,9 km/h (0 Bft) W-SW 239 0 min 0,000 mm 0,0 UV-I 90 W/m 15,5 C 19,6 C 3,2 km/h (1 Bft) 97,87 %
19.07.2017 08:14 19,6 C 23,9 C 75 % 1013,6 hPa 0,0 l/m 0,0 km/h (0 Bft) W-SW 239 0 min 0,000 mm 0,0 UV-I 93 W/m 15,0 C 19,6 C 0,0 km/h (0 Bft) 95,74 %
19.07.2017 08:16 19,6 C 23,9 C 76 % 1013,6 hPa 0,0 l/m 0,4 km/h (0 Bft) W-SW 239 0 min 0,000 mm 0,0 UV-I 96 W/m 15,2 C 19,6 C 1,6 km/h (1 Bft) 100,00 %
19.07.2017 08:18 19,6 C 23,9 C 76 % 1013,6 hPa 0,0 l/m 0,0 km/h (0 Bft) W-SW 239 0 min 0,000 mm 0,0 UV-I 98 W/m 15,2 C 19,6 C 0,0 km/h (0 Bft) 97,87 %
19.07.2017 08:20 19,6 C 23,9 C 75 % 1013,6 hPa 0,0 l/m 0,1 km/h (0 Bft) W-SW 239 0 min 0,000 mm 0,0 UV-I 102 W/m 15,0 C 19,6 C 1,6 km/h (1 Bft) 97,87 %
19.07.2017 08:22 19,6 C 23,9 C 76 % 1013,7 hPa 0,0 l/m 0,0 km/h (0 Bft) W-SW 239 0 min 0,000 mm 0,2 UV-I 105 W/m 15,2 C 19,6 C 0,0 km/h (0 Bft) 97,87 %
19.07.2017 08:24 19,6 C 23,9 C 76 % 1013,6 hPa 0,0 l/m 0,3 km/h (0 Bft) W-SW 239 0 min 0,000 mm 0,5 UV-I 110 W/m 15,2 C 19,6 C 1,6 km/h (1 Bft) 97,87 %
19.07.2017 08:26 19,6 C 23,9 C 75 % 1013,7 hPa 0,0 l/m 0,4 km/h (0 Bft) W-SW 239 0 min 0,000 mm 0,5 UV-I 127 W/m 15,0 C 19,6 C 1,6 km/h (1 Bft) 97,87 %
19.07.2017 08:28 19,7 C 23,9 C 76 % 1013,7 hPa 0,0 l/m 0,1 km/h (0 Bft) W-SW 239 0 min 0,000 mm 0,5 UV-I 124 W/m 15,3 C 19,7 C 1,6 km/h (1 Bft) 95,74 %
19.07.2017 08:30 19,7 C 23,9 C 75 % 1013,7 hPa 0,0 l/m 0,3 km/h (0 Bft) W-SW 239 0 min 0,000 mm 0,5 UV-I 122 W/m 15,1 C 19,7 C 3,2 km/h (1 Bft) 100,00 %
19.07.2017 08:32 19,7 C 23,9 C 75 % 1013,7 hPa 0,0 l/m 1,5 km/h (1 Bft) W-SW 239 0 min 0,000 mm 0,6 UV-I 123 W/m 15,1 C 19,7 C 3,2 km/h (1 Bft) 97,92 %
19.07.2017 08:34 19,8 C 23,9 C 73 % 1013,7 hPa 0,0 l/m 0,1 km/h (0 Bft) W-SW 239 0 min 0,000 mm 0,6 UV-I 135 W/m 14,8 C 19,8 C 1,6 km/h (1 Bft) 95,74 %
19.07.2017 08:36 19,9 C 23,9 C 73 % 1013,7 hPa 0,0 l/m 0,0 km/h (0 Bft) W-SW 239 0 min 0,000 mm 0,6 UV-I 143 W/m 14,9 C 19,9 C 0,0 km/h (0 Bft) 100,00 %
19.07.2017 08:38 19,9 C 23,9 C 72 % 1013,7 hPa 0,0 l/m 0,1 km/h (0 Bft) W-SW 239 0 min 0,000 mm 0,6 UV-I 128 W/m 14,7 C 19,9 C 1,6 km/h (1 Bft) 97,87 %
19.07.2017 08:40 19,9 C 23,9 C 73 % 1013,8 hPa 0,0 l/m 0,0 km/h (0 Bft) W-SW 239 0 min 0,000 mm 0,6 UV-I 126 W/m 14,9 C 19,9 C 0,0 km/h (0 Bft) 97,87 %
19.07.2017 08:42 20,0 C 23,9 C 73 % 1013,7 hPa 0,0 l/m 0,0 km/h (0 Bft) W-SW 239 0 min 0,000 mm 0,7 UV-I 127 W/m 15,0 C 20,0 C 0,0 km/h (0 Bft) 95,74 %
19.07.2017 08:44 20,0 C 23,9 C 73 % 1013,7 hPa 0,0 l/m 0,3 km/h (0 Bft) W-SW 239 0 min 0,000 mm 0,7 UV-I 133 W/m 15,0 C 20,0 C 3,2 km/h (1 Bft) 97,87 %
19.07.2017 08:46 20,0 C 23,9 C 73 % 1013,8 hPa 0,0 l/m 0,4 km/h (0 Bft) W-SW 239 0 min 0,000 mm 0,8 UV-I 143 W/m 15,0 C 20,0 C 3,2 km/h (1 Bft) 100,00 %
19.07.2017 08:48 20,1 C 23,9 C 73 % 1013,9 hPa 0,0 l/m 0,4 km/h (0 Bft) W-SW 239 0 min 0,000 mm 0,8 UV-I 153 W/m 15,1 C 20,1 C 1,6 km/h (1 Bft) 95,74 %
19.07.2017 08:50 20,1 C 23,9 C 74 % 1013,9 hPa 0,0 l/m 0,1 km/h (0 Bft) W-SW 239 0 min 0,000 mm 0,9 UV-I 163 W/m 15,3 C 20,1 C 1,6 km/h (1 Bft) 97,87 %
19.07.2017 08:52 20,2 C 23,9 C 74 % 1013,9 hPa 0,0 l/m 0,1 km/h (0 Bft) W-SW 239 0 min 0,000 mm 0,9 UV-I 171 W/m 15,4 C 20,2 C 1,6 km/h (1 Bft) 97,87 %
19.07.2017 08:54 20,2 C 23,9 C 73 % 1013,9 hPa 0,0 l/m 0,3 km/h (0 Bft) W-SW 239 0 min 0,000 mm 0,9 UV-I 178 W/m 15,2 C 20,2 C 1,6 km/h (1 Bft) 97,87 %
19.07.2017 08:56 20,3 C 23,9 C 73 % 1013,9 hPa 0,0 l/m 1,2 km/h (1 Bft) W-SW 239 0 min 0,000 mm 1,0 UV-I 188 W/m 15,3 C 20,3 C 3,2 km/h (1 Bft) 100,00 %
19.07.2017 08:58 20,3 C 23,9 C 72 % 1013,9 hPa 0,0 l/m 0,4 km/h (0 Bft) W-SW 240 0 min 0,000 mm 1,1 UV-I 196 W/m 15,1 C 20,3 C 1,6 km/h (1 Bft) 97,87 %
19.07.2017 09:00 20,4 C 23,9 C 70 % 1013,9 hPa 0,0 l/m 0,1 km/h (0 Bft) W-SW 240 0 min 0,076 mm 1,1 UV-I 204 W/m 14,7 C 20,4 C 1,6 km/h (1 Bft) 98,00 %
19.07.2017 09:02 20,4 C 23,9 C 70 % 1013,8 hPa 0,0 l/m 0,1 km/h (0 Bft) W-SW 240 0 min 0,000 mm 1,2 UV-I 214 W/m 14,7 C 20,4 C 1,6 km/h (1 Bft) 100,00 %
19.07.2017 09:04 20,5 C 23,9 C 70 % 1013,8 hPa 0,0 l/m 0,0 km/h (0 Bft) W-SW 240 0 min 0,000 mm 1,2 UV-I 226 W/m 14,8 C 20,5 C 0,0 km/h (0 Bft) 100,00 %
19.07.2017 09:06 20,6 C 23,9 C 71 % 1013,8 hPa 0,0 l/m 0,0 km/h (0 Bft) W-SW 240 0 min 0,000 mm 1,3 UV-I 235 W/m 15,2 C 20,6 C 0,0 km/h (0 Bft) 100,00 %
19.07.2017 09:08 20,6 C 23,9 C 70 % 1013,8 hPa 0,0 l/m 0,0 km/h (0 Bft) W-SW 240 0 min 0,000 mm 1,3 UV-I 237 W/m 14,9 C 20,6 C 0,0 km/h (0 Bft) 100,00 %
19.07.2017 09:10 20,7 C 23,9 C 70 % 1013,7 hPa 0,0 l/m 0,0 km/h (0 Bft) W-SW 240 0 min 0,000 mm 1,3 UV-I 233 W/m 15,0 C 20,7 C 0,0 km/h (0 Bft) 97,92 %
19.07.2017 09:12 20,8 C 23,9 C 71 % 1013,7 hPa 0,0 l/m 0,0 km/h (0 Bft) W-SW 240 0 min 0,000 mm 1,4 UV-I 230 W/m 15,3 C 20,8 C 0,0 km/h (0 Bft) 100,00 %
19.07.2017 09:14 20,9 C 23,9 C 70 % 1013,7 hPa 0,0 l/m 0,0 km/h (0 Bft) W-SW 240 0 min 0,000 mm 1,4 UV-I 231 W/m 15,2 C 20,9 C 0,0 km/h (0 Bft) 97,87 %
19.07.2017 09:16 21,1 C 23,9 C 68 % 1013,8 hPa 0,0 l/m 0,9 km/h (0 Bft) W-SW 240 0 min 0,000 mm 1,5 UV-I 238 W/m 15,0 C 21,1 C 3,2 km/h (1 Bft) 97,87 %
19.07.2017 09:18 21,1 C 23,9 C 68 % 1013,8 hPa 0,0 l/m 0,0 km/h (0 Bft) W-SW 240 0 min 0,000 mm 1,5 UV-I 243 W/m 15,0 C 21,1 C 0,0 km/h (0 Bft) 95,74 %
19.07.2017 09:20 21,1 C 23,9 C 68 % 1013,8 hPa 0,0 l/m 0,0 km/h (0 Bft) W-SW 240 0 min 0,000 mm 1,6 UV-I 255 W/m 15,0 C 21,1 C 1,6 km/h (1 Bft) 97,87 %
19.07.2017 09:22 21,1 C 23,9 C 67 % 1013,7 hPa 0,0 l/m 0,7 km/h (0 Bft) W-SW 240 0 min 0,000 mm 1,7 UV-I 279 W/m 14,7 C 21,1 C 1,6 km/h (1 Bft) 95,83 %
19.07.2017 09:24 21,1 C 23,9 C 68 % 1013,7 hPa 0,0 l/m 0,3 km/h (0 Bft) W-SW 240 0 min 0,000 mm 1,8 UV-I 328 W/m 15,0 C 21,1 C 1,6 km/h (1 Bft) 95,74 %
19.07.2017 09:26 21,2 C 23,9 C 68 % 1013,8 hPa 0,0 l/m 0,0 km/h (0 Bft) W-SW 240 0 min 0,000 mm 1,8 UV-I 318 W/m 15,1 C 21,2 C 0,0 km/h (0 Bft) 93,62 %
19.07.2017 09:28 21,3 C 23,9 C 67 % 1013,7 hPa 0,0 l/m 0,0 km/h (0 Bft) W-SW 240 0 min 0,000 mm 1,8 UV-I 310 W/m 14,9 C 21,3 C 0,0 km/h (0 Bft) 97,87 %
19.07.2017 09:30 21,4 C 23,9 C 67 % 1013,8 hPa 0,0 l/m 0,0 km/h (0 Bft) W-SW 240 0 min 0,000 mm 1,9 UV-I 310 W/m 15,0 C 21,4 C 0,0 km/h (0 Bft) 95,74 %
19.07.2017 09:32 21,5 C 23,9 C 66 % 1013,7 hPa 0,0 l/m 1,0 km/h (0 Bft) W-SW 240 0 min 0,000 mm 1,9 UV-I 311 W/m 14,9 C 21,5 C 4,8 km/h (1 Bft) 93,62 %
19.07.2017 09:34 21,6 C 23,9 C 66 % 1013,8 hPa 0,0 l/m 1,2 km/h (1 Bft) W-SW 240 0 min 0,000 mm 2,1 UV-I 342 W/m 15,0 C 21,6 C 3,2 km/h (1 Bft) 95,74 %
19.07.2017 09:36 21,7 C 23,9 C 66 % 1013,8 hPa 0,0 l/m 0,4 km/h (0 Bft) W-SW 240 2 min 0,000 mm 2,2 UV-I 355 W/m 15,1 C 21,7 C 3,2 km/h (1 Bft) 93,62 %
19.07.2017 09:38 21,8 C 24,4 C 64 % 1013,8 hPa 0,0 l/m 1,4 km/h (1 Bft) W-SW 240 2 min 0,000 mm 2,5 UV-I 406 W/m 14,7 C 21,8 C 4,8 km/h (1 Bft) 97,87 %
19.07.2017 09:40 22,2 C 24,4 C 66 % 1013,8 hPa 0,0 l/m 3,7 km/h (1 Bft) W-SW 240 2 min 0,000 mm 2,8 UV-I 696 W/m 15,5 C 22,2 C 6,4 km/h (2 Bft) 93,62 %
19.07.2017 09:42 22,3 C 23,9 C 65 % 1013,8 hPa 0,0 l/m 3,0 km/h (1 Bft) S-SW 205 2 min 0,000 mm 2,7 UV-I 607 W/m 15,4 C 22,3 C 4,8 km/h (1 Bft) 91,49 %
19.07.2017 09:44 22,4 C 23,9 C 64 % 1013,8 hPa 0,0 l/m 3,5 km/h (1 Bft) S-SW 202 2 min 0,000 mm 2,5 UV-I 507 W/m 15,2 C 22,4 C 6,4 km/h (2 Bft) 88,00 %
19.07.2017 09:46 22,5 C 23,9 C 62 % 1013,7 hPa 0,0 l/m 4,5 km/h (1 Bft) S-SW 205 2 min 0,000 mm 2,6 UV-I 517 W/m 14,8 C 22,5 C 8,0 km/h (2 Bft) 91,43 %
19.07.2017 09:48 22,6 C 23,9 C 63 % 1013,8 hPa 0,0 l/m 2,7 km/h (1 Bft) S-SW 194 2 min 0,000 mm 2,9 UV-I 580 W/m 15,2 C 22,6 C 4,8 km/h (1 Bft) 96,00 %
19.07.2017 09:50 22,7 C 23,9 C 63 % 1013,7 hPa 0,0 l/m 3,2 km/h (1 Bft) S 188 2 min 0,000 mm 2,7 UV-I 531 W/m 15,3 C 22,7 C 8,0 km/h (2 Bft) 95,83 %
19.07.2017 09:52 22,7 C 24,4 C 64 % 1013,7 hPa 0,0 l/m 2,4 km/h (1 Bft) S-SW 209 2 min 0,000 mm 3,0 UV-I 601 W/m 15,5 C 22,7 C 6,4 km/h (2 Bft) 97,87 %
19.07.2017 09:54 23,0 C 24,4 C 61 % 1013,7 hPa 0,0 l/m 5,6 km/h (1 Bft) S-SW 207 2 min 0,000 mm 3,3 UV-I 744 W/m 15,1 C 23,0 C 9,7 km/h (2 Bft) 91,49 %
19.07.2017 09:56 23,2 C 24,4 C 62 % 1013,7 hPa 0,0 l/m 2,2 km/h (1 Bft) S-SW 208 2 min 0,000 mm 3,3 UV-I 711 W/m 15,5 C 23,2 C 4,8 km/h (1 Bft) 93,62 %
19.07.2017 09:58 23,4 C 23,9 C 60 % 1013,7 hPa 0,0 l/m 4,8 km/h (1 Bft) S-SW 200 2 min 0,000 mm 3,2 UV-I 708 W/m 15,2 C 23,4 C 9,7 km/h (2 Bft) 95,74 %
19.07.2017 10:00 23,6 C 24,4 C 59 % 1013,7 hPa 0,0 l/m 5,8 km/h (2 Bft) S-SW 202 2 min 0,254 mm 3,1 UV-I 701 W/m 15,1 C 23,6 C 8,0 km/h (2 Bft) 97,87 %
19.07.2017 10:02 23,7 C 24,4 C 58 % 1013,6 hPa 0,0 l/m 4,9 km/h (1 Bft) SW 215 2 min 0,000 mm 3,3 UV-I 668 W/m 14,9 C 23,7 C 8,0 km/h (2 Bft) 96,00 %
19.07.2017 10:04 23,8 C 24,4 C 57 % 1013,7 hPa 0,0 l/m 4,9 km/h (1 Bft) S-SW 211 2 min 0,000 mm 3,3 UV-I 708 W/m 14,8 C 23,8 C 8,0 km/h (2 Bft) 97,87 %
19.07.2017 10:06 23,8 C 23,9 C 56 % 1013,6 hPa 0,0 l/m 3,7 km/h (1 Bft) W-SW 238 2 min 0,000 mm 3,2 UV-I 710 W/m 14,5 C 23,8 C 6,4 km/h (2 Bft) 97,87 %
19.07.2017 10:08 23,8 C 23,9 C 57 % 1013,6 hPa 0,0 l/m 4,3 km/h (1 Bft) S 189 2 min 0,000 mm 2,8 UV-I 658 W/m 14,8 C 23,8 C 8,0 km/h (2 Bft) 95,74 %
19.07.2017 10:10 23,9 C 24,4 C 56 % 1013,7 hPa 0,0 l/m 2,6 km/h (1 Bft) SW 235 2 min 0,000 mm 3,1 UV-I 401 W/m 14,6 C 23,9 C 6,4 km/h (2 Bft) 97,87 %
19.07.2017 10:12 24,1 C 24,4 C 54 % 1013,6 hPa 0,0 l/m 5,5 km/h (1 Bft) S-SW 205 2 min 0,000 mm 3,7 UV-I 576 W/m 14,2 C 24,1 C 8,0 km/h (2 Bft) 95,74 %
19.07.2017 10:14 24,5 C 24,4 C 55 % 1013,6 hPa 0,0 l/m 4,0 km/h (1 Bft) W-SW 257 2 min 0,000 mm 3,8 UV-I 772 W/m 14,9 C 24,5 C 6,4 km/h (2 Bft) 97,87 %
19.07.2017 10:16 24,9 C 24,4 C 52 % 1013,6 hPa 0,0 l/m 6,8 km/h (2 Bft) W-SW 250 2 min 0,000 mm 3,9 UV-I 788 W/m 14,4 C 24,8 C 12,9 km/h (3 Bft) 94,29 %
19.07.2017 10:18 24,9 C 24,4 C 53 % 1013,6 hPa 0,0 l/m 3,4 km/h (1 Bft) W-SW 251 2 min 0,000 mm 3,9 UV-I 817 W/m 14,6 C 24,9 C 8,0 km/h (2 Bft) 98,00 %
19.07.2017 10:20 25,0 C 24,4 C 52 % 1013,6 hPa 0,0 l/m 5,4 km/h (1 Bft) SW 230 2 min 0,000 mm 4,1 UV-I 861 W/m 14,4 C 25,0 C 9,7 km/h (2 Bft) 93,62 %
19.07.2017 10:22 25,1 C 24,4 C 53 % 1013,6 hPa 0,0 l/m 4,1 km/h (1 Bft) S 169 2 min 0,000 mm 4,1 UV-I 885 W/m 14,8 C 25,1 C 8,0 km/h (2 Bft) 91,49 %
19.07.2017 10:24 25,2 C 24,4 C 53 % 1013,6 hPa 0,0 l/m 5,2 km/h (1 Bft) S-SW 202 2 min 0,000 mm 3,4 UV-I 863 W/m 14,9 C 25,2 C 8,0 km/h (2 Bft) 98,00 %
19.07.2017 10:26 25,1 C 24,4 C 52 % 1013,6 hPa 0,0 l/m 3,8 km/h (1 Bft) SW 231 2 min 0,000 mm 3,1 UV-I 448 W/m 14,5 C 25,1 C 8,0 km/h (2 Bft) 95,74 %
19.07.2017 10:28 25,1 C 24,4 C 52 % 1013,6 hPa 0,0 l/m 6,3 km/h (2 Bft) W-SW 242 2 min 0,000 mm 3,4 UV-I 472 W/m 14,5 C 25,1 C 9,7 km/h (2 Bft) 96,00 %
19.07.2017 10:30 25,1 C 24,4 C 52 % 1013,6 hPa 0,0 l/m 5,0 km/h (1 Bft) SW 227 2 min 0,000 mm 3,6 UV-I 518 W/m 14,5 C 25,1 C 9,7 km/h (2 Bft) 96,00 %
19.07.2017 10:32 25,1 C 24,4 C 51 % 1013,6 hPa 0,0 l/m 6,4 km/h (2 Bft) SW 219 2 min 0,000 mm 3,2 UV-I 506 W/m 14,2 C 25,1 C 12,9 km/h (3 Bft) 94,87 %
19.07.2017 10:34 25,1 C 24,4 C 53 % 1013,6 hPa 0,0 l/m 5,6 km/h (1 Bft) SW 234 2 min 0,000 mm 3,3 UV-I 478 W/m 14,8 C 25,1 C 9,7 km/h (2 Bft) 93,62 %
19.07.2017 10:36 25,2 C 24,4 C 53 % 1013,6 hPa 0,0 l/m 6,7 km/h (2 Bft) S-SW 213 2 min 0,000 mm 3,5 UV-I 477 W/m 14,9 C 25,1 C 9,7 km/h (2 Bft) 95,74 %
19.07.2017 10:38 25,3 C 24,4 C 53 % 1013,6 hPa 0,0 l/m 5,2 km/h (1 Bft) W-SW 257 2 min 0,000 mm 3,1 UV-I 436 W/m 15,0 C 25,3 C 8,0 km/h (2 Bft) 97,87 %
19.07.2017 10:40 25,4 C 24,4 C 52 % 1013,6 hPa 0,0 l/m 6,0 km/h (2 Bft) S-SO 163 2 min 0,000 mm 3,9 UV-I 441 W/m 14,8 C 25,4 C 11,3 km/h (2 Bft) 95,74 %
19.07.2017 10:42 25,4 C 24,4 C 52 % 1013,6 hPa 0,0 l/m 4,1 km/h (1 Bft) S 174 2 min 0,000 mm 4,5 UV-I 859 W/m 14,8 C 25,4 C 6,4 km/h (2 Bft) 94,29 %
19.07.2017 10:44 25,6 C 24,4 C 53 % 1013,6 hPa 0,0 l/m 2,9 km/h (1 Bft) SW 221 2 min 0,000 mm 4,6 UV-I 906 W/m 15,3 C 25,6 C 6,4 km/h (2 Bft) 95,16 %
19.07.2017 10:46 25,9 C 24,4 C 52 % 1013,6 hPa 0,0 l/m 1,9 km/h (1 Bft) W-SW 238 2 min 0,000 mm 4,7 UV-I 918 W/m 15,3 C 25,9 C 4,8 km/h (1 Bft) 96,00 %
19.07.2017 10:48 26,1 C 24,4 C 50 % 1013,6 hPa 0,0 l/m 5,2 km/h (1 Bft) S-SO 150 2 min 0,000 mm 4,8 UV-I 935 W/m 14,8 C 26,1 C 9,7 km/h (2 Bft) 100,00 %
19.07.2017 10:50 26,1 C 24,4 C 48 % 1013,6 hPa 0,0 l/m 3,8 km/h (1 Bft) S-SO 161 2 min 0,000 mm 5,0 UV-I 970 W/m 14,2 C 26,1 C 9,7 km/h (2 Bft) 95,74 %
19.07.2017 10:52 26,3 C 24,4 C 50 % 1013,5 hPa 0,0 l/m 1,4 km/h (1 Bft) S 190 2 min 0,000 mm 5,0 UV-I 987 W/m 15,0 C 26,3 C 6,4 km/h (2 Bft) 100,00 %
19.07.2017 10:54 26,7 C 24,4 C 49 % 1013,5 hPa 0,0 l/m 4,5 km/h (1 Bft) S 174 2 min 0,000 mm 5,1 UV-I 1000 W/m 15,1 C 26,7 C 9,7 km/h (2 Bft) 97,87 %
19.07.2017 10:56 26,7 C 24,4 C 45 % 1013,4 hPa 0,0 l/m 1,6 km/h (1 Bft) S-SO 157 2 min 0,000 mm 5,1 UV-I 976 W/m 13,8 C 26,7 C 6,4 km/h (2 Bft) 95,74 %
19.07.2017 10:58 26,6 C 24,4 C 46 % 1013,4 hPa 0,0 l/m 2,7 km/h (1 Bft) S-SW 208 2 min 0,000 mm 5,1 UV-I 951 W/m 14,0 C 26,6 C 6,4 km/h (2 Bft) 97,87 %
19.07.2017 11:00 26,7 C 24,4 C 47 % 1013,4 hPa 0,0 l/m 1,8 km/h (1 Bft) S-SW 210 2 min 0,508 mm 5,2 UV-I 982 W/m 14,4 C 26,7 C 4,8 km/h (1 Bft) 98,00 %
19.07.2017 11:02 26,8 C 24,4 C 47 % 1013,4 hPa 0,0 l/m 3,1 km/h (1 Bft) SO 129 2 min 0,000 mm 4,7 UV-I 953 W/m 14,5 C 26,8 C 4,8 km/h (1 Bft) 97,87 %
19.07.2017 11:04 26,9 C 24,4 C 49 % 1013,4 hPa 0,0 l/m 2,1 km/h (1 Bft) N-NW 342 2 min 0,000 mm 5,1 UV-I 963 W/m 15,3 C 26,9 C 3,2 km/h (1 Bft) 95,74 %
19.07.2017 11:06 27,2 C 24,4 C 47 % 1013,3 hPa 0,0 l/m 1,9 km/h (1 Bft) N-NO 24 2 min 0,000 mm 5,0 UV-I 943 W/m 14,9 C 27,2 C 4,8 km/h (1 Bft) 97,87 %
19.07.2017 11:08 27,4 C 24,4 C 45 % 1013,3 hPa 0,0 l/m 1,8 km/h (1 Bft) N-NW 330 2 min 0,000 mm 3,3 UV-I 738 W/m 14,4 C 27,4 C 4,8 km/h (1 Bft) 97,87 %
19.07.2017 11:10 27,3 C 24,4 C 46 % 1013,3 hPa 0,0 l/m 0,1 km/h (0 Bft) N-NW 333 0 min 0,000 mm 4,6 UV-I 302 W/m 14,6 C 27,3 C 1,6 km/h (1 Bft) 94,00 %
19.07.2017 11:12 27,2 C 24,4 C 46 % 1013,2 hPa 0,0 l/m 5,3 km/h (1 Bft) S-SW 192 0 min 0,000 mm 4,5 UV-I 302 W/m 14,6 C 27,2 C 8,0 km/h (2 Bft) 100,00 %
19.07.2017 11:14 27,0 C 24,4 C 45 % 1013,2 hPa 0,0 l/m 3,8 km/h (1 Bft) S-SO 165 2 min 0,000 mm 4,5 UV-I 517 W/m 14,0 C 27,0 C 6,4 km/h (2 Bft) 96,00 %
19.07.2017 11:16 26,8 C 24,4 C 45 % 1013,2 hPa 0,0 l/m 2,7 km/h (1 Bft) SW 234 2 min 0,000 mm 5,1 UV-I 819 W/m 13,9 C 26,8 C 6,4 km/h (2 Bft) 95,74 %
19.07.2017 11:18 26,8 C 24,4 C 45 % 1013,2 hPa 0,0 l/m 4,0 km/h (1 Bft) S 182 2 min 0,000 mm 5,1 UV-I 849 W/m 13,9 C 26,8 C 8,0 km/h (2 Bft) 95,74 %
19.07.2017 11:20 26,9 C 24,4 C 45 % 1013,2 hPa 0,0 l/m 3,4 km/h (1 Bft) S-SO 164 2 min 0,000 mm 5,2 UV-I 845 W/m 13,9 C 26,9 C 6,4 km/h (2 Bft) 94,00 %
19.07.2017 11:22 27,1 C 24,4 C 45 % 1013,2 hPa 0,0 l/m 3,0 km/h (1 Bft) S-SO 148 2 min 0,000 mm 5,2 UV-I 842 W/m 14,1 C 27,1 C 6,4 km/h (2 Bft) 97,87 %
19.07.2017 11:24 27,0 C 24,4 C 44 % 1013,1 hPa 0,0 l/m 2,8 km/h (1 Bft) SO 132 2 min 0,000 mm 5,2 UV-I 845 W/m 13,7 C 27,0 C 11,3 km/h (2 Bft) 95,74 %
19.07.2017 11:26 27,0 C 24,4 C 44 % 1013,1 hPa 0,0 l/m 4,6 km/h (1 Bft) O-SO 119 2 min 0,000 mm 5,2 UV-I 851 W/m 13,7 C 27,0 C 6,4 km/h (2 Bft) 93,62 %
19.07.2017 11:28 27,2 C 24,4 C 46 % 1013,1 hPa 0,0 l/m 2,6 km/h (1 Bft) S 169 2 min 0,000 mm 5,3 UV-I 856 W/m 14,6 C 27,2 C 4,8 km/h (1 Bft) 89,36 %
19.07.2017 11:30 27,5 C 24,4 C 43 % 1013,2 hPa 0,0 l/m 7,4 km/h (2 Bft) W-SW 245 2 min 0,000 mm 5,3 UV-I 860 W/m 13,8 C 27,3 C 12,9 km/h (3 Bft) 97,87 %
19.07.2017 11:32 27,6 C 24,4 C 42 % 1013,1 hPa 0,0 l/m 6,8 km/h (2 Bft) SW 229 2 min 0,000 mm 5,2 UV-I 858 W/m 13,5 C 27,5 C 12,9 km/h (3 Bft) 95,74 %
19.07.2017 11:34 27,8 C 24,4 C 42 % 1013,1 hPa 0,0 l/m 7,5 km/h (2 Bft) W 265 2 min 0,000 mm 4,4 UV-I 861 W/m 13,7 C 27,6 C 16,1 km/h (3 Bft) 98,00 %
19.07.2017 11:36 27,8 C 24,4 C 43 % 1013,1 hPa 0,0 l/m 2,3 km/h (1 Bft) W 263 2 min 0,000 mm 5,3 UV-I 844 W/m 14,1 C 27,8 C 6,4 km/h (2 Bft) 95,74 %
19.07.2017 11:38 27,8 C 24,4 C 42 % 1013,1 hPa 0,0 l/m 3,6 km/h (1 Bft) W-SW 237 2 min 0,000 mm 5,5 UV-I 866 W/m 13,7 C 27,8 C 8,0 km/h (2 Bft) 97,87 %
19.07.2017 11:40 27,7 C 24,4 C 43 % 1013,1 hPa 0,0 l/m 4,8 km/h (1 Bft) W-SW 248 2 min 0,000 mm 5,5 UV-I 876 W/m 14,0 C 27,7 C 9,7 km/h (2 Bft) 93,62 %
19.07.2017 11:42 27,7 C 24,4 C 42 % 1013,1 hPa 0,0 l/m 6,4 km/h (2 Bft) S-SW 197 2 min 0,000 mm 5,6 UV-I 875 W/m 13,6 C 27,7 C 11,3 km/h (2 Bft) 93,62 %
19.07.2017 11:44 27,9 C 24,4 C 44 % 1013,0 hPa 0,0 l/m 4,7 km/h (1 Bft) SW 220 2 min 0,000 mm 5,6 UV-I 872 W/m 14,5 C 27,9 C 11,3 km/h (2 Bft) 97,87 %
19.07.2017 11:46 27,9 C 24,4 C 41 % 1013,0 hPa 0,0 l/m 3,8 km/h (1 Bft) S-SO 165 2 min 0,000 mm 5,6 UV-I 869 W/m 13,4 C 27,9 C 8,0 km/h (2 Bft) 97,87 %
19.07.2017 11:48 27,6 C 24,4 C 41 % 1013,0 hPa 0,0 l/m 3,9 km/h (1 Bft) O-SO 122 2 min 0,000 mm 5,6 UV-I 869 W/m 13,1 C 27,6 C 8,0 km/h (2 Bft) 97,87 %
19.07.2017 11:50 27,6 C 24,4 C 42 % 1013,0 hPa 0,0 l/m 3,3 km/h (1 Bft) SO 126 2 min 0,000 mm 5,6 UV-I 868 W/m 13,5 C 27,6 C 4,8 km/h (1 Bft) 97,87 %
19.07.2017 11:52 27,7 C 24,4 C 43 % 1013,0 hPa 0,0 l/m 1,8 km/h (1 Bft) NW 324 2 min 0,000 mm 5,6 UV-I 864 W/m 14,0 C 27,7 C 4,8 km/h (1 Bft) 93,75 %
19.07.2017 11:54 27,9 C 24,4 C 42 % 1012,9 hPa 0,0 l/m 3,0 km/h (1 Bft) NO 35 2 min 0,000 mm 5,6 UV-I 862 W/m 13,8 C 27,9 C 6,4 km/h (2 Bft) 100,00 %
19.07.2017 11:56 28,2 C 24,4 C 42 % 1012,9 hPa 0,0 l/m 3,3 km/h (1 Bft) S-SW 192 2 min 0,000 mm 5,6 UV-I 864 W/m 14,0 C 28,2 C 8,0 km/h (2 Bft) 97,87 %
19.07.2017 11:58 28,2 C 24,4 C 41 % 1012,9 hPa 0,0 l/m 3,9 km/h (1 Bft) S-SO 154 2 min 0,000 mm 5,7 UV-I 865 W/m 13,7 C 28,2 C 6,4 km/h (2 Bft) 97,87 %
19.07.2017 12:00 28,0 C 24,4 C 41 % 1012,8 hPa 0,0 l/m 2,0 km/h (1 Bft) S-SO 165 2 min 0,559 mm 5,7 UV-I 865 W/m 13,5 C 28,0 C 6,4 km/h (2 Bft) 97,87 %
19.07.2017 12:02 28,2 C 24,4 C 41 % 1012,8 hPa 0,0 l/m 2,2 km/h (1 Bft) SW 217 2 min 0,000 mm 5,6 UV-I 823 W/m 13,7 C 28,2 C 6,4 km/h (2 Bft) 97,87 %
19.07.2017 12:04 28,2 C 24,4 C 41 % 1012,8 hPa 0,0 l/m 4,1 km/h (1 Bft) O-SO 117 2 min 0,000 mm 5,1 UV-I 867 W/m 13,7 C 28,2 C 12,9 km/h (3 Bft) 97,14 %
19.07.2017 12:06 28,1 C 25,0 C 40 % 1012,8 hPa 0,0 l/m 2,0 km/h (1 Bft) S-SW 211 2 min 0,000 mm 5,6 UV-I 869 W/m 13,2 C 28,1 C 3,2 km/h (1 Bft) 97,87 %
19.07.2017 12:08 28,0 C 25,0 C 41 % 1012,7 hPa 0,0 l/m 2,0 km/h (1 Bft) SO 138 2 min 0,000 mm 5,7 UV-I 866 W/m 13,5 C 28,0 C 4,8 km/h (1 Bft) 97,87 %
19.07.2017 12:10 28,0 C 25,0 C 41 % 1012,7 hPa 0,0 l/m 2,9 km/h (1 Bft) S-SO 161 2 min 0,000 mm 5,7 UV-I 869 W/m 13,5 C 28,0 C 6,4 km/h (2 Bft) 97,87 %
19.07.2017 12:12 28,2 C 25,0 C 42 % 1012,7 hPa 0,0 l/m 1,0 km/h (0 Bft) S-SO 160 2 min 0,000 mm 5,8 UV-I 872 W/m 14,0 C 28,2 C 3,2 km/h (1 Bft) 95,65 %
19.07.2017 12:14 28,3 C 25,0 C 42 % 1012,6 hPa 0,0 l/m 2,9 km/h (1 Bft) S-SW 202 2 min 0,000 mm 5,8 UV-I 874 W/m 14,1 C 28,3 C 8,0 km/h (2 Bft) 97,87 %
19.07.2017 12:16 28,6 C 25,0 C 41 % 1012,6 hPa 0,0 l/m 8,3 km/h (2 Bft) W-SW 240 2 min 0,000 mm 5,9 UV-I 879 W/m 14,0 C 28,3 C 14,5 km/h (3 Bft) 97,87 %
19.07.2017 12:18 28,8 C 25,0 C 41 % 1012,7 hPa 0,0 l/m 4,1 km/h (1 Bft) W-SW 254 2 min 0,000 mm 5,9 UV-I 886 W/m 14,2 C 28,8 C 6,4 km/h (2 Bft) 94,00 %
19.07.2017 12:20 28,7 C 25,0 C 40 % 1012,6 hPa 0,0 l/m 1,6 km/h (1 Bft) N-NW 342 2 min 0,000 mm 6,0 UV-I 890 W/m 13,7 C 28,7 C 4,8 km/h (1 Bft) 100,00 %
19.07.2017 12:22 28,7 C 25,0 C 41 % 1012,6 hPa 0,0 l/m 2,8 km/h (1 Bft) SW 236 2 min 0,000 mm 6,0 UV-I 899 W/m 14,1 C 28,7 C 6,4 km/h (2 Bft) 95,74 %
19.07.2017 12:24 28,7 C 25,0 C 40 % 1012,6 hPa 0,0 l/m 1,5 km/h (1 Bft) W-SW 237 2 min 0,000 mm 6,0 UV-I 905 W/m 13,7 C 28,7 C 4,8 km/h (1 Bft) 100,00 %
19.07.2017 12:26 29,1 C 25,0 C 40 % 1012,6 hPa 0,0 l/m 6,6 km/h (2 Bft) SW 222 2 min 0,000 mm 6,1 UV-I 908 W/m 14,1 C 29,1 C 14,5 km/h (3 Bft) 98,11 %
19.07.2017 12:28 29,2 C 25,0 C 38 % 1012,6 hPa 0,0 l/m 7,0 km/h (2 Bft) W-SW 237 2 min 0,000 mm 6,1 UV-I 919 W/m 13,4 C 29,1 C 11,3 km/h (2 Bft) 95,74 %
19.07.2017 12:30 29,2 C 25,0 C 38 % 1012,5 hPa 0,0 l/m 2,8 km/h (1 Bft) S-SW 199 2 min 0,000 mm 6,2 UV-I 928 W/m 13,4 C 29,2 C 6,4 km/h (2 Bft) 100,00 %
19.07.2017 12:32 29,2 C 25,0 C 37 % 1012,5 hPa 0,0 l/m 5,7 km/h (1 Bft) S-SO 166 2 min 0,000 mm 6,1 UV-I 924 W/m 13,0 C 29,2 C 8,0 km/h (2 Bft) 98,00 %
19.07.2017 12:34 29,2 C 25,0 C 38 % 1012,5 hPa 0,0 l/m 3,0 km/h (1 Bft) W-SW 253 2 min 0,000 mm 6,1 UV-I 915 W/m 13,4 C 29,2 C 12,9 km/h (3 Bft) 95,74 %
19.07.2017 12:36 29,3 C 25,0 C 36 % 1012,5 hPa 0,0 l/m 9,1 km/h (2 Bft) W 281 2 min 0,000 mm 6,1 UV-I 910 W/m 12,7 C 29,0 C 14,5 km/h (3 Bft) 95,74 %
19.07.2017 12:38 29,2 C 25,0 C 37 % 1012,5 hPa 0,0 l/m 7,2 km/h (2 Bft) W-NW 287 2 min 0,000 mm 6,1 UV-I 908 W/m 13,0 C 29,1 C 11,3 km/h (2 Bft) 98,00 %
19.07.2017 12:40 28,9 C 25,0 C 37 % 1012,5 hPa 0,0 l/m 4,0 km/h (1 Bft) W 263 2 min 0,000 mm 6,1 UV-I 906 W/m 12,7 C 28,9 C 6,4 km/h (2 Bft) 93,62 %
19.07.2017 12:42 28,9 C 25,0 C 38 % 1012,5 hPa 0,0 l/m 3,8 km/h (1 Bft) S-SW 202 2 min 0,000 mm 6,1 UV-I 906 W/m 13,1 C 28,9 C 9,7 km/h (2 Bft) 97,87 %
19.07.2017 12:44 29,1 C 25,0 C 38 % 1012,4 hPa 0,0 l/m 4,7 km/h (1 Bft) SW 236 2 min 0,000 mm 6,1 UV-I 909 W/m 13,3 C 29,1 C 8,0 km/h (2 Bft) 93,62 %
19.07.2017 12:46 29,4 C 25,0 C 37 % 1012,4 hPa 0,0 l/m 5,5 km/h (1 Bft) SW 223 2 min 0,000 mm 6,1 UV-I 918 W/m 13,2 C 29,4 C 9,7 km/h (2 Bft) 97,37 %
19.07.2017 12:48 29,6 C 25,0 C 37 % 1012,4 hPa 0,0 l/m 4,1 km/h (1 Bft) S-SW 197 2 min 0,000 mm 5,7 UV-I 920 W/m 13,3 C 29,6 C 11,3 km/h (2 Bft) 96,00 %
19.07.2017 12:50 29,4 C 25,0 C 36 % 1012,4 hPa 0,0 l/m 3,9 km/h (1 Bft) SW 221 2 min 0,000 mm 6,1 UV-I 884 W/m 12,7 C 29,4 C 6,4 km/h (2 Bft) 97,87 %
19.07.2017 12:52 29,4 C 25,0 C 37 % 1012,4 hPa 0,0 l/m 8,0 km/h (2 Bft) S-SW 198 2 min 0,000 mm 6,2 UV-I 914 W/m 13,2 C 29,2 C 12,9 km/h (3 Bft) 100,00 %
19.07.2017 12:54 29,4 C 25,0 C 35 % 1012,4 hPa 0,0 l/m 5,2 km/h (1 Bft) SO 127 2 min 0,000 mm 6,1 UV-I 957 W/m 12,3 C 29,4 C 11,3 km/h (2 Bft) 98,00 %
19.07.2017 12:56 29,3 C 25,0 C 37 % 1012,4 hPa 0,0 l/m 5,5 km/h (1 Bft) S 174 2 min 0,000 mm 5,5 UV-I 953 W/m 13,1 C 29,3 C 9,7 km/h (2 Bft) 97,37 %
19.07.2017 12:58 29,5 C 25,0 C 39 % 1012,4 hPa 0,0 l/m 8,7 km/h (2 Bft) S 184 2 min 0,000 mm 6,0 UV-I 850 W/m 14,1 C 29,3 C 12,9 km/h (3 Bft) 98,21 %
19.07.2017 13:00 29,6 C 25,0 C 36 % 1012,3 hPa 0,0 l/m 5,4 km/h (1 Bft) W 273 2 min 0,635 mm 6,2 UV-I 932 W/m 12,9 C 29,6 C 9,7 km/h (2 Bft) 95,74 %
19.07.2017 13:02 29,9 C 25,0 C 36 % 1012,3 hPa 0,0 l/m 5,5 km/h (1 Bft) W-SW 237 2 min 0,000 mm 6,1 UV-I 925 W/m 13,2 C 29,9 C 9,7 km/h (2 Bft) 95,74 %
19.07.2017 13:04 29,9 C 25,0 C 35 % 1012,3 hPa 0,0 l/m 10,4 km/h (2 Bft) W-SW 253 2 min 0,000 mm 5,7 UV-I 784 W/m 12,8 C 29,5 C 14,5 km/h (3 Bft) 95,74 %
19.07.2017 13:06 29,7 C 25,0 C 34 % 1012,3 hPa 0,0 l/m 7,6 km/h (2 Bft) W 273 2 min 0,000 mm 4,9 UV-I 759 W/m 12,1 C 29,6 C 12,9 km/h (3 Bft) 95,74 %
19.07.2017 13:08 29,6 C 25,0 C 36 % 1012,2 hPa 0,0 l/m 9,0 km/h (2 Bft) W-SW 253 2 min 0,000 mm 5,8 UV-I 768 W/m 12,9 C 29,3 C 14,5 km/h (3 Bft) 98,00 %
19.07.2017 13:10 29,3 C 25,0 C 35 % 1012,2 hPa 0,0 l/m 2,3 km/h (1 Bft) N-NW 329 2 min 0,000 mm 5,9 UV-I 856 W/m 12,2 C 29,3 C 6,4 km/h (2 Bft) 93,48 %
19.07.2017 13:12 29,3 C 25,0 C 38 % 1012,2 hPa 0,0 l/m 4,5 km/h (1 Bft) SW 234 2 min 0,000 mm 5,7 UV-I 832 W/m 13,5 C 29,3 C 12,9 km/h (3 Bft) 95,83 %
19.07.2017 13:14 29,7 C 25,0 C 37 % 1012,1 hPa 0,0 l/m 10,8 km/h (2 Bft) SW 227 2 min 0,000 mm 5,9 UV-I 757 W/m 13,4 C 29,3 C 16,1 km/h (3 Bft) 94,29 %
19.07.2017 13:16 30,0 C 25,0 C 37 % 1012,1 hPa 0,0 l/m 7,2 km/h (2 Bft) S 188 2 min 0,000 mm 6,3 UV-I 914 W/m 13,7 C 29,9 C 12,9 km/h (3 Bft) 95,92 %
19.07.2017 13:18 30,1 C 25,0 C 35 % 1012,0 hPa 0,0 l/m 8,2 km/h (2 Bft) SW 219 2 min 0,000 mm 6,2 UV-I 902 W/m 12,9 C 29,9 C 22,5 km/h (4 Bft) 92,00 %
19.07.2017 13:20 30,1 C 25,0 C 33 % 1012,1 hPa 0,0 l/m 13,5 km/h (3 Bft) W-SW 240 2 min 0,000 mm 6,2 UV-I 897 W/m 12,0 C 29,6 C 19,3 km/h (3 Bft) 92,00 %
19.07.2017 13:22 30,2 C 25,0 C 34 % 1012,0 hPa 0,0 l/m 12,3 km/h (3 Bft) W-SW 237 2 min 0,000 mm 6,2 UV-I 893 W/m 12,6 C 29,8 C 19,3 km/h (3 Bft) 93,62 %
19.07.2017 13:24 30,2 C 25,0 C 33 % 1012,1 hPa 0,0 l/m 10,5 km/h (2 Bft) W-SW 257 2 min 0,000 mm 6,2 UV-I 875 W/m 12,1 C 29,9 C 16,1 km/h (3 Bft) 95,74 %
19.07.2017 13:26 30,0 C 25,0 C 35 % 1012,0 hPa 0,0 l/m 13,2 km/h (3 Bft) W-SW 254 2 min 0,000 mm 6,1 UV-I 884 W/m 12,8 C 29,5 C 20,9 km/h (4 Bft) 93,62 %
19.07.2017 13:28 30,0 C 25,0 C 35 % 1012,1 hPa 0,0 l/m 11,4 km/h (2 Bft) W 265 2 min 0,000 mm 6,1 UV-I 886 W/m 12,8 C 29,6 C 16,1 km/h (3 Bft) 93,62 %
19.07.2017 13:30 30,0 C 25,0 C 35 % 1012,1 hPa 0,0 l/m 9,3 km/h (2 Bft) SW 215 2 min 0,000 mm 6,1 UV-I 884 W/m 12,8 C 29,7 C 16,1 km/h (3 Bft) 94,74 %
19.07.2017 13:32 29,9 C 25,0 C 35 % 1012,0 hPa 0,0 l/m 4,8 km/h (1 Bft) W 276 2 min 0,000 mm 6,1 UV-I 882 W/m 12,8 C 29,9 C 12,9 km/h (3 Bft) 91,49 %
19.07.2017 13:34 29,7 C 25,0 C 33 % 1011,9 hPa 0,0 l/m 3,0 km/h (1 Bft) S-SW 200 2 min 0,000 mm 6,1 UV-I 887 W/m 11,7 C 29,7 C 6,4 km/h (2 Bft) 89,36 %
19.07.2017 13:36 29,7 C 25,0 C 35 % 1011,9 hPa 0,0 l/m 10,1 km/h (2 Bft) W 277 2 min 0,000 mm 6,1 UV-I 893 W/m 12,6 C 29,3 C 25,7 km/h (4 Bft) 95,74 %
19.07.2017 13:38 30,1 C 25,6 C 36 % 1012,0 hPa 0,0 l/m 10,8 km/h (2 Bft) W 272 2 min 0,000 mm 6,1 UV-I 908 W/m 13,4 C 29,7 C 20,9 km/h (4 Bft) 96,00 %
19.07.2017 13:40 30,1 C 25,0 C 34 % 1011,9 hPa 0,0 l/m 6,7 km/h (2 Bft) W-NW 285 2 min 0,000 mm 5,1 UV-I 845 W/m 12,5 C 30,1 C 14,5 km/h (3 Bft) 95,74 %
19.07.2017 13:42 30,1 C 25,6 C 34 % 1011,9 hPa 0,0 l/m 7,7 km/h (2 Bft) S-SW 209 2 min 0,000 mm 5,4 UV-I 696 W/m 12,5 C 30,0 C 17,7 km/h (3 Bft) 95,74 %
19.07.2017 13:44 30,2 C 25,6 C 34 % 1011,9 hPa 0,0 l/m 8,0 km/h (2 Bft) S-SW 209 2 min 0,000 mm 5,7 UV-I 756 W/m 12,6 C 30,1 C 12,9 km/h (3 Bft) 93,62 %
19.07.2017 13:46 30,2 C 25,6 C 34 % 1011,9 hPa 0,0 l/m 4,5 km/h (1 Bft) SW 217 2 min 0,000 mm 5,6 UV-I 777 W/m 12,6 C 30,2 C 16,1 km/h (3 Bft) 95,83 %
19.07.2017 13:48 30,2 C 25,6 C 34 % 1011,9 hPa 0,0 l/m 7,2 km/h (2 Bft) NW 305 2 min 0,000 mm 5,5 UV-I 862 W/m 12,6 C 30,1 C 12,9 km/h (3 Bft) 97,87 %
19.07.2017 13:50 30,1 C 25,6 C 35 % 1011,9 hPa 0,0 l/m 6,0 km/h (2 Bft) W 268 2 min 0,000 mm 4,8 UV-I 719 W/m 12,9 C 30,1 C 17,7 km/h (3 Bft) 97,87 %
19.07.2017 13:52 29,9 C 25,6 C 33 % 1011,9 hPa 0,0 l/m 12,2 km/h (2 Bft) W-SW 253 2 min 0,000 mm 4,2 UV-I 543 W/m 11,9 C 29,4 C 16,1 km/h (3 Bft) 93,75 %
19.07.2017 13:54 29,9 C 25,6 C 34 % 1011,9 hPa 0,0 l/m 7,5 km/h (2 Bft) W-SW 242 0 min 0,000 mm 3,7 UV-I 386 W/m 12,3 C 29,8 C 14,5 km/h (3 Bft) 97,50 %
19.07.2017 13:56 29,9 C 25,6 C 33 % 1011,9 hPa 0,0 l/m 10,4 km/h (2 Bft) W 260 0 min 0,000 mm 3,9 UV-I 403 W/m 11,9 C 29,5 C 17,7 km/h (3 Bft) 93,62 %
19.07.2017 13:58 29,9 C 25,6 C 32 % 1011,9 hPa 0,0 l/m 13,6 km/h (3 Bft) W-SW 237 2 min 0,000 mm 4,4 UV-I 569 W/m 11,4 C 29,3 C 22,5 km/h (4 Bft) 93,62 %
19.07.2017 14:00 29,8 C 25,6 C 32 % 1011,8 hPa 0,0 l/m 9,7 km/h (2 Bft) W-SW 248 2 min 0,000 mm 4,3 UV-I 485 W/m 11,3 C 29,5 C 14,5 km/h (3 Bft) 93,62 %
19.07.2017 14:02 29,8 C 25,6 C 34 % 1011,8 hPa 0,0 l/m 9,5 km/h (2 Bft) W-SW 238 2 min 0,609 mm 5,0 UV-I 546 W/m 12,2 C 29,5 C 16,1 km/h (3 Bft) 94,00 %
19.07.2017 14:04 29,8 C 25,6 C 34 % 1011,8 hPa 0,0 l/m 7,8 km/h (2 Bft) W 269 2 min 0,000 mm 4,7 UV-I 516 W/m 12,2 C 29,7 C 11,3 km/h (2 Bft) 98,11 %
19.07.2017 14:06 29,9 C 25,6 C 34 % 1011,9 hPa 0,0 l/m 5,3 km/h (1 Bft) W-SW 256 2 min 0,000 mm 4,4 UV-I 486 W/m 12,3 C 29,9 C 11,3 km/h (2 Bft) 95,74 %
19.07.2017 14:08 29,8 C 25,6 C 34 % 1011,9 hPa 0,0 l/m 4,6 km/h (1 Bft) S-SW 207 2 min 0,000 mm 4,4 UV-I 528 W/m 12,2 C 29,8 C 11,3 km/h (2 Bft) 95,74 %
19.07.2017 14:10 29,8 C 25,6 C 34 % 1011,9 hPa 0,0 l/m 4,0 km/h (1 Bft) W-NW 283 2 min 0,000 mm 4,4 UV-I 592 W/m 12,2 C 29,8 C 9,7 km/h (2 Bft) 94,29 %
19.07.2017 14:12 29,8 C 25,6 C 36 % 1011,8 hPa 0,0 l/m 3,7 km/h (1 Bft) N-NW 337 0 min 0,000 mm 4,0 UV-I 408 W/m 13,1 C 29,8 C 9,7 km/h (2 Bft) 96,23 %
19.07.2017 14:14 30,1 C 25,6 C 35 % 1011,7 hPa 0,0 l/m 5,5 km/h (1 Bft) W 271 2 min 0,000 mm 5,6 UV-I 746 W/m 12,9 C 30,1 C 11,3 km/h (2 Bft) 95,74 %
19.07.2017 14:16 30,4 C 25,6 C 34 % 1011,6 hPa 0,0 l/m 4,8 km/h (1 Bft) W-SW 257 2 min 0,000 mm 5,9 UV-I 936 W/m 12,7 C 30,4 C 8,0 km/h (2 Bft) 95,74 %
19.07.2017 14:18 30,9 C 25,6 C 34 % 1011,6 hPa 0,0 l/m 7,3 km/h (2 Bft) W-NW 288 2 min 0,000 mm 5,7 UV-I 890 W/m 13,2 C 30,8 C 14,5 km/h (3 Bft) 93,62 %
19.07.2017 14:20 31,1 C 25,6 C 33 % 1011,6 hPa 0,0 l/m 3,7 km/h (1 Bft) N-NO 18 2 min 0,000 mm 5,6 UV-I 846 W/m 12,9 C 31,1 C 9,7 km/h (2 Bft) 97,62 %
19.07.2017 14:22 31,3 C 25,6 C 32 % 1011,6 hPa 0,0 l/m 11,0 km/h (2 Bft) W-SW 251 2 min 0,000 mm 5,5 UV-I 852 W/m 12,6 C 31,1 C 22,5 km/h (4 Bft) 98,08 %
19.07.2017 14:24 31,2 C 25,6 C 31 % 1011,6 hPa 0,0 l/m 13,2 km/h (3 Bft) W-SW 246 2 min 0,000 mm 5,5 UV-I 848 W/m 12,0 C 30,9 C 17,7 km/h (3 Bft) 97,87 %
19.07.2017 14:26 31,1 C 25,6 C 32 % 1011,6 hPa 0,0 l/m 11,2 km/h (2 Bft) W-SW 243 2 min 0,000 mm 5,5 UV-I 844 W/m 12,4 C 30,8 C 19,3 km/h (3 Bft) 95,83 %
19.07.2017 14:28 30,9 C 25,6 C 30 % 1011,6 hPa 0,0 l/m 11,3 km/h (2 Bft) SW 227 2 min 0,000 mm 5,5 UV-I 840 W/m 11,3 C 30,6 C 19,3 km/h (3 Bft) 97,87 %
19.07.2017 14:30 30,8 C 25,6 C 31 % 1011,6 hPa 0,0 l/m 9,8 km/h (2 Bft) SW 229 2 min 0,000 mm 5,4 UV-I 837 W/m 11,7 C 30,6 C 17,7 km/h (3 Bft) 98,00 %
19.07.2017 14:32 30,8 C 25,6 C 32 % 1011,5 hPa 0,0 l/m 8,2 km/h (2 Bft) W-SW 238 2 min 0,000 mm 5,3 UV-I 832 W/m 12,2 C 30,7 C 14,5 km/h (3 Bft) 100,00 %
19.07.2017 14:34 30,8 C 25,6 C 31 % 1011,5 hPa 0,0 l/m 7,8 km/h (2 Bft) N-NW 329 2 min 0,000 mm 5,3 UV-I 826 W/m 11,7 C 30,7 C 12,9 km/h (3 Bft) 95,74 %
19.07.2017 14:36 30,8 C 25,6 C 33 % 1011,5 hPa 0,0 l/m 5,7 km/h (1 Bft) N-NW 347 2 min 0,000 mm 5,3 UV-I 828 W/m 12,6 C 30,8 C 12,9 km/h (3 Bft) 93,62 %
19.07.2017 14:38 30,9 C 25,6 C 32 % 1011,5 hPa 0,0 l/m 7,4 km/h (2 Bft) SW 229 2 min 0,000 mm 5,2 UV-I 824 W/m 12,3 C 30,8 C 17,7 km/h (3 Bft) 100,00 %
19.07.2017 14:40 31,2 C 25,6 C 32 % 1011,5 hPa 0,0 l/m 10,5 km/h (2 Bft) W-NW 284 2 min 0,000 mm 5,2 UV-I 825 W/m 12,5 C 31,0 C 19,3 km/h (3 Bft) 97,87 %
19.07.2017 14:42 31,3 C 25,6 C 31 % 1011,5 hPa 0,0 l/m 9,4 km/h (2 Bft) N-NW 333 2 min 0,000 mm 5,2 UV-I 826 W/m 12,1 C 31,1 C 16,1 km/h (3 Bft) 97,37 %
19.07.2017 14:44 31,3 C 25,6 C 31 % 1011,5 hPa 0,0 l/m 3,2 km/h (1 Bft) W-NW 296 2 min 0,000 mm 5,2 UV-I 825 W/m 12,1 C 31,3 C 8,0 km/h (2 Bft) 97,87 %
19.07.2017 14:46 31,6 C 25,6 C 32 % 1011,5 hPa 0,0 l/m 4,1 km/h (1 Bft) NW 317 2 min 0,000 mm 5,2 UV-I 824 W/m 12,9 C 31,6 C 8,0 km/h (2 Bft) 100,00 %
19.07.2017 14:48 31,6 C 25,6 C 31 % 1011,5 hPa 0,0 l/m 5,0 km/h (1 Bft) W-SW 248 2 min 0,000 mm 5,1 UV-I 820 W/m 12,4 C 31,6 C 9,7 km/h (2 Bft) 97,87 %
19.07.2017 14:50 31,4 C 25,6 C 31 % 1011,4 hPa 0,0 l/m 5,8 km/h (2 Bft) SW 219 2 min 0,000 mm 5,1 UV-I 817 W/m 12,2 C 31,4 C 17,7 km/h (3 Bft) 97,87 %
19.07.2017 14:52 31,3 C 25,6 C 30 % 1011,4 hPa 0,0 l/m 9,0 km/h (2 Bft) SW 230 2 min 0,000 mm 5,1 UV-I 816 W/m 11,6 C 31,2 C 14,5 km/h (3 Bft) 100,00 %
19.07.2017 14:54 31,3 C 25,6 C 30 % 1011,4 hPa 0,0 l/m 10,0 km/h (2 Bft) W 276 2 min 0,000 mm 5,0 UV-I 810 W/m 11,6 C 31,1 C 17,7 km/h (3 Bft) 100,00 %
19.07.2017 14:56 31,2 C 25,6 C 31 % 1011,3 hPa 0,0 l/m 6,3 km/h (2 Bft) SW 218 2 min 0,000 mm 4,7 UV-I 805 W/m 12,0 C 31,2 C 9,7 km/h (2 Bft) 100,00 %
19.07.2017 14:58 31,3 C 25,6 C 32 % 1011,3 hPa 0,0 l/m 7,1 km/h (2 Bft) S-SO 162 2 min 0,000 mm 5,0 UV-I 806 W/m 12,6 C 31,3 C 11,3 km/h (2 Bft) 100,00 %
19.07.2017 15:00 31,3 C 25,6 C 31 % 1011,2 hPa 0,0 l/m 8,0 km/h (2 Bft) S-SW 203 2 min 0,610 mm 4,9 UV-I 803 W/m 12,1 C 31,2 C 16,1 km/h (3 Bft) 95,74 %
19.07.2017 15:02 31,6 C 25,6 C 31 % 1011,2 hPa 0,0 l/m 15,9 km/h (3 Bft) W-SW 240 2 min 0,000 mm 4,9 UV-I 797 W/m 12,4 C 31,3 C 20,9 km/h (4 Bft) 97,87 %
19.07.2017 15:04 31,7 C 25,6 C 31 % 1011,2 hPa 0,0 l/m 7,4 km/h (2 Bft) S-SW 211 2 min 0,000 mm 4,8 UV-I 796 W/m 12,5 C 31,7 C 16,1 km/h (3 Bft) 97,44 %
19.07.2017 15:06 31,7 C 25,6 C 30 % 1011,3 hPa 0,0 l/m 6,2 km/h (2 Bft) SO 146 2 min 0,000 mm 4,8 UV-I 794 W/m 12,0 C 31,7 C 16,1 km/h (3 Bft) 96,00 %
19.07.2017 15:08 31,8 C 25,6 C 30 % 1011,2 hPa 0,0 l/m 5,8 km/h (2 Bft) W-SW 244 2 min 0,000 mm 4,7 UV-I 785 W/m 12,1 C 31,8 C 11,3 km/h (2 Bft) 97,87 %
19.07.2017 15:10 31,9 C 25,6 C 31 % 1011,1 hPa 0,0 l/m 7,0 km/h (2 Bft) SW 216 2 min 0,000 mm 4,7 UV-I 784 W/m 12,6 C 31,9 C 16,1 km/h (3 Bft) 95,74 %
19.07.2017 15:12 32,0 C 25,6 C 31 % 1011,1 hPa 0,0 l/m 14,8 km/h (3 Bft) W 265 2 min 0,000 mm 4,7 UV-I 780 W/m 12,7 C 31,8 C 25,7 km/h (4 Bft) 97,87 %
19.07.2017 15:14 31,9 C 25,6 C 31 % 1011,2 hPa 0,0 l/m 12,1 km/h (2 Bft) W 264 2 min 0,000 mm 4,6 UV-I 767 W/m 12,6 C 31,7 C 19,3 km/h (3 Bft) 93,62 %
19.07.2017 15:16 31,6 C 25,6 C 33 % 1011,1 hPa 0,0 l/m 7,1 km/h (2 Bft) SW 229 2 min 0,000 mm 4,5 UV-I 766 W/m 13,3 C 31,6 C 11,3 km/h (2 Bft) 95,74 %
19.07.2017 15:18 31,6 C 25,6 C 31 % 1011,0 hPa 0,0 l/m 12,6 km/h (3 Bft) SW 217 2 min 0,000 mm 4,4 UV-I 758 W/m 12,4 C 31,4 C 19,3 km/h (3 Bft) 93,62 %
19.07.2017 15:20 31,6 C 25,6 C 31 % 1011,0 hPa 0,0 l/m 10,6 km/h (2 Bft) W 268 2 min 0,000 mm 3,4 UV-I 755 W/m 12,4 C 31,4 C 16,1 km/h (3 Bft) 96,00 %
19.07.2017 15:22 31,5 C 25,6 C 32 % 1010,9 hPa 0,0 l/m 8,4 km/h (2 Bft) SW 223 2 min 0,000 mm 4,4 UV-I 759 W/m 12,8 C 31,4 C 14,5 km/h (3 Bft) 92,11 %
19.07.2017 15:24 31,6 C 25,6 C 32 % 1010,9 hPa 0,0 l/m 9,1 km/h (2 Bft) SW 219 2 min 0,000 mm 4,4 UV-I 758 W/m 12,9 C 31,5 C 12,9 km/h (3 Bft) 97,87 %
19.07.2017 15:26 31,7 C 25,6 C 32 % 1010,9 hPa 0,0 l/m 9,2 km/h (2 Bft) W-SW 244 2 min 0,000 mm 4,3 UV-I 754 W/m 12,9 C 31,6 C 17,7 km/h (3 Bft) 95,83 %
19.07.2017 15:28 31,9 C 26,1 C 32 % 1010,9 hPa 0,0 l/m 12,3 km/h (3 Bft) SW 219 2 min 0,000 mm 4,3 UV-I 748 W/m 13,1 C 31,7 C 19,3 km/h (3 Bft) 95,74 %
19.07.2017 15:30 32,1 C 26,1 C 30 % 1010,8 hPa 0,0 l/m 9,2 km/h (2 Bft) W 265 2 min 0,000 mm 4,2 UV-I 741 W/m 12,3 C 32,0 C 14,5 km/h (3 Bft) 93,62 %
19.07.2017 15:32 32,0 C 26,1 C 31 % 1010,8 hPa 0,0 l/m 5,3 km/h (1 Bft) W-SW 244 2 min 0,000 mm 4,1 UV-I 735 W/m 12,7 C 32,0 C 12,9 km/h (3 Bft) 93,62 %
19.07.2017 15:34 32,1 C 26,1 C 30 % 1010,8 hPa 0,0 l/m 5,0 km/h (1 Bft) SW 221 2 min 0,000 mm 4,1 UV-I 732 W/m 12,3 C 32,1 C 14,5 km/h (3 Bft) 95,74 %
19.07.2017 15:36 31,9 C 26,1 C 30 % 1010,8 hPa 0,0 l/m 11,1 km/h (2 Bft) SW 220 2 min 0,000 mm 4,1 UV-I 731 W/m 12,1 C 31,8 C 17,7 km/h (3 Bft) 98,00 %
19.07.2017 15:38 31,8 C 26,1 C 31 % 1010,8 hPa 0,0 l/m 8,1 km/h (2 Bft) W-SW 258 2 min 0,000 mm 4,1 UV-I 729 W/m 12,6 C 31,7 C 12,9 km/h (3 Bft) 97,87 %
19.07.2017 15:40 32,1 C 26,1 C 30 % 1010,7 hPa 0,0 l/m 6,8 km/h (2 Bft) W 266 2 min 0,000 mm 4,1 UV-I 734 W/m 12,3 C 32,1 C 12,9 km/h (3 Bft) 100,00 %
19.07.2017 15:42 32,1 C 26,1 C 28 % 1010,7 hPa 0,0 l/m 7,2 km/h (2 Bft) W-SW 239 2 min 0,000 mm 4,0 UV-I 732 W/m 11,3 C 32,1 C 11,3 km/h (2 Bft) 93,62 %
19.07.2017 15:44 32,1 C 26,1 C 28 % 1010,6 hPa 0,0 l/m 8,6 km/h (2 Bft) W-SW 251 2 min 0,000 mm 4,0 UV-I 729 W/m 11,3 C 32,0 C 17,7 km/h (3 Bft) 100,00 %
19.07.2017 15:46 32,0 C 26,1 C 28 % 1010,6 hPa 0,0 l/m 7,7 km/h (2 Bft) SW 218 2 min 0,000 mm 4,0 UV-I 726 W/m 11,2 C 32,0 C 16,1 km/h (3 Bft) 97,87 %
19.07.2017 15:48 32,0 C 26,1 C 27 % 1010,6 hPa 0,0 l/m 15,7 km/h (3 Bft) W 267 2 min 0,000 mm 3,9 UV-I 724 W/m 10,6 C 31,8 C 24,1 km/h (4 Bft) 94,74 %
19.07.2017 15:50 32,0 C 26,1 C 28 % 1010,6 hPa 0,0 l/m 11,7 km/h (2 Bft) W 275 2 min 0,000 mm 3,9 UV-I 719 W/m 11,2 C 31,9 C 17,7 km/h (3 Bft) 96,00 %
19.07.2017 15:52 32,0 C 26,1 C 27 % 1010,6 hPa 0,0 l/m 15,7 km/h (3 Bft) SW 232 2 min 0,000 mm 3,8 UV-I 714 W/m 10,6 C 31,8 C 22,5 km/h (4 Bft) 95,74 %
19.07.2017 15:54 32,0 C 26,1 C 27 % 1010,6 hPa 0,0 l/m 12,4 km/h (3 Bft) W-SW 238 2 min 0,000 mm 3,8 UV-I 711 W/m 10,6 C 31,8 C 19,3 km/h (3 Bft) 97,87 %
19.07.2017 15:56 32,1 C 26,1 C 28 % 1010,6 hPa 0,0 l/m 14,1 km/h (3 Bft) W-SW 247 2 min 0,000 mm 3,8 UV-I 708 W/m 11,3 C 31,9 C 20,9 km/h (4 Bft) 100,00 %
19.07.2017 15:58 31,9 C 26,1 C 27 % 1010,6 hPa 0,0 l/m 10,0 km/h (2 Bft) W 263 2 min 0,000 mm 3,7 UV-I 704 W/m 10,5 C 31,8 C 19,3 km/h (3 Bft) 97,87 %
19.07.2017 16:00 32,1 C 26,1 C 31 % 1010,6 hPa 0,0 l/m 6,3 km/h (2 Bft) W-NW 290 2 min 0,635 mm 3,6 UV-I 702 W/m 12,8 C 32,1 C 12,9 km/h (3 Bft) 97,87 %
19.07.2017 16:02 32,1 C 26,1 C 28 % 1010,5 hPa 0,0 l/m 8,6 km/h (2 Bft) W-NW 283 2 min 0,000 mm 3,6 UV-I 696 W/m 11,3 C 32,0 C 14,5 km/h (3 Bft) 95,74 %
19.07.2017 16:04 31,9 C 26,1 C 29 % 1010,4 hPa 0,0 l/m 7,9 km/h (2 Bft) W-SW 251 2 min 0,000 mm 3,6 UV-I 692 W/m 11,6 C 31,8 C 17,7 km/h (3 Bft) 95,74 %
19.07.2017 16:06 31,9 C 26,1 C 29 % 1010,5 hPa 0,0 l/m 7,4 km/h (2 Bft) W-SW 243 2 min 0,000 mm 3,5 UV-I 686 W/m 11,6 C 31,9 C 11,3 km/h (2 Bft) 95,74 %
19.07.2017 16:08 32,0 C 26,1 C 29 % 1010,5 hPa 0,0 l/m 11,0 km/h (2 Bft) W 261 2 min 0,000 mm 3,4 UV-I 684 W/m 11,7 C 31,9 C 19,3 km/h (3 Bft) 100,00 %
19.07.2017 16:10 32,2 C 26,1 C 30 % 1010,5 hPa 0,0 l/m 11,5 km/h (2 Bft) SW 229 2 min 0,000 mm 3,4 UV-I 681 W/m 12,4 C 32,1 C 17,7 km/h (3 Bft) 95,74 %
19.07.2017 16:12 32,2 C 26,1 C 29 % 1010,5 hPa 0,0 l/m 9,2 km/h (2 Bft) N-NW 341 2 min 0,000 mm 3,4 UV-I 685 W/m 11,9 C 32,1 C 14,5 km/h (3 Bft) 97,87 %
19.07.2017 16:14 32,1 C 26,1 C 29 % 1010,5 hPa 0,0 l/m 7,1 km/h (2 Bft) W 259 2 min 0,000 mm 3,4 UV-I 686 W/m 11,8 C 32,1 C 14,5 km/h (3 Bft) 93,62 %
19.07.2017 16:16 32,1 C 26,1 C 29 % 1010,5 hPa 0,0 l/m 10,5 km/h (2 Bft) W-SW 245 2 min 0,000 mm 3,3 UV-I 680 W/m 11,8 C 32,0 C 16,1 km/h (3 Bft) 93,62 %
19.07.2017 16:18 32,2 C 26,1 C 28 % 1010,4 hPa 0,0 l/m 6,7 km/h (2 Bft) SW 230 2 min 0,000 mm 3,2 UV-I 671 W/m 11,3 C 32,2 C 12,9 km/h (3 Bft) 91,49 %
19.07.2017 16:20 32,2 C 26,1 C 29 % 1010,5 hPa 0,0 l/m 8,5 km/h (2 Bft) W 281 2 min 0,000 mm 3,2 UV-I 669 W/m 11,9 C 32,1 C 14,5 km/h (3 Bft) 97,62 %
19.07.2017 16:22 32,1 C 26,1 C 28 % 1010,4 hPa 0,0 l/m 4,8 km/h (1 Bft) NW 312 2 min 0,000 mm 3,1 UV-I 664 W/m 11,3 C 32,1 C 11,3 km/h (2 Bft) 93,62 %
19.07.2017 16:24 32,0 C 26,1 C 28 % 1010,4 hPa 0,0 l/m 3,0 km/h (1 Bft) W-SW 246 2 min 0,000 mm 3,1 UV-I 659 W/m 11,2 C 32,0 C 9,7 km/h (2 Bft) 95,74 %
19.07.2017 16:26 31,9 C 26,1 C 29 % 1010,3 hPa 0,0 l/m 12,0 km/h (2 Bft) W-SW 238 2 min 0,000 mm 3,1 UV-I 661 W/m 11,6 C 31,7 C 19,3 km/h (3 Bft) 95,74 %
19.07.2017 16:28 32,0 C 26,1 C 28 % 1010,3 hPa 0,0 l/m 6,6 km/h (2 Bft) W 261 2 min 0,000 mm 3,0 UV-I 662 W/m 11,2 C 32,0 C 11,3 km/h (2 Bft) 95,74 %
19.07.2017 16:30 32,0 C 26,1 C 28 % 1010,4 hPa 0,0 l/m 6,7 km/h (2 Bft) W-NW 292 2 min 0,000 mm 3,0 UV-I 662 W/m 11,2 C 32,0 C 12,9 km/h (3 Bft) 97,87 %
19.07.2017 16:32 31,8 C 26,1 C 28 % 1010,4 hPa 0,0 l/m 2,2 km/h (1 Bft) O-SO 123 2 min 0,000 mm 2,9 UV-I 661 W/m 11,0 C 31,8 C 4,8 km/h (1 Bft) 96,00 %
19.07.2017 16:34 31,9 C 26,1 C 30 % 1010,3 hPa 0,0 l/m 4,1 km/h (1 Bft) N-NO 24 2 min 0,000 mm 2,8 UV-I 655 W/m 12,1 C 31,9 C 6,4 km/h (2 Bft) 96,00 %
19.07.2017 16:36 32,2 C 26,1 C 28 % 1010,3 hPa 0,0 l/m 2,2 km/h (1 Bft) NW 306 2 min 0,000 mm 2,8 UV-I 653 W/m 11,3 C 32,2 C 8,0 km/h (2 Bft) 97,87 %
19.07.2017 16:38 32,3 C 26,1 C 29 % 1010,2 hPa 0,0 l/m 1,7 km/h (1 Bft) NW 304 2 min 0,000 mm 2,7 UV-I 649 W/m 12,0 C 32,3 C 3,2 km/h (1 Bft) 95,74 %
19.07.2017 16:40 32,4 C 26,1 C 29 % 1010,2 hPa 0,0 l/m 5,4 km/h (1 Bft) S-SW 209 2 min 0,000 mm 2,7 UV-I 650 W/m 12,1 C 32,4 C 11,3 km/h (2 Bft) 97,30 %
19.07.2017 16:42 32,4 C 26,1 C 29 % 1010,2 hPa 0,0 l/m 2,5 km/h (1 Bft) S-SW 196 2 min 0,000 mm 2,7 UV-I 651 W/m 12,1 C 32,4 C 9,7 km/h (2 Bft) 93,62 %
19.07.2017 16:44 32,3 C 26,1 C 29 % 1010,2 hPa 0,0 l/m 2,0 km/h (1 Bft) S-SO 162 2 min 0,000 mm 2,6 UV-I 666 W/m 12,0 C 32,3 C 4,8 km/h (1 Bft) 91,49 %
19.07.2017 16:46 32,3 C 26,1 C 29 % 1010,2 hPa 0,0 l/m 4,9 km/h (1 Bft) W-SW 257 2 min 0,000 mm 2,6 UV-I 652 W/m 12,0 C 32,3 C 14,5 km/h (3 Bft) 92,00 %
19.07.2017 16:48 32,3 C 26,1 C 29 % 1010,1 hPa 0,0 l/m 11,1 km/h (2 Bft) SW 224 2 min 0,000 mm 2,5 UV-I 644 W/m 12,0 C 32,2 C 17,7 km/h (3 Bft) 95,74 %
19.07.2017 16:50 32,3 C 26,1 C 30 % 1010,1 hPa 0,0 l/m 10,0 km/h (2 Bft) W 267 2 min 0,000 mm 2,5 UV-I 639 W/m 12,5 C 32,2 C 16,1 km/h (3 Bft) 97,87 %
19.07.2017 16:52 32,3 C 26,1 C 29 % 1010,1 hPa 0,0 l/m 11,4 km/h (2 Bft) SW 225 2 min 0,000 mm 2,5 UV-I 642 W/m 12,0 C 32,2 C 17,7 km/h (3 Bft) 95,74 %
19.07.2017 16:54 32,2 C 26,1 C 29 % 1010,1 hPa 0,0 l/m 5,4 km/h (1 Bft) W-SW 257 2 min 0,000 mm 1,9 UV-I 642 W/m 11,9 C 32,2 C 11,3 km/h (2 Bft) 95,74 %
19.07.2017 16:56 32,1 C 26,1 C 30 % 1010,1 hPa 0,0 l/m 4,5 km/h (1 Bft) W-SW 254 0 min 0,000 mm 1,9 UV-I 279 W/m 12,3 C 32,1 C 11,3 km/h (2 Bft) 93,62 %
19.07.2017 16:58 32,1 C 26,1 C 29 % 1010,1 hPa 0,0 l/m 7,4 km/h (2 Bft) W-SW 244 2 min 0,000 mm 2,1 UV-I 618 W/m 11,8 C 32,1 C 9,7 km/h (2 Bft) 93,62 %
19.07.2017 17:00 32,1 C 26,1 C 29 % 1010,0 hPa 0,0 l/m 2,5 km/h (1 Bft) SW 219 2 min 0,533 mm 2,1 UV-I 622 W/m 11,8 C 32,1 C 8,0 km/h (2 Bft) 96,23 %
19.07.2017 17:02 32,0 C 26,1 C 29 % 1010,0 hPa 0,0 l/m 8,7 km/h (2 Bft) W 261 0 min 0,000 mm 1,5 UV-I 215 W/m 11,7 C 31,9 C 14,5 km/h (3 Bft) 97,83 %
19.07.2017 17:04 31,8 C 26,1 C 30 % 1010,0 hPa 0,0 l/m 9,5 km/h (2 Bft) W-SW 238 0 min 0,000 mm 1,6 UV-I 170 W/m 12,1 C 31,7 C 14,5 km/h (3 Bft) 94,87 %
19.07.2017 17:06 31,6 C 26,1 C 33 % 1010,0 hPa 0,0 l/m 1,6 km/h (1 Bft) SW 225 0 min 0,000 mm 1,7 UV-I 198 W/m 13,3 C 31,6 C 4,8 km/h (1 Bft) 97,87 %
19.07.2017 17:08 31,7 C 26,1 C 32 % 1010,0 hPa 0,0 l/m 0,9 km/h (0 Bft) SW 230 0 min 0,000 mm 1,6 UV-I 208 W/m 12,9 C 31,7 C 1,6 km/h (1 Bft) 93,62 %
19.07.2017 17:10 31,7 C 26,1 C 31 % 1010,0 hPa 0,0 l/m 2,3 km/h (1 Bft) SW 220 0 min 0,000 mm 1,7 UV-I 196 W/m 12,5 C 31,7 C 4,8 km/h (1 Bft) 94,23 %
19.07.2017 17:12 31,6 C 26,1 C 31 % 1010,0 hPa 0,0 l/m 5,7 km/h (1 Bft) SW 225 0 min 0,000 mm 1,5 UV-I 149 W/m 12,4 C 31,6 C 9,7 km/h (2 Bft) 93,62 %
19.07.2017 17:14 31,5 C 26,1 C 31 % 1010,0 hPa 0,0 l/m 3,8 km/h (1 Bft) W 279 2 min 0,000 mm 1,9 UV-I 357 W/m 12,3 C 31,5 C 9,7 km/h (2 Bft) 93,62 %
19.07.2017 17:16 31,7 C 26,1 C 31 % 1010,0 hPa 0,0 l/m 3,0 km/h (1 Bft) W-NW 301 2 min 0,000 mm 1,9 UV-I 564 W/m 12,5 C 31,7 C 4,8 km/h (1 Bft) 95,74 %
19.07.2017 17:18 31,9 C 26,1 C 30 % 1009,9 hPa 0,0 l/m 1,6 km/h (1 Bft) NW 309 2 min 0,000 mm 1,9 UV-I 550 W/m 12,1 C 31,9 C 3,2 km/h (1 Bft) 94,74 %
19.07.2017 17:20 32,1 C 26,1 C 29 % 1009,9 hPa 0,0 l/m 2,7 km/h (1 Bft) S-SW 205 2 min 0,000 mm 1,8 UV-I 520 W/m 11,8 C 32,1 C 8,0 km/h (2 Bft) 95,92 %
19.07.2017 17:22 32,0 C 26,1 C 30 % 1009,9 hPa 0,0 l/m 3,5 km/h (1 Bft) SW 228 2 min 0,000 mm 1,5 UV-I 536 W/m 12,2 C 32,0 C 11,3 km/h (2 Bft) 96,00 %
19.07.2017 17:24 32,1 C 26,1 C 29 % 1009,8 hPa 0,0 l/m 3,6 km/h (1 Bft) NW 325 2 min 0,000 mm 1,8 UV-I 536 W/m 11,8 C 32,1 C 8,0 km/h (2 Bft) 91,49 %
19.07.2017 17:26 32,2 C 26,1 C 29 % 1009,8 hPa 0,0 l/m 4,4 km/h (1 Bft) W-NW 295 2 min 0,000 mm 1,8 UV-I 531 W/m 11,9 C 32,2 C 11,3 km/h (2 Bft) 95,74 %
19.07.2017 17:28 32,2 C 26,1 C 29 % 1009,8 hPa 0,0 l/m 2,0 km/h (1 Bft) W-NW 301 2 min 0,000 mm 1,8 UV-I 524 W/m 11,9 C 32,2 C 6,4 km/h (2 Bft) 95,74 %
19.07.2017 17:30 32,2 C 26,1 C 30 % 1009,8 hPa 0,0 l/m 1,6 km/h (1 Bft) NW 319 2 min 0,000 mm 1,7 UV-I 510 W/m 12,4 C 32,2 C 3,2 km/h (1 Bft) 95,74 %
19.07.2017 17:32 32,2 C 26,1 C 29 % 1009,8 hPa 0,0 l/m 6,0 km/h (2 Bft) W-SW 242 2 min 0,000 mm 1,6 UV-I 493 W/m 11,9 C 32,2 C 11,3 km/h (2 Bft) 95,74 %
19.07.2017 17:34 32,1 C 26,1 C 29 % 1009,8 hPa 0,0 l/m 6,1 km/h (2 Bft) NW 323 2 min 0,000 mm 1,6 UV-I 484 W/m 11,8 C 32,1 C 11,3 km/h (2 Bft) 97,87 %
19.07.2017 17:36 32,0 C 26,1 C 29 % 1009,8 hPa 0,0 l/m 2,7 km/h (1 Bft) W 273 2 min 0,000 mm 1,6 UV-I 478 W/m 11,7 C 32,0 C 6,4 km/h (2 Bft) 95,74 %
19.07.2017 17:38 31,9 C 26,1 C 29 % 1009,7 hPa 0,0 l/m 6,3 km/h (2 Bft) W-NW 293 2 min 0,000 mm 1,5 UV-I 471 W/m 11,6 C 31,9 C 12,9 km/h (3 Bft) 95,74 %
19.07.2017 17:40 31,9 C 26,1 C 29 % 1009,7 hPa 0,0 l/m 4,8 km/h (1 Bft) W-SW 246 2 min 0,000 mm 1,5 UV-I 460 W/m 11,6 C 31,9 C 12,9 km/h (3 Bft) 95,83 %
19.07.2017 17:42 32,1 C 26,1 C 30 % 1009,8 hPa 0,0 l/m 1,6 km/h (1 Bft) N-NO 13 2 min 0,000 mm 1,4 UV-I 450 W/m 12,3 C 32,1 C 3,2 km/h (1 Bft) 97,87 %
19.07.2017 17:44 32,3 C 26,1 C 29 % 1009,8 hPa 0,0 l/m 3,1 km/h (1 Bft) W-SW 254 2 min 0,000 mm 1,4 UV-I 436 W/m 12,0 C 32,3 C 4,8 km/h (1 Bft) 95,74 %
19.07.2017 17:46 32,3 C 26,1 C 30 % 1009,8 hPa 0,0 l/m 1,6 km/h (1 Bft) W-SW 254 2 min 0,000 mm 1,4 UV-I 448 W/m 12,5 C 32,3 C 4,8 km/h (1 Bft) 97,87 %
19.07.2017 17:48 32,5 C 26,1 C 29 % 1009,8 hPa 0,0 l/m 2,9 km/h (1 Bft) NW 317 2 min 0,000 mm 1,3 UV-I 448 W/m 12,1 C 32,5 C 6,4 km/h (2 Bft) 97,96 %
19.07.2017 17:50 32,6 C 26,1 C 29 % 1009,8 hPa 0,0 l/m 3,0 km/h (1 Bft) N-NW 338 2 min 0,000 mm 1,3 UV-I 452 W/m 12,2 C 32,6 C 4,8 km/h (1 Bft) 97,87 %
19.07.2017 17:52 32,4 C 26,1 C 28 % 1009,9 hPa 0,0 l/m 4,6 km/h (1 Bft) N-NW 339 2 min 0,000 mm 1,3 UV-I 450 W/m 11,5 C 32,4 C 9,7 km/h (2 Bft) 93,62 %
19.07.2017 17:54 32,3 C 26,1 C 29 % 1009,9 hPa 0,0 l/m 6,7 km/h (2 Bft) W 263 2 min 0,000 mm 1,2 UV-I 449 W/m 12,0 C 32,3 C 12,9 km/h (3 Bft) 100,00 %
19.07.2017 17:56 32,2 C 26,1 C 29 % 1009,9 hPa 0,0 l/m 4,3 km/h (1 Bft) NW 323 2 min 0,000 mm 1,1 UV-I 445 W/m 11,9 C 32,2 C 6,4 km/h (2 Bft) 97,87 %
19.07.2017 17:58 32,2 C 26,1 C 30 % 1009,9 hPa 0,0 l/m 1,7 km/h (1 Bft) N 355 2 min 0,000 mm 1,0 UV-I 441 W/m 12,4 C 32,2 C 4,8 km/h (1 Bft) 97,87 %
19.07.2017 18:00 32,1 C 26,1 C 31 % 1009,9 hPa 0,0 l/m 0,9 km/h (0 Bft) O-SO 123 0 min 0,331 mm 0,8 UV-I 172 W/m 12,8 C 32,1 C 1,6 km/h (1 Bft) 97,87 %
19.07.2017 18:02 31,9 C 26,1 C 30 % 1010,0 hPa 0,0 l/m 2,1 km/h (1 Bft) W 275 0 min 0,000 mm 0,8 UV-I 133 W/m 12,1 C 31,9 C 6,4 km/h (2 Bft) 97,14 %
19.07.2017 18:04 31,7 C 26,1 C 30 % 1009,9 hPa 0,0 l/m 0,4 km/h (0 Bft) W 275 0 min 0,000 mm 0,8 UV-I 131 W/m 12,0 C 31,7 C 1,6 km/h (1 Bft) 97,87 %
19.07.2017 18:06 31,5 C 26,1 C 30 % 1009,9 hPa 0,0 l/m 0,6 km/h (0 Bft) W 275 0 min 0,000 mm 0,8 UV-I 128 W/m 11,8 C 31,5 C 1,6 km/h (1 Bft) 98,00 %
19.07.2017 18:08 31,3 C 26,1 C 30 % 1009,9 hPa 0,0 l/m 1,4 km/h (1 Bft) W 275 0 min 0,000 mm 0,8 UV-I 135 W/m 11,6 C 31,3 C 3,2 km/h (1 Bft) 97,87 %
19.07.2017 18:10 31,2 C 26,1 C 31 % 1009,9 hPa 0,0 l/m 1,4 km/h (1 Bft) W 275 0 min 0,000 mm 0,8 UV-I 130 W/m 12,0 C 31,2 C 3,2 km/h (1 Bft) 91,49 %
19.07.2017 18:12 31,1 C 26,1 C 32 % 1009,9 hPa 0,0 l/m 1,5 km/h (1 Bft) W 275 0 min 0,000 mm 0,8 UV-I 130 W/m 12,4 C 31,1 C 3,2 km/h (1 Bft) 100,00 %
19.07.2017 18:14 30,9 C 26,1 C 32 % 1009,9 hPa 0,0 l/m 0,2 km/h (0 Bft) W 275 0 min 0,000 mm 0,3 UV-I 135 W/m 12,3 C 30,9 C 1,6 km/h (1 Bft) 98,00 %
19.07.2017 18:16 30,9 C 26,1 C 31 % 1009,9 hPa 0,0 l/m 2,4 km/h (1 Bft) NW 306 0 min 0,000 mm 0,8 UV-I 217 W/m 11,8 C 30,9 C 4,8 km/h (1 Bft) 97,87 %
19.07.2017 18:18 30,9 C 26,1 C 31 % 1009,9 hPa 0,0 l/m 1,0 km/h (0 Bft) NW 304 2 min 0,000 mm 0,9 UV-I 393 W/m 11,8 C 30,9 C 4,8 km/h (1 Bft) 93,62 %
19.07.2017 18:20 31,1 C 26,1 C 31 % 1009,9 hPa 0,0 l/m 1,4 km/h (1 Bft) NW 304 2 min 0,000 mm 0,8 UV-I 250 W/m 11,9 C 31,1 C 3,2 km/h (1 Bft) 95,83 %
19.07.2017 18:22 31,1 C 26,1 C 31 % 1009,9 hPa 0,0 l/m 0,8 km/h (0 Bft) NW 305 0 min 0,000 mm 0,7 UV-I 123 W/m 11,9 C 31,1 C 1,6 km/h (1 Bft) 97,87 %
19.07.2017 18:24 31,1 C 26,1 C 31 % 1009,9 hPa 0,0 l/m 2,2 km/h (1 Bft) NW 305 0 min 0,000 mm 0,7 UV-I 117 W/m 11,9 C 31,1 C 4,8 km/h (1 Bft) 100,00 %
19.07.2017 18:26 30,9 C 26,1 C 32 % 1009,9 hPa 0,0 l/m 1,4 km/h (1 Bft) NW 305 0 min 0,000 mm 0,6 UV-I 118 W/m 12,3 C 30,9 C 3,2 km/h (1 Bft) 97,92 %
19.07.2017 18:28 30,8 C 26,1 C 31 % 1009,9 hPa 0,0 l/m 0,5 km/h (0 Bft) NW 305 0 min 0,000 mm 0,6 UV-I 122 W/m 11,7 C 30,8 C 3,2 km/h (1 Bft) 95,74 %
19.07.2017 18:30 30,7 C 26,1 C 32 % 1009,9 hPa 0,0 l/m 0,9 km/h (0 Bft) NW 305 0 min 0,000 mm 0,6 UV-I 127 W/m 12,1 C 30,7 C 3,2 km/h (1 Bft) 100,00 %
19.07.2017 18:32 30,7 C 26,1 C 32 % 1009,9 hPa 0,0 l/m 0,0 km/h (0 Bft) NW 305 0 min 0,000 mm 0,6 UV-I 130 W/m 12,1 C 30,7 C 1,6 km/h (1 Bft) 95,74 %
19.07.2017 18:34 30,7 C 26,1 C 32 % 1009,9 hPa 0,0 l/m 0,0 km/h (0 Bft) NW 305 0 min 0,000 mm 0,3 UV-I 132 W/m 12,1 C 30,7 C 1,6 km/h (1 Bft) 97,14 %
19.07.2017 18:36 30,7 C 26,1 C 31 % 1010,0 hPa 0,0 l/m 0,0 km/h (0 Bft) NW 305 0 min 0,000 mm 0,5 UV-I 134 W/m 11,6 C 30,7 C 0,0 km/h (0 Bft) 98,00 %
19.07.2017 18:38 30,7 C 26,1 C 33 % 1009,9 hPa 0,0 l/m 0,7 km/h (0 Bft) NW 305 2 min 0,000 mm 0,6 UV-I 216 W/m 12,6 C 30,7 C 1,6 km/h (1 Bft) 96,00 %
19.07.2017 18:40 30,9 C 26,1 C 35 % 1010,0 hPa 0,0 l/m 0,1 km/h (0 Bft) NW 305 2 min 0,000 mm 0,6 UV-I 344 W/m 13,6 C 30,9 C 1,6 km/h (1 Bft) 97,87 %
19.07.2017 18:42 31,0 C 26,1 C 31 % 1010,0 hPa 0,0 l/m 0,9 km/h (0 Bft) NW 305 2 min 0,000 mm 0,5 UV-I 319 W/m 11,9 C 31,0 C 3,2 km/h (1 Bft) 91,49 %
19.07.2017 18:44 31,1 C 26,1 C 33 % 1009,9 hPa 0,0 l/m 2,2 km/h (1 Bft) NW 310 2 min 0,000 mm 0,5 UV-I 308 W/m 12,9 C 31,1 C 4,8 km/h (1 Bft) 91,49 %
19.07.2017 18:46 31,3 C 26,1 C 30 % 1009,9 hPa 0,0 l/m 0,7 km/h (0 Bft) NW 311 2 min 0,000 mm 0,5 UV-I 315 W/m 11,6 C 31,3 C 1,6 km/h (1 Bft) 97,87 %
19.07.2017 18:48 31,5 C 26,1 C 30 % 1009,9 hPa 0,0 l/m 4,1 km/h (1 Bft) O-NO 59 2 min 0,000 mm 0,5 UV-I 318 W/m 11,8 C 31,5 C 6,4 km/h (2 Bft) 95,74 %
19.07.2017 18:50 31,6 C 26,1 C 31 % 1009,9 hPa 0,0 l/m 4,9 km/h (1 Bft) N-NO 20 2 min 0,000 mm 0,0 UV-I 289 W/m 12,4 C 31,6 C 8,0 km/h (2 Bft) 93,62 %
19.07.2017 18:52 31,7 C 26,1 C 30 % 1010,0 hPa 0,0 l/m 4,1 km/h (1 Bft) NO 38 2 min 0,000 mm 0,0 UV-I 284 W/m 12,0 C 31,7 C 11,3 km/h (2 Bft) 97,87 %
19.07.2017 18:54 31,7 C 26,1 C 30 % 1010,2 hPa 0,0 l/m 13,2 km/h (3 Bft) O-NO 66 2 min 0,000 mm 0,0 UV-I 279 W/m 12,0 C 31,5 C 19,3 km/h (3 Bft) 91,49 %
19.07.2017 18:56 31,5 C 26,1 C 33 % 1010,3 hPa 0,0 l/m 27,0 km/h (4 Bft) NO 51 2 min 0,000 mm 0,0 UV-I 287 W/m 13,2 C 30,9 C 37,0 km/h (5 Bft) 89,58 %
19.07.2017 18:58 30,9 C 26,1 C 34 % 1010,3 hPa 0,0 l/m 26,7 km/h (4 Bft) O-NO 60 2 min 0,000 mm 0,0 UV-I 292 W/m 13,2 C 30,1 C 41,8 km/h (6 Bft) 91,49 %
19.07.2017 19:00 30,3 C 26,1 C 35 % 1010,3 hPa 0,0 l/m 27,5 km/h (4 Bft) O-NO 60 2 min 0,203 mm 0,0 UV-I 291 W/m 13,1 C 29,3 C 40,2 km/h (6 Bft) 90,00 %
19.07.2017 19:02 29,8 C 26,1 C 36 % 1010,5 hPa 0,0 l/m 20,9 km/h (4 Bft) NO 53 2 min 0,000 mm 0,0 UV-I 274 W/m 13,1 C 28,8 C 30,6 km/h (5 Bft) 95,74 %
19.07.2017 19:04 29,3 C 26,1 C 38 % 1010,3 hPa 0,0 l/m 17,9 km/h (3 Bft) O-NO 66 2 min 0,000 mm 0,0 UV-I 265 W/m 13,5 C 28,3 C 33,8 km/h (5 Bft) 93,62 %
19.07.2017 19:06 28,8 C 26,1 C 39 % 1010,3 hPa 0,0 l/m 26,5 km/h (4 Bft) O-NO 67 2 min 0,000 mm 0,0 UV-I 254 W/m 13,4 C 27,2 C 37,0 km/h (5 Bft) 97,37 %
19.07.2017 19:08 28,3 C 26,1 C 40 % 1010,5 hPa 0,0 l/m 24,7 km/h (4 Bft) NO 39 2 min 0,000 mm 0,0 UV-I 229 W/m 13,4 C 26,6 C 30,6 km/h (5 Bft) 95,74 %
19.07.2017 19:10 27,9 C 26,1 C 41 % 1010,5 hPa 0,0 l/m 22,0 km/h (4 Bft) NO 34 2 min 0,000 mm 0,0 UV-I 149 W/m 13,4 C 26,3 C 38,6 km/h (5 Bft) 95,74 %
19.07.2017 19:12 27,5 C 26,1 C 42 % 1010,5 hPa 0,0 l/m 26,3 km/h (4 Bft) NO 47 2 min 0,000 mm 0,0 UV-I 148 W/m 13,4 C 25,5 C 33,8 km/h (5 Bft) 96,00 %
19.07.2017 19:14 27,3 C 26,1 C 43 % 1010,4 hPa 0,0 l/m 22,4 km/h (4 Bft) NO 55 2 min 0,000 mm 0,0 UV-I 212 W/m 13,6 C 25,5 C 30,6 km/h (5 Bft) 93,62 %
19.07.2017 19:16 27,2 C 26,1 C 43 % 1010,6 hPa 0,0 l/m 20,2 km/h (4 Bft) NO 52 2 min 0,000 mm 0,0 UV-I 208 W/m 13,5 C 25,5 C 25,7 km/h (4 Bft) 95,74 %
19.07.2017 19:18 27,1 C 26,1 C 43 % 1010,5 hPa 0,0 l/m 16,9 km/h (3 Bft) O-NO 76 2 min 0,000 mm 0,0 UV-I 203 W/m 13,4 C 25,7 C 24,1 km/h (4 Bft) 95,74 %
19.07.2017 19:20 26,9 C 26,1 C 43 % 1010,6 hPa 0,0 l/m 22,0 km/h (4 Bft) O-NO 61 2 min 0,000 mm 0,0 UV-I 198 W/m 13,2 C 25,0 C 38,6 km/h (5 Bft) 93,62 %
19.07.2017 19:22 26,8 C 26,1 C 43 % 1010,5 hPa 0,0 l/m 26,1 km/h (4 Bft) NO 55 2 min 0,000 mm 0,0 UV-I 193 W/m 13,2 C 24,5 C 35,4 km/h (5 Bft) 97,56 %
19.07.2017 19:24 26,7 C 26,1 C 43 % 1010,6 hPa 0,0 l/m 25,8 km/h (4 Bft) O-NO 57 2 min 0,000 mm 0,0 UV-I 182 W/m 13,1 C 24,4 C 38,6 km/h (5 Bft) 93,62 %
19.07.2017 19:26 26,6 C 26,1 C 43 % 1010,5 hPa 0,0 l/m 24,9 km/h (4 Bft) O 80 2 min 0,000 mm 0,0 UV-I 173 W/m 13,0 C 24,3 C 38,6 km/h (5 Bft) 95,74 %
19.07.2017 19:28 26,4 C 26,1 C 43 % 1010,5 hPa 0,0 l/m 23,5 km/h (4 Bft) O-NO 74 2 min 0,000 mm 0,0 UV-I 163 W/m 12,8 C 24,2 C 33,8 km/h (5 Bft) 95,74 %
19.07.2017 19:30 26,3 C 26,1 C 44 % 1010,6 hPa 0,0 l/m 25,9 km/h (4 Bft) NO 46 2 min 0,000 mm 0,0 UV-I 153 W/m 13,1 C 23,9 C 38,6 km/h (5 Bft) 97,87 %
19.07.2017 19:32 26,2 C 26,1 C 44 % 1010,5 hPa 0,0 l/m 21,9 km/h (4 Bft) O 86 2 min 0,000 mm 0,0 UV-I 146 W/m 13,0 C 24,0 C 32,2 km/h (5 Bft) 95,74 %
19.07.2017 19:34 26,2 C 26,1 C 44 % 1010,5 hPa 0,0 l/m 19,3 km/h (3 Bft) O-NO 73 2 min 0,000 mm 0,0 UV-I 139 W/m 13,0 C 24,3 C 27,4 km/h (4 Bft) 95,83 %
19.07.2017 19:36 26,1 C 26,1 C 44 % 1010,5 hPa 0,0 l/m 19,6 km/h (3 Bft) O 99 2 min 0,000 mm 0,0 UV-I 132 W/m 12,9 C 24,1 C 29,0 km/h (5 Bft) 97,87 %
19.07.2017 19:38 26,1 C 26,1 C 44 % 1010,5 hPa 0,0 l/m 18,1 km/h (3 Bft) O-NO 69 2 min 0,000 mm 0,0 UV-I 125 W/m 12,9 C 24,3 C 27,4 km/h (4 Bft) 95,74 %
19.07.2017 19:40 25,9 C 26,1 C 44 % 1010,5 hPa 0,0 l/m 23,6 km/h (4 Bft) O-NO 70 2 min 0,000 mm 0,0 UV-I 119 W/m 12,7 C 23,5 C 32,2 km/h (5 Bft) 96,00 %
19.07.2017 19:42 25,8 C 26,1 C 45 % 1010,5 hPa 0,0 l/m 19,5 km/h (3 Bft) O-NO 67 2 min 0,000 mm 0,0 UV-I 113 W/m 13,0 C 23,8 C 25,7 km/h (4 Bft) 95,74 %
19.07.2017 19:44 25,7 C 26,1 C 45 % 1010,5 hPa 0,0 l/m 17,5 km/h (3 Bft) NO 38 2 min 0,000 mm 0,0 UV-I 109 W/m 12,9 C 23,8 C 24,1 km/h (4 Bft) 95,74 %
19.07.2017 19:46 25,6 C 26,1 C 44 % 1010,5 hPa 0,0 l/m 22,5 km/h (4 Bft) O-NO 71 2 min 0,000 mm 0,0 UV-I 104 W/m 12,4 C 23,2 C 32,2 km/h (5 Bft) 97,87 %
19.07.2017 19:48 25,5 C 26,1 C 45 % 1010,5 hPa 0,0 l/m 21,4 km/h (4 Bft) O-NO 69 2 min 0,000 mm 0,0 UV-I 99 W/m 12,7 C 23,2 C 30,6 km/h (5 Bft) 95,74 %
19.07.2017 19:50 25,3 C 26,1 C 45 % 1010,5 hPa 0,0 l/m 17,5 km/h (3 Bft) O-SO 110 2 min 0,000 mm 0,0 UV-I 95 W/m 12,5 C 23,3 C 29,0 km/h (5 Bft) 95,74 %
19.07.2017 19:52 25,2 C 26,1 C 46 % 1010,5 hPa 0,0 l/m 15,7 km/h (3 Bft) O-NO 71 2 min 0,000 mm 0,0 UV-I 91 W/m 12,7 C 23,5 C 20,9 km/h (4 Bft) 93,88 %
19.07.2017 19:54 25,1 C 26,1 C 47 % 1010,6 hPa 0,0 l/m 17,4 km/h (3 Bft) O-NO 61 2 min 0,000 mm 0,0 UV-I 87 W/m 13,0 C 23,1 C 24,1 km/h (4 Bft) 95,74 %
19.07.2017 19:56 25,0 C 26,1 C 48 % 1010,6 hPa 0,0 l/m 16,6 km/h (3 Bft) O 82 2 min 0,000 mm 0,0 UV-I 83 W/m 13,2 C 23,1 C 29,0 km/h (5 Bft) 93,62 %
19.07.2017 19:58 24,9 C 26,1 C 48 % 1010,4 hPa 0,0 l/m 18,1 km/h (3 Bft) O-NO 70 2 min 0,000 mm 0,0 UV-I 78 W/m 13,1 C 22,8 C 24,1 km/h (4 Bft) 95,74 %
19.07.2017 20:00 24,8 C 26,1 C 48 % 1010,4 hPa 0,0 l/m 18,7 km/h (3 Bft) O 89 2 min 0,000 mm 0,0 UV-I 74 W/m 13,0 C 22,6 C 25,7 km/h (4 Bft) 95,74 %
19.07.2017 20:02 24,8 C 26,1 C 49 % 1010,4 hPa 0,0 l/m 16,7 km/h (3 Bft) NO 53 2 min 0,305 mm 0,0 UV-I 70 W/m 13,3 C 22,8 C 22,5 km/h (4 Bft) 95,74 %
19.07.2017 20:04 24,7 C 26,1 C 49 % 1010,4 hPa 0,0 l/m 15,5 km/h (3 Bft) NO 45 2 min 0,000 mm 0,0 UV-I 66 W/m 13,3 C 22,9 C 22,5 km/h (4 Bft) 93,62 %
19.07.2017 20:06 24,6 C 26,1 C 49 % 1010,4 hPa 0,0 l/m 17,4 km/h (3 Bft) O 99 2 min 0,000 mm 0,0 UV-I 62 W/m 13,2 C 22,5 C 22,5 km/h (4 Bft) 93,62 %
19.07.2017 20:08 24,6 C 26,1 C 49 % 1010,5 hPa 0,0 l/m 17,4 km/h (3 Bft) O-NO 68 2 min 0,000 mm 0,0 UV-I 58 W/m 13,2 C 22,5 C 25,7 km/h (4 Bft) 95,74 %
19.07.2017 20:10 24,4 C 26,1 C 49 % 1010,4 hPa 0,0 l/m 18,7 km/h (3 Bft) O-NO 71 0 min 0,000 mm 0,0 UV-I 55 W/m 13,0 C 22,1 C 25,7 km/h (4 Bft) 95,74 %
19.07.2017 20:12 24,3 C 26,1 C 50 % 1010,3 hPa 0,0 l/m 15,5 km/h (3 Bft) O-NO 69 0 min 0,000 mm 0,0 UV-I 51 W/m 13,2 C 22,4 C 22,5 km/h (4 Bft) 97,22 %
19.07.2017 20:14 24,3 C 26,1 C 50 % 1010,3 hPa 0,0 l/m 15,9 km/h (3 Bft) O-NO 57 0 min 0,000 mm 0,0 UV-I 48 W/m 13,2 C 22,3 C 25,7 km/h (4 Bft) 94,23 %
19.07.2017 20:16 24,2 C 26,1 C 50 % 1010,3 hPa 0,0 l/m 18,3 km/h (3 Bft) O 79 0 min 0,000 mm 0,0 UV-I 45 W/m 13,1 C 21,9 C 24,1 km/h (4 Bft) 97,92 %
19.07.2017 20:18 24,2 C 26,1 C 50 % 1010,2 hPa 0,0 l/m 17,4 km/h (3 Bft) O 87 0 min 0,000 mm 0,0 UV-I 42 W/m 13,1 C 22,0 C 25,7 km/h (4 Bft) 95,74 %
19.07.2017 20:20 24,1 C 26,1 C 50 % 1010,3 hPa 0,0 l/m 15,7 km/h (3 Bft) O-NO 70 0 min 0,000 mm 0,0 UV-I 40 W/m 13,0 C 22,1 C 22,5 km/h (4 Bft) 97,87 %
19.07.2017 20:22 24,1 C 26,1 C 50 % 1010,2 hPa 0,0 l/m 13,2 km/h (3 Bft) O-NO 74 0 min 0,000 mm 0,0 UV-I 37 W/m 13,0 C 22,5 C 17,7 km/h (3 Bft) 95,74 %
19.07.2017 20:24 23,9 C 26,1 C 51 % 1010,2 hPa 0,0 l/m 13,3 km/h (3 Bft) O 86 0 min 0,000 mm 0,0 UV-I 34 W/m 13,1 C 22,3 C 20,9 km/h (4 Bft) 95,74 %
19.07.2017 20:26 23,9 C 26,1 C 51 % 1010,2 hPa 0,0 l/m 10,0 km/h (2 Bft) O-NO 67 0 min 0,000 mm 0,0 UV-I 31 W/m 13,1 C 22,9 C 16,1 km/h (3 Bft) 98,00 %
19.07.2017 20:28 23,8 C 26,1 C 52 % 1010,2 hPa 0,0 l/m 8,8 km/h (2 Bft) O-NO 65 0 min 0,000 mm 0,0 UV-I 29 W/m 13,3 C 23,1 C 14,5 km/h (3 Bft) 93,62 %
19.07.2017 20:30 23,8 C 26,1 C 52 % 1010,1 hPa 0,0 l/m 10,2 km/h (2 Bft) O 80 0 min 0,000 mm 0,0 UV-I 26 W/m 13,3 C 22,8 C 17,7 km/h (3 Bft) 97,87 %
19.07.2017 20:32 23,7 C 26,1 C 52 % 1010,1 hPa 0,0 l/m 11,4 km/h (2 Bft) O-NO 74 2 min 0,000 mm 0,0 UV-I 25 W/m 13,2 C 22,4 C 20,9 km/h (4 Bft) 93,62 %
19.07.2017 20:34 23,7 C 26,1 C 53 % 1010,1 hPa 0,0 l/m 10,7 km/h (2 Bft) NO 50 2 min 0,000 mm 0,0 UV-I 22 W/m 13,5 C 22,6 C 19,3 km/h (3 Bft) 92,11 %
19.07.2017 20:36 23,7 C 26,1 C 53 % 1010,0 hPa 0,0 l/m 10,3 km/h (2 Bft) O-NO 72 2 min 0,000 mm 0,0 UV-I 19 W/m 13,5 C 22,7 C 14,5 km/h (3 Bft) 95,92 %
19.07.2017 20:38 23,6 C 26,1 C 53 % 1010,0 hPa 0,0 l/m 11,9 km/h (2 Bft) O-NO 70 2 min 0,000 mm 0,0 UV-I 17 W/m 13,4 C 22,2 C 17,7 km/h (3 Bft) 94,00 %
19.07.2017 20:40 23,6 C 26,1 C 53 % 1010,0 hPa 0,0 l/m 11,6 km/h (2 Bft) O 80 2 min 0,000 mm 0,0 UV-I 16 W/m 13,4 C 22,3 C 16,1 km/h (3 Bft) 94,00 %
19.07.2017 20:42 23,5 C 26,1 C 54 % 1010,0 hPa 0,0 l/m 10,8 km/h (2 Bft) O 84 2 min 0,000 mm 0,0 UV-I 15 W/m 13,6 C 22,3 C 17,7 km/h (3 Bft) 95,74 %
19.07.2017 20:44 23,4 C 26,1 C 54 % 1010,0 hPa 0,0 l/m 9,5 km/h (2 Bft) O-NO 76 0 min 0,000 mm 0,0 UV-I 14 W/m 13,6 C 22,5 C 12,9 km/h (3 Bft) 97,87 %
19.07.2017 20:46 23,4 C 26,1 C 54 % 1010,0 hPa 0,0 l/m 8,1 km/h (2 Bft) NO 46 0 min 0,000 mm 0,0 UV-I 12 W/m 13,6 C 22,9 C 12,9 km/h (3 Bft) 93,62 %
19.07.2017 20:48 23,4 C 26,1 C 54 % 1010,0 hPa 0,0 l/m 8,1 km/h (2 Bft) O-NO 75 0 min 0,000 mm 0,0 UV-I 11 W/m 13,6 C 22,9 C 12,9 km/h (3 Bft) 94,29 %
19.07.2017 20:50 23,4 C 26,1 C 55 % 1010,0 hPa 0,0 l/m 6,4 km/h (2 Bft) O-NO 63 0 min 0,000 mm 0,0 UV-I 10 W/m 13,8 C 23,4 C 11,3 km/h (2 Bft) 96,00 %
19.07.2017 20:52 23,3 C 25,6 C 55 % 1010,0 hPa 0,0 l/m 7,2 km/h (2 Bft) O-NO 64 0 min 0,000 mm 0,0 UV-I 9 W/m 13,7 C 23,1 C 11,3 km/h (2 Bft) 97,92 %
19.07.2017 20:54 23,2 C 25,6 C 56 % 1010,0 hPa 0,0 l/m 6,0 km/h (2 Bft) O-NO 58 0 min 0,000 mm 0,0 UV-I 8 W/m 13,9 C 23,2 C 9,7 km/h (2 Bft) 95,74 %
19.07.2017 20:56 23,1 C 25,6 C 56 % 1010,0 hPa 0,0 l/m 5,0 km/h (1 Bft) O-NO 61 0 min 0,000 mm 0,0 UV-I 7 W/m 13,8 C 23,1 C 6,4 km/h (2 Bft) 95,74 %
19.07.2017 20:58 23,0 C 25,6 C 57 % 1009,9 hPa 0,0 l/m 5,0 km/h (1 Bft) NO 54 0 min 0,000 mm 0,0 UV-I 7 W/m 14,0 C 23,0 C 8,0 km/h (2 Bft) 95,74 %
19.07.2017 21:00 22,9 C 25,6 C 57 % 1010,0 hPa 0,0 l/m 6,8 km/h (2 Bft) NO 48 0 min 0,101 mm 0,0 UV-I 5 W/m 13,9 C 22,8 C 9,7 km/h (2 Bft) 93,62 %
19.07.2017 21:02 22,8 C 25,6 C 57 % 1010,0 hPa 0,0 l/m 6,0 km/h (2 Bft) O-NO 61 0 min 0,000 mm 0,0 UV-I 5 W/m 13,8 C 22,8 C 8,0 km/h (2 Bft) 100,00 %
19.07.2017 21:04 22,7 C 25,6 C 58 % 1010,0 hPa 0,0 l/m 4,1 km/h (1 Bft) O-NO 61 0 min 0,000 mm 0,0 UV-I 5 W/m 14,0 C 22,7 C 6,4 km/h (2 Bft) 96,00 %
19.07.2017 21:06 22,7 C 25,6 C 58 % 1010,0 hPa 0,0 l/m 4,3 km/h (1 Bft) O-NO 61 0 min 0,000 mm 0,0 UV-I 5 W/m 14,0 C 22,7 C 6,4 km/h (2 Bft) 93,62 %
19.07.2017 21:08 22,6 C 25,6 C 58 % 1010,0 hPa 0,0 l/m 4,8 km/h (1 Bft) O-NO 61 0 min 0,000 mm 0,0 UV-I 3 W/m 13,9 C 22,6 C 6,4 km/h (2 Bft) 97,87 %
19.07.2017 21:10 22,4 C 25,6 C 59 % 1010,0 hPa 0,0 l/m 4,8 km/h (1 Bft) NO 52 0 min 0,000 mm 0,0 UV-I 0 W/m 14,0 C 22,4 C 6,4 km/h (2 Bft) 96,00 %
19.07.2017 21:12 22,2 C 25,6 C 60 % 1010,0 hPa 0,0 l/m 5,3 km/h (1 Bft) NO 44 0 min 0,000 mm 0,0 UV-I 0 W/m 14,1 C 22,2 C 6,4 km/h (2 Bft) 97,87 %
19.07.2017 21:14 22,1 C 25,6 C 60 % 1010,0 hPa 0,0 l/m 6,2 km/h (2 Bft) NO 42 0 min 0,000 mm 0,0 UV-I 0 W/m 14,0 C 22,1 C 8,0 km/h (2 Bft) 91,89 %
19.07.2017 21:16 21,9 C 25,6 C 61 % 1010,0 hPa 0,0 l/m 5,7 km/h (1 Bft) O-NO 63 0 min 0,000 mm 0,0 UV-I 0 W/m 14,0 C 21,9 C 8,0 km/h (2 Bft) 97,87 %
19.07.2017 21:18 21,9 C 25,6 C 62 % 1010,0 hPa 0,0 l/m 6,5 km/h (2 Bft) O-NO 60 0 min 0,000 mm 0,0 UV-I 0 W/m 14,3 C 21,9 C 8,0 km/h (2 Bft) 95,74 %
19.07.2017 21:20 21,9 C 25,6 C 61 % 1009,9 hPa 0,0 l/m 6,4 km/h (2 Bft) NO 44 0 min 0,000 mm 0,0 UV-I 0 W/m 14,0 C 21,9 C 9,7 km/h (2 Bft) 95,74 %
19.07.2017 21:22 22,0 C 25,6 C 61 % 1010,0 hPa 0,0 l/m 6,4 km/h (2 Bft) NO 51 0 min 0,000 mm 0,0 UV-I 0 W/m 14,1 C 22,0 C 9,7 km/h (2 Bft) 93,62 %
19.07.2017 21:24 22,1 C 25,6 C 61 % 1009,9 hPa 0,0 l/m 6,6 km/h (2 Bft) O-NO 58 0 min 0,000 mm 0,0 UV-I 0 W/m 14,2 C 22,0 C 9,7 km/h (2 Bft) 98,00 %
19.07.2017 21:26 22,1 C 25,6 C 61 % 1009,9 hPa 0,0 l/m 5,5 km/h (1 Bft) O-NO 62 0 min 0,000 mm 0,0 UV-I 0 W/m 14,2 C 22,1 C 8,0 km/h (2 Bft) 97,92 %
19.07.2017 21:28 22,1 C 25,6 C 61 % 1010,0 hPa 0,0 l/m 5,6 km/h (1 Bft) NO 49 0 min 0,000 mm 0,0 UV-I 0 W/m 14,2 C 22,1 C 6,4 km/h (2 Bft) 97,87 %
19.07.2017 21:30 21,9 C 25,6 C 62 % 1010,0 hPa 0,0 l/m 4,9 km/h (1 Bft) NO 49 0 min 0,000 mm 0,0 UV-I 0 W/m 14,3 C 21,9 C 6,4 km/h (2 Bft) 97,87 %
19.07.2017 21:32 21,8 C 25,6 C 62 % 1010,0 hPa 0,0 l/m 5,5 km/h (1 Bft) NO 49 0 min 0,000 mm 0,0 UV-I 0 W/m 14,2 C 21,8 C 8,0 km/h (2 Bft) 97,92 %
19.07.2017 21:34 21,7 C 25,6 C 62 % 1010,0 hPa 0,0 l/m 4,5 km/h (1 Bft) NO 49 0 min 0,000 mm 0,0 UV-I 0 W/m 14,1 C 21,7 C 6,4 km/h (2 Bft) 93,62 %
19.07.2017 21:36 21,6 C 25,6 C 63 % 1010,0 hPa 0,0 l/m 5,3 km/h (1 Bft) NO 44 0 min 0,000 mm 0,0 UV-I 0 W/m 14,2 C 21,6 C 6,4 km/h (2 Bft) 97,87 %
19.07.2017 21:38 21,4 C 25,6 C 63 % 1010,0 hPa 0,0 l/m 6,8 km/h (2 Bft) N-NO 26 0 min 0,000 mm 0,0 UV-I 0 W/m 14,1 C 21,3 C 8,0 km/h (2 Bft) 97,37 %
19.07.2017 21:40 21,3 C 25,6 C 63 % 1010,0 hPa 0,0 l/m 6,3 km/h (2 Bft) N-NO 32 0 min 0,000 mm 0,0 UV-I 0 W/m 14,0 C 21,3 C 8,0 km/h (2 Bft) 96,00 %
19.07.2017 21:42 21,2 C 25,6 C 64 % 1010,0 hPa 0,0 l/m 5,4 km/h (1 Bft) NO 37 0 min 0,000 mm 0,0 UV-I 0 W/m 14,1 C 21,2 C 6,4 km/h (2 Bft) 95,74 %
19.07.2017 21:44 21,2 C 25,6 C 64 % 1010,1 hPa 0,0 l/m 6,1 km/h (2 Bft) NO 35 0 min 0,000 mm 0,0 UV-I 0 W/m 14,1 C 21,2 C 8,0 km/h (2 Bft) 97,87 %
19.07.2017 21:46 21,1 C 25,6 C 64 % 1010,1 hPa 0,0 l/m 5,5 km/h (1 Bft) N-NO 30 0 min 0,000 mm 0,0 UV-I 0 W/m 14,0 C 21,1 C 8,0 km/h (2 Bft) 97,87 %
19.07.2017 21:48 21,1 C 25,6 C 65 % 1010,1 hPa 0,0 l/m 5,9 km/h (2 Bft) N-NO 28 0 min 0,000 mm 0,0 UV-I 0 W/m 14,3 C 21,1 C 8,0 km/h (2 Bft) 95,74 %
19.07.2017 21:50 21,0 C 25,6 C 65 % 1010,1 hPa 0,0 l/m 5,1 km/h (1 Bft) NO 38 0 min 0,000 mm 0,0 UV-I 0 W/m 14,2 C 21,0 C 6,4 km/h (2 Bft) 97,87 %
19.07.2017 21:52 20,9 C 25,6 C 65 % 1010,0 hPa 0,0 l/m 3,9 km/h (1 Bft) NO 38 0 min 0,000 mm 0,0 UV-I 0 W/m 14,1 C 20,9 C 6,4 km/h (2 Bft) 96,00 %
19.07.2017 21:54 20,8 C 25,6 C 65 % 1010,0 hPa 0,0 l/m 3,1 km/h (1 Bft) NO 38 0 min 0,000 mm 0,0 UV-I 0 W/m 14,0 C 20,8 C 4,8 km/h (1 Bft) 96,00 %
19.07.2017 21:56 20,8 C 25,6 C 65 % 1009,9 hPa 0,0 l/m 3,0 km/h (1 Bft) NO 38 0 min 0,000 mm 0,0 UV-I 0 W/m 14,0 C 20,8 C 4,8 km/h (1 Bft) 97,37 %
19.07.2017 21:58 20,8 C 25,6 C 65 % 1009,9 hPa 0,0 l/m 3,1 km/h (1 Bft) NO 38 0 min 0,000 mm 0,0 UV-I 0 W/m 14,0 C 20,8 C 4,8 km/h (1 Bft) 100,00 %
19.07.2017 22:00 20,7 C 25,6 C 66 % 1009,8 hPa 0,0 l/m 3,6 km/h (1 Bft) NO 37 0 min 0,051 mm 0,0 UV-I 0 W/m 14,1 C 20,7 C 6,4 km/h (2 Bft) 93,62 %
19.07.2017 22:02 20,6 C 25,6 C 66 % 1009,8 hPa 0,0 l/m 7,0 km/h (2 Bft) N-NO 30 0 min 0,000 mm 0,0 UV-I 0 W/m 14,0 C 20,4 C 9,7 km/h (2 Bft) 97,92 %
19.07.2017 22:04 20,5 C 25,6 C 66 % 1009,9 hPa 0,0 l/m 6,9 km/h (2 Bft) NO 38 0 min 0,000 mm 0,0 UV-I 0 W/m 13,9 C 20,3 C 9,7 km/h (2 Bft) 98,00 %
19.07.2017 22:06 20,5 C 25,6 C 67 % 1009,8 hPa 0,0 l/m 6,8 km/h (2 Bft) NO 37 0 min 0,000 mm 0,0 UV-I 0 W/m 14,2 C 20,3 C 9,7 km/h (2 Bft) 100,00 %
19.07.2017 22:08 20,4 C 25,6 C 67 % 1009,8 hPa 0,0 l/m 7,0 km/h (2 Bft) NO 42 0 min 0,000 mm 0,0 UV-I 0 W/m 14,1 C 20,2 C 9,7 km/h (2 Bft) 97,87 %
19.07.2017 22:10 20,3 C 25,6 C 67 % 1009,8 hPa 0,0 l/m 6,4 km/h (2 Bft) NO 35 0 min 0,000 mm 0,0 UV-I 0 W/m 14,0 C 20,3 C 9,7 km/h (2 Bft) 93,62 %
19.07.2017 22:12 20,3 C 25,6 C 67 % 1009,9 hPa 0,0 l/m 6,6 km/h (2 Bft) NO 34 0 min 0,000 mm 0,0 UV-I 0 W/m 14,0 C 20,2 C 9,7 km/h (2 Bft) 97,87 %
19.07.2017 22:14 20,2 C 25,6 C 68 % 1009,9 hPa 0,0 l/m 7,2 km/h (2 Bft) NO 43 0 min 0,000 mm 0,0 UV-I 0 W/m 14,1 C 19,9 C 11,3 km/h (2 Bft) 95,83 %
19.07.2017 22:16 20,1 C 25,6 C 68 % 1009,9 hPa 0,0 l/m 8,5 km/h (2 Bft) NO 42 0 min 0,000 mm 0,0 UV-I 0 W/m 14,0 C 19,3 C 11,3 km/h (2 Bft) 97,87 %
19.07.2017 22:18 20,1 C 25,6 C 68 % 1009,9 hPa 0,0 l/m 7,4 km/h (2 Bft) NO 40 0 min 0,000 mm 0,0 UV-I 0 W/m 14,0 C 19,7 C 9,7 km/h (2 Bft) 95,74 %
19.07.2017 22:20 20,0 C 25,6 C 68 % 1009,8 hPa 0,0 l/m 8,2 km/h (2 Bft) N-NO 27 0 min 0,000 mm 0,0 UV-I 0 W/m 13,9 C 19,3 C 11,3 km/h (2 Bft) 95,74 %
19.07.2017 22:22 20,0 C 25,6 C 68 % 1009,8 hPa 0,0 l/m 7,7 km/h (2 Bft) NO 38 0 min 0,000 mm 0,0 UV-I 0 W/m 13,9 C 19,5 C 9,7 km/h (2 Bft) 95,74 %
19.07.2017 22:24 20,0 C 25,6 C 68 % 1009,8 hPa 0,0 l/m 6,0 km/h (2 Bft) NO 36 0 min 0,000 mm 0,0 UV-I 0 W/m 13,9 C 20,0 C 9,7 km/h (2 Bft) 97,87 %
19.07.2017 22:26 20,0 C 25,6 C 68 % 1009,8 hPa 0,0 l/m 5,6 km/h (1 Bft) NO 42 0 min 0,000 mm 0,0 UV-I 0 W/m 13,9 C 20,0 C 8,0 km/h (2 Bft) 95,74 %
19.07.2017 22:28 19,9 C 25,6 C 68 % 1009,8 hPa 0,0 l/m 4,5 km/h (1 Bft) NO 45 0 min 0,000 mm 0,0 UV-I 0 W/m 13,8 C 19,9 C 6,4 km/h (2 Bft) 95,74 %
19.07.2017 22:30 20,0 C 25,6 C 68 % 1009,7 hPa 0,0 l/m 5,1 km/h (1 Bft) NO 52 0 min 0,000 mm 0,0 UV-I 0 W/m 13,9 C 20,0 C 6,4 km/h (2 Bft) 98,00 %
19.07.2017 22:32 20,1 C 25,6 C 68 % 1009,8 hPa 0,0 l/m 5,2 km/h (1 Bft) NO 53 0 min 0,000 mm 0,0 UV-I 0 W/m 14,0 C 20,1 C 6,4 km/h (2 Bft) 93,62 %
19.07.2017 22:34 20,0 C 25,6 C 68 % 1009,8 hPa 0,0 l/m 4,6 km/h (1 Bft) NO 53 0 min 0,000 mm 0,0 UV-I 0 W/m 13,9 C 20,0 C 6,4 km/h (2 Bft) 97,14 %
19.07.2017 22:36 19,9 C 25,6 C 68 % 1009,8 hPa 0,0 l/m 4,8 km/h (1 Bft) NO 43 0 min 0,000 mm 0,0 UV-I 0 W/m 13,8 C 19,9 C 8,0 km/h (2 Bft) 93,62 %
19.07.2017 22:38 19,8 C 25,6 C 69 % 1009,9 hPa 0,0 l/m 4,6 km/h (1 Bft) NO 44 0 min 0,000 mm 0,0 UV-I 0 W/m 13,9 C 19,8 C 6,4 km/h (2 Bft) 95,74 %
19.07.2017 22:40 19,7 C 25,6 C 69 % 1009,8 hPa 0,0 l/m 4,4 km/h (1 Bft) NO 44 0 min 0,000 mm 0,0 UV-I 0 W/m 13,8 C 19,7 C 6,4 km/h (2 Bft) 95,74 %
19.07.2017 22:42 19,8 C 25,6 C 69 % 1009,8 hPa 0,0 l/m 5,1 km/h (1 Bft) NO 46 0 min 0,000 mm 0,0 UV-I 0 W/m 13,9 C 19,8 C 6,4 km/h (2 Bft) 97,87 %
19.07.2017 22:44 19,8 C 25,6 C 69 % 1009,8 hPa 0,0 l/m 5,3 km/h (1 Bft) NO 47 0 min 0,000 mm 0,0 UV-I 0 W/m 13,9 C 19,8 C 6,4 km/h (2 Bft) 95,74 %
19.07.2017 22:46 19,9 C 25,6 C 68 % 1009,8 hPa 0,0 l/m 5,2 km/h (1 Bft) NO 49 0 min 0,000 mm 0,0 UV-I 0 W/m 13,8 C 19,9 C 6,4 km/h (2 Bft) 95,74 %
19.07.2017 22:48 19,9 C 25,6 C 68 % 1009,9 hPa 0,0 l/m 4,4 km/h (1 Bft) NO 49 0 min 0,000 mm 0,0 UV-I 0 W/m 13,8 C 19,9 C 6,4 km/h (2 Bft) 95,83 %
19.07.2017 22:50 19,9 C 25,6 C 68 % 1009,8 hPa 0,0 l/m 3,8 km/h (1 Bft) NO 50 0 min 0,000 mm 0,0 UV-I 0 W/m 13,8 C 19,9 C 4,8 km/h (1 Bft) 96,00 %
19.07.2017 22:52 20,0 C 25,6 C 68 % 1009,9 hPa 0,0 l/m 3,9 km/h (1 Bft) NO 50 0 min 0,000 mm 0,0 UV-I 0 W/m 13,9 C 20,0 C 6,4 km/h (2 Bft) 93,62 %
19.07.2017 22:54 20,1 C 25,6 C 68 % 1009,9 hPa 0,0 l/m 3,4 km/h (1 Bft) NO 50 0 min 0,000 mm 0,0 UV-I 0 W/m 14,0 C 20,1 C 4,8 km/h (1 Bft) 97,87 %
19.07.2017 22:56 20,1 C 25,6 C 68 % 1009,8 hPa 0,0 l/m 2,8 km/h (1 Bft) NO 50 0 min 0,000 mm 0,0 UV-I 0 W/m 14,0 C 20,1 C 4,8 km/h (1 Bft) 94,00 %
19.07.2017 22:58 20,1 C 25,6 C 68 % 1009,9 hPa 0,0 l/m 2,8 km/h (1 Bft) NO 50 0 min 0,000 mm 0,0 UV-I 0 W/m 14,0 C 20,1 C 4,8 km/h (1 Bft) 93,62 %
19.07.2017 23:00 20,1 C 25,6 C 68 % 1009,9 hPa 0,0 l/m 3,6 km/h (1 Bft) NO 50 0 min 0,000 mm 0,0 UV-I 0 W/m 14,0 C 20,1 C 4,8 km/h (1 Bft) 97,87 %
19.07.2017 23:02 20,0 C 25,6 C 69 % 1009,9 hPa 0,0 l/m 2,9 km/h (1 Bft) NO 50 0 min 0,025 mm 0,0 UV-I 0 W/m 14,1 C 20,0 C 4,8 km/h (1 Bft) 91,49 %
19.07.2017 23:04 19,9 C 25,6 C 69 % 1009,9 hPa 0,0 l/m 3,8 km/h (1 Bft) NO 50 0 min 0,000 mm 0,0 UV-I 0 W/m 14,0 C 19,9 C 6,4 km/h (2 Bft) 94,29 %
19.07.2017 23:06 19,9 C 25,6 C 69 % 1009,8 hPa 0,0 l/m 2,9 km/h (1 Bft) NO 50 0 min 0,000 mm 0,0 UV-I 0 W/m 14,0 C 19,9 C 4,8 km/h (1 Bft) 94,34 %
19.07.2017 23:08 19,9 C 25,6 C 69 % 1009,8 hPa 0,0 l/m 3,4 km/h (1 Bft) NO 50 0 min 0,000 mm 0,0 UV-I 0 W/m 14,0 C 19,9 C 4,8 km/h (1 Bft) 93,62 %
19.07.2017 23:10 19,8 C 25,6 C 69 % 1009,8 hPa 0,0 l/m 2,4 km/h (1 Bft) NO 50 0 min 0,000 mm 0,0 UV-I 0 W/m 13,9 C 19,8 C 4,8 km/h (1 Bft) 95,74 %
19.07.2017 23:12 19,8 C 25,6 C 69 % 1009,8 hPa 0,0 l/m 2,0 km/h (1 Bft) NO 50 0 min 0,000 mm 0,0 UV-I 0 W/m 13,9 C 19,8 C 3,2 km/h (1 Bft) 95,74 %
19.07.2017 23:14 19,9 C 25,6 C 69 % 1009,8 hPa 0,0 l/m 2,2 km/h (1 Bft) NO 50 0 min 0,000 mm 0,0 UV-I 0 W/m 14,0 C 19,9 C 4,8 km/h (1 Bft) 97,87 %
19.07.2017 23:16 19,8 C 25,6 C 69 % 1009,8 hPa 0,0 l/m 2,4 km/h (1 Bft) NO 50 0 min 0,000 mm 0,0 UV-I 0 W/m 13,9 C 19,8 C 4,8 km/h (1 Bft) 93,62 %
19.07.2017 23:18 19,7 C 25,6 C 70 % 1009,8 hPa 0,0 l/m 2,2 km/h (1 Bft) NO 50 0 min 0,000 mm 0,0 UV-I 0 W/m 14,1 C 19,7 C 3,2 km/h (1 Bft) 97,87 %
19.07.2017 23:20 19,6 C 25,6 C 70 % 1009,8 hPa 0,0 l/m 1,8 km/h (1 Bft) NO 50 0 min 0,000 mm 0,0 UV-I 0 W/m 14,0 C 19,6 C 3,2 km/h (1 Bft) 94,00 %
19.07.2017 23:22 19,4 C 25,6 C 70 % 1009,8 hPa 0,0 l/m 2,5 km/h (1 Bft) NO 50 0 min 0,000 mm 0,0 UV-I 0 W/m 13,8 C 19,4 C 3,2 km/h (1 Bft) 95,74 %
19.07.2017 23:24 19,4 C 25,6 C 70 % 1009,8 hPa 0,0 l/m 2,3 km/h (1 Bft) NO 50 0 min 0,000 mm 0,0 UV-I 0 W/m 13,8 C 19,4 C 3,2 km/h (1 Bft) 95,74 %
19.07.2017 23:26 19,4 C 25,6 C 70 % 1009,8 hPa 0,0 l/m 2,7 km/h (1 Bft) NO 50 0 min 0,000 mm 0,0 UV-I 0 W/m 13,8 C 19,4 C 4,8 km/h (1 Bft) 95,74 %
19.07.2017 23:28 19,4 C 25,6 C 70 % 1009,8 hPa 0,0 l/m 2,1 km/h (1 Bft) NO 50 0 min 0,000 mm 0,0 UV-I 0 W/m 13,8 C 19,4 C 4,8 km/h (1 Bft) 93,62 %
19.07.2017 23:30 19,4 C 25,6 C 71 % 1009,8 hPa 0,0 l/m 4,1 km/h (1 Bft) NO 50 0 min 0,000 mm 0,0 UV-I 0 W/m 14,0 C 19,4 C 6,4 km/h (2 Bft) 97,87 %
19.07.2017 23:32 19,4 C 25,6 C 70 % 1009,8 hPa 0,0 l/m 3,6 km/h (1 Bft) NO 50 0 min 0,000 mm 0,0 UV-I 0 W/m 13,8 C 19,4 C 6,4 km/h (2 Bft) 92,31 %
19.07.2017 23:34 19,5 C 25,6 C 70 % 1009,8 hPa 0,0 l/m 3,4 km/h (1 Bft) NO 50 0 min 0,000 mm 0,0 UV-I 0 W/m 13,9 C 19,5 C 4,8 km/h (1 Bft) 96,00 %
19.07.2017 23:36 19,5 C 25,6 C 70 % 1009,8 hPa 0,0 l/m 4,1 km/h (1 Bft) NO 50 0 min 0,000 mm 0,0 UV-I 0 W/m 13,9 C 19,5 C 6,4 km/h (2 Bft) 95,74 %
19.07.2017 23:38 19,4 C 25,6 C 71 % 1009,8 hPa 0,0 l/m 3,0 km/h (1 Bft) NO 50 0 min 0,000 mm 0,0 UV-I 0 W/m 14,0 C 19,4 C 4,8 km/h (1 Bft) 95,74 %
19.07.2017 23:40 19,3 C 25,6 C 71 % 1009,8 hPa 0,0 l/m 2,9 km/h (1 Bft) NO 50 0 min 0,000 mm 0,0 UV-I 0 W/m 13,9 C 19,3 C 4,8 km/h (1 Bft) 92,00 %
19.07.2017 23:42 19,2 C 25,6 C 71 % 1009,8 hPa 0,0 l/m 3,2 km/h (1 Bft) NO 50 0 min 0,000 mm 0,0 UV-I 0 W/m 13,8 C 19,2 C 4,8 km/h (1 Bft) 93,62 %
19.07.2017 23:44 19,2 C 25,6 C 72 % 1009,8 hPa 0,0 l/m 3,7 km/h (1 Bft) NO 50 0 min 0,000 mm 0,0 UV-I 0 W/m 14,0 C 19,2 C 6,4 km/h (2 Bft) 93,62 %
19.07.2017 23:46 19,2 C 25,6 C 72 % 1009,8 hPa 0,0 l/m 3,2 km/h (1 Bft) NO 50 0 min 0,000 mm 0,0 UV-I 0 W/m 14,0 C 19,2 C 4,8 km/h (1 Bft) 93,62 %
19.07.2017 23:48 19,2 C 25,6 C 72 % 1009,8 hPa 0,0 l/m 2,8 km/h (1 Bft) NO 50 0 min 0,000 mm 0,0 UV-I 0 W/m 14,0 C 19,2 C 4,8 km/h (1 Bft) 93,62 %
19.07.2017 23:50 19,2 C 25,6 C 72 % 1009,8 hPa 0,0 l/m 1,0 km/h (0 Bft) NO 50 0 min 0,000 mm 0,0 UV-I 0 W/m 14,0 C 19,2 C 3,2 km/h (1 Bft) 96,00 %
19.07.2017 23:52 19,1 C 25,6 C 73 % 1009,9 hPa 0,0 l/m 0,9 km/h (0 Bft) NO 50 0 min 0,000 mm 0,0 UV-I 0 W/m 14,1 C 19,1 C 3,2 km/h (1 Bft) 95,74 %
19.07.2017 23:54 18,9 C 25,6 C 74 % 1009,9 hPa 0,0 l/m 0,1 km/h (0 Bft) NO 50 0 min 0,000 mm 0,0 UV-I 0 W/m 14,2 C 18,9 C 1,6 km/h (1 Bft) 97,14 %
19.07.2017 23:56 18,8 C 25,6 C 74 % 1009,9 hPa 0,0 l/m 1,2 km/h (1 Bft) NO 51 0 min 0,000 mm 0,0 UV-I 0 W/m 14,1 C 18,8 C 6,4 km/h (2 Bft) 95,74 %
19.07.2017 23:58 18,7 C 25,6 C 75 % 1010,0 hPa 0,0 l/m 1,1 km/h (1 Bft) NO 51 0 min 0,000 mm 0,0 UV-I 0 W/m 14,2 C 18,7 C 3,2 km/h (1 Bft) 98,00 %
_ Min-Zeit 05:44 04:52 15:48 17:38 - 00:26 - - - - - - 15:58 05:44 00:26 06:46
Minimum _ 16,8 C 23,9 C 27 % 1009,7 hPa - 0,0 km/h (0 Bft) - - - - - - 10,5 C 16,8 C 0,0 km/h (0 Bft) 86,00 %
_ Max-Zeit 17:50 15:28 05:48 08:48 00:00 19:00 - - 05:36 13:00 13:16 10:54 00:08 17:50 18:58 00:12
Maximum _ 32,6 C 26,1 C 83 % 1013,9 hPa 0,0 l/m 27,5 km/h
O-NO (4 Bft)
- - 2 min 0,635 mm 6,3 UV-I 1000 W/m 16,2 C 32,6 C 41,8 km/h
NO (6 Bft)
100,00 %
Durchschnitt _ 24,0 C 25,0 C 56 % 1012,0 hPa #0,0 l/m 4,9 km/h (1 Bft) SW - #10:54 h #5,740 mm 3,6 UV-I 434 W/m 13,7 C 23,9 C 8,4 km/h (2 Bft) 96,18 %